<?xml version="1.0" encoding="UTF-8" standalone="no" ?>
<gpx xmlns="http://www.topografix.com/GPX/1/1" xmlns:xsi="http://www.w3.org/2001/XMLSchema-instance" xsi:schemaLocation="http://www.topografix.com/GPX/1/1 http://www.topografix.com/GPX/1/1/gpx.xsd" version="1.1" creator="VisuGPX - https://www.visugpx.com">
  <metadata>
    <name>Mensu 16 VTT44.com</name>
    <desc><![CDATA[Escapade au départ d\'Orvault par le Cens et autre !!! A pratiquer par temps pas trop humide !!! ^^]]></desc>
  </metadata>
  <trk>
    <name><![CDATA[Mensu 16]]></name>
    <trkseg>
      <trkpt lat="47.27041" lon="-1.62418">
        <ele>39.55</ele>
        <time>2014-02-16T07:47:17Z</time>
      </trkpt>
      <trkpt lat="47.27028" lon="-1.62431">
        <ele>45.8</ele>
        <time>2014-02-16T07:47:29Z</time>
      </trkpt>
      <trkpt lat="47.27032" lon="-1.62439">
        <ele>48.68</ele>
        <time>2014-02-16T07:47:33Z</time>
      </trkpt>
      <trkpt lat="47.271" lon="-1.62354">
        <ele>45.8</ele>
        <time>2014-02-16T07:47:51Z</time>
      </trkpt>
      <trkpt lat="47.27108" lon="-1.62346">
        <ele>46.28</ele>
        <time>2014-02-16T07:47:54Z</time>
      </trkpt>
      <trkpt lat="47.27111" lon="-1.62347">
        <ele>46.28</ele>
        <time>2014-02-16T07:47:55Z</time>
      </trkpt>
      <trkpt lat="47.27114" lon="-1.62349">
        <ele>46.28</ele>
        <time>2014-02-16T07:47:56Z</time>
      </trkpt>
      <trkpt lat="47.27114" lon="-1.6236">
        <ele>46.28</ele>
        <time>2014-02-16T07:47:58Z</time>
      </trkpt>
      <trkpt lat="47.27111" lon="-1.62363">
        <ele>46.28</ele>
        <time>2014-02-16T07:47:59Z</time>
      </trkpt>
      <trkpt lat="47.27107" lon="-1.62367">
        <ele>46.28</ele>
        <time>2014-02-16T07:48:00Z</time>
      </trkpt>
      <trkpt lat="47.27104" lon="-1.62371">
        <ele>46.28</ele>
        <time>2014-02-16T07:48:01Z</time>
      </trkpt>
      <trkpt lat="47.271" lon="-1.62375">
        <ele>46.76</ele>
        <time>2014-02-16T07:48:02Z</time>
      </trkpt>
      <trkpt lat="47.27094" lon="-1.62384">
        <ele>47.24</ele>
        <time>2014-02-16T07:48:04Z</time>
      </trkpt>
      <trkpt lat="47.27069" lon="-1.62421">
        <ele>50.13</ele>
        <time>2014-02-16T07:48:14Z</time>
      </trkpt>
      <trkpt lat="47.27051" lon="-1.62449">
        <ele>51.57</ele>
        <time>2014-02-16T07:48:23Z</time>
      </trkpt>
      <trkpt lat="47.27032" lon="-1.62475">
        <ele>51.57</ele>
        <time>2014-02-16T07:48:33Z</time>
      </trkpt>
      <trkpt lat="47.27019" lon="-1.62503">
        <ele>52.53</ele>
        <time>2014-02-16T07:48:42Z</time>
      </trkpt>
      <trkpt lat="47.27016" lon="-1.62534">
        <ele>53.49</ele>
        <time>2014-02-16T07:48:51Z</time>
      </trkpt>
      <trkpt lat="47.27016" lon="-1.62536">
        <ele>53.49</ele>
        <time>2014-02-16T07:48:52Z</time>
      </trkpt>
      <trkpt lat="47.27016" lon="-1.62539">
        <ele>53.97</ele>
        <time>2014-02-16T07:48:53Z</time>
      </trkpt>
      <trkpt lat="47.27014" lon="-1.6255">
        <ele>56.37</ele>
        <time>2014-02-16T07:49:01Z</time>
      </trkpt>
      <trkpt lat="47.27011" lon="-1.6255">
        <ele>54.45</ele>
        <time>2014-02-16T07:49:08Z</time>
      </trkpt>
      <trkpt lat="47.27009" lon="-1.62554">
        <ele>51.57</ele>
        <time>2014-02-16T07:49:28Z</time>
      </trkpt>
      <trkpt lat="47.2701" lon="-1.62551">
        <ele>48.68</ele>
        <time>2014-02-16T07:49:51Z</time>
      </trkpt>
      <trkpt lat="47.27005" lon="-1.62549">
        <ele>53.97</ele>
        <time>2014-02-16T07:50:05Z</time>
      </trkpt>
      <trkpt lat="47.27" lon="-1.62546">
        <ele>56.37</ele>
        <time>2014-02-16T07:50:16Z</time>
      </trkpt>
      <trkpt lat="47.26995" lon="-1.62542">
        <ele>55.89</ele>
        <time>2014-02-16T07:50:26Z</time>
      </trkpt>
      <trkpt lat="47.26991" lon="-1.6254">
        <ele>55.41</ele>
        <time>2014-02-16T07:50:36Z</time>
      </trkpt>
      <trkpt lat="47.26983" lon="-1.6254">
        <ele>53.49</ele>
        <time>2014-02-16T07:50:46Z</time>
      </trkpt>
      <trkpt lat="47.26977" lon="-1.62536">
        <ele>51.57</ele>
        <time>2014-02-16T07:50:49Z</time>
      </trkpt>
      <trkpt lat="47.26971" lon="-1.62538">
        <ele>48.68</ele>
        <time>2014-02-16T07:50:58Z</time>
      </trkpt>
      <trkpt lat="47.26969" lon="-1.62543">
        <ele>48.2</ele>
        <time>2014-02-16T07:51:04Z</time>
      </trkpt>
      <trkpt lat="47.26969" lon="-1.62538">
        <ele>49.16</ele>
        <time>2014-02-16T07:51:11Z</time>
      </trkpt>
      <trkpt lat="47.26968" lon="-1.62538">
        <ele>49.16</ele>
        <time>2014-02-16T07:51:24Z</time>
      </trkpt>
      <trkpt lat="47.26967" lon="-1.6254">
        <ele>49.16</ele>
        <time>2014-02-16T07:51:36Z</time>
      </trkpt>
      <trkpt lat="47.26967" lon="-1.62539">
        <ele>49.65</ele>
        <time>2014-02-16T07:51:41Z</time>
      </trkpt>
      <trkpt lat="47.2696" lon="-1.62509">
        <ele>51.09</ele>
        <time>2014-02-16T07:51:49Z</time>
      </trkpt>
      <trkpt lat="47.26958" lon="-1.62502">
        <ele>51.09</ele>
        <time>2014-02-16T07:51:50Z</time>
      </trkpt>
      <trkpt lat="47.26952" lon="-1.62487">
        <ele>51.57</ele>
        <time>2014-02-16T07:51:52Z</time>
      </trkpt>
      <trkpt lat="47.26944" lon="-1.62471">
        <ele>51.57</ele>
        <time>2014-02-16T07:51:54Z</time>
      </trkpt>
      <trkpt lat="47.26939" lon="-1.62463">
        <ele>51.57</ele>
        <time>2014-02-16T07:51:55Z</time>
      </trkpt>
      <trkpt lat="47.26917" lon="-1.62433">
        <ele>48.68</ele>
        <time>2014-02-16T07:52:01Z</time>
      </trkpt>
      <trkpt lat="47.26908" lon="-1.62431">
        <ele>47.24</ele>
        <time>2014-02-16T07:52:03Z</time>
      </trkpt>
      <trkpt lat="47.26899" lon="-1.6243">
        <ele>45.32</ele>
        <time>2014-02-16T07:52:05Z</time>
      </trkpt>
      <trkpt lat="47.2688" lon="-1.62427">
        <ele>40.51</ele>
        <time>2014-02-16T07:52:12Z</time>
      </trkpt>
      <trkpt lat="47.26875" lon="-1.62426">
        <ele>39.55</ele>
        <time>2014-02-16T07:52:18Z</time>
      </trkpt>
      <trkpt lat="47.26873" lon="-1.62426">
        <ele>39.07</ele>
        <time>2014-02-16T07:52:19Z</time>
      </trkpt>
      <trkpt lat="47.26872" lon="-1.62424">
        <ele>39.07</ele>
        <time>2014-02-16T07:52:20Z</time>
      </trkpt>
      <trkpt lat="47.26869" lon="-1.62422">
        <ele>39.07</ele>
        <time>2014-02-16T07:52:21Z</time>
      </trkpt>
      <trkpt lat="47.26865" lon="-1.62419">
        <ele>39.07</ele>
        <time>2014-02-16T07:52:22Z</time>
      </trkpt>
      <trkpt lat="47.26862" lon="-1.62416">
        <ele>38.59</ele>
        <time>2014-02-16T07:52:23Z</time>
      </trkpt>
      <trkpt lat="47.26818" lon="-1.6238">
        <ele>32.82</ele>
        <time>2014-02-16T07:52:32Z</time>
      </trkpt>
      <trkpt lat="47.26804" lon="-1.62369">
        <ele>30.42</ele>
        <time>2014-02-16T07:52:35Z</time>
      </trkpt>
      <trkpt lat="47.268" lon="-1.62367">
        <ele>29.46</ele>
        <time>2014-02-16T07:52:36Z</time>
      </trkpt>
      <trkpt lat="47.26796" lon="-1.62366">
        <ele>28.5</ele>
        <time>2014-02-16T07:52:37Z</time>
      </trkpt>
      <trkpt lat="47.26792" lon="-1.62368">
        <ele>27.53</ele>
        <time>2014-02-16T07:52:38Z</time>
      </trkpt>
      <trkpt lat="47.2679" lon="-1.62373">
        <ele>27.05</ele>
        <time>2014-02-16T07:52:39Z</time>
      </trkpt>
      <trkpt lat="47.26789" lon="-1.6238">
        <ele>26.57</ele>
        <time>2014-02-16T07:52:40Z</time>
      </trkpt>
      <trkpt lat="47.26788" lon="-1.62387">
        <ele>26.09</ele>
        <time>2014-02-16T07:52:41Z</time>
      </trkpt>
      <trkpt lat="47.26788" lon="-1.62396">
        <ele>25.61</ele>
        <time>2014-02-16T07:52:42Z</time>
      </trkpt>
      <trkpt lat="47.26784" lon="-1.6244">
        <ele>24.65</ele>
        <time>2014-02-16T07:52:48Z</time>
      </trkpt>
      <trkpt lat="47.2678" lon="-1.62464">
        <ele>24.17</ele>
        <time>2014-02-16T07:52:52Z</time>
      </trkpt>
      <trkpt lat="47.26775" lon="-1.62526">
        <ele>23.69</ele>
        <time>2014-02-16T07:53:00Z</time>
      </trkpt>
      <trkpt lat="47.26772" lon="-1.6256">
        <ele>23.69</ele>
        <time>2014-02-16T07:53:05Z</time>
      </trkpt>
      <trkpt lat="47.26771" lon="-1.62566">
        <ele>23.69</ele>
        <time>2014-02-16T07:53:06Z</time>
      </trkpt>
      <trkpt lat="47.26769" lon="-1.62625">
        <ele>22.73</ele>
        <time>2014-02-16T07:53:16Z</time>
      </trkpt>
      <trkpt lat="47.26774" lon="-1.62692">
        <ele>22.73</ele>
        <time>2014-02-16T07:53:27Z</time>
      </trkpt>
      <trkpt lat="47.26776" lon="-1.6275">
        <ele>25.61</ele>
        <time>2014-02-16T07:53:37Z</time>
      </trkpt>
      <trkpt lat="47.26782" lon="-1.62829">
        <ele>30.42</ele>
        <time>2014-02-16T07:53:50Z</time>
      </trkpt>
      <trkpt lat="47.26786" lon="-1.62874">
        <ele>35.23</ele>
        <time>2014-02-16T07:53:59Z</time>
      </trkpt>
      <trkpt lat="47.26785" lon="-1.62878">
        <ele>35.71</ele>
        <time>2014-02-16T07:54:00Z</time>
      </trkpt>
      <trkpt lat="47.26773" lon="-1.62916">
        <ele>36.67</ele>
        <time>2014-02-16T07:54:09Z</time>
      </trkpt>
      <trkpt lat="47.26762" lon="-1.62966">
        <ele>32.34</ele>
        <time>2014-02-16T07:54:19Z</time>
      </trkpt>
      <trkpt lat="47.26761" lon="-1.62983">
        <ele>31.38</ele>
        <time>2014-02-16T07:54:22Z</time>
      </trkpt>
      <trkpt lat="47.26761" lon="-1.6299">
        <ele>30.9</ele>
        <time>2014-02-16T07:54:23Z</time>
      </trkpt>
      <trkpt lat="47.26762" lon="-1.62996">
        <ele>30.9</ele>
        <time>2014-02-16T07:54:24Z</time>
      </trkpt>
      <trkpt lat="47.26764" lon="-1.63001">
        <ele>30.42</ele>
        <time>2014-02-16T07:54:25Z</time>
      </trkpt>
      <trkpt lat="47.26766" lon="-1.63006">
        <ele>29.94</ele>
        <time>2014-02-16T07:54:26Z</time>
      </trkpt>
      <trkpt lat="47.26767" lon="-1.63011">
        <ele>29.46</ele>
        <time>2014-02-16T07:54:27Z</time>
      </trkpt>
      <trkpt lat="47.26769" lon="-1.63016">
        <ele>29.46</ele>
        <time>2014-02-16T07:54:28Z</time>
      </trkpt>
      <trkpt lat="47.26772" lon="-1.63021">
        <ele>29.46</ele>
        <time>2014-02-16T07:54:29Z</time>
      </trkpt>
      <trkpt lat="47.26775" lon="-1.63025">
        <ele>29.46</ele>
        <time>2014-02-16T07:54:30Z</time>
      </trkpt>
      <trkpt lat="47.26779" lon="-1.63028">
        <ele>29.46</ele>
        <time>2014-02-16T07:54:31Z</time>
      </trkpt>
      <trkpt lat="47.26784" lon="-1.63029">
        <ele>29.46</ele>
        <time>2014-02-16T07:54:32Z</time>
      </trkpt>
      <trkpt lat="47.26788" lon="-1.63028">
        <ele>29.46</ele>
        <time>2014-02-16T07:54:33Z</time>
      </trkpt>
      <trkpt lat="47.26791" lon="-1.63028">
        <ele>29.46</ele>
        <time>2014-02-16T07:54:34Z</time>
      </trkpt>
      <trkpt lat="47.26795" lon="-1.63028">
        <ele>29.46</ele>
        <time>2014-02-16T07:54:35Z</time>
      </trkpt>
      <trkpt lat="47.26807" lon="-1.63031">
        <ele>28.5</ele>
        <time>2014-02-16T07:54:43Z</time>
      </trkpt>
      <trkpt lat="47.26813" lon="-1.63029">
        <ele>26.57</ele>
        <time>2014-02-16T07:54:53Z</time>
      </trkpt>
      <trkpt lat="47.2682" lon="-1.63029">
        <ele>24.17</ele>
        <time>2014-02-16T07:55:04Z</time>
      </trkpt>
      <trkpt lat="47.26823" lon="-1.63031">
        <ele>23.21</ele>
        <time>2014-02-16T07:55:13Z</time>
      </trkpt>
      <trkpt lat="47.26821" lon="-1.63037">
        <ele>27.05</ele>
        <time>2014-02-16T07:55:23Z</time>
      </trkpt>
      <trkpt lat="47.26823" lon="-1.63044">
        <ele>27.53</ele>
        <time>2014-02-16T07:55:35Z</time>
      </trkpt>
      <trkpt lat="47.26825" lon="-1.63052">
        <ele>28.02</ele>
        <time>2014-02-16T07:55:43Z</time>
      </trkpt>
      <trkpt lat="47.26825" lon="-1.63062">
        <ele>28.02</ele>
        <time>2014-02-16T07:55:53Z</time>
      </trkpt>
      <trkpt lat="47.26827" lon="-1.63069">
        <ele>30.42</ele>
        <time>2014-02-16T07:56:13Z</time>
      </trkpt>
      <trkpt lat="47.26826" lon="-1.63071">
        <ele>30.9</ele>
        <time>2014-02-16T07:56:14Z</time>
      </trkpt>
      <trkpt lat="47.26824" lon="-1.63073">
        <ele>30.9</ele>
        <time>2014-02-16T07:56:16Z</time>
      </trkpt>
      <trkpt lat="47.26822" lon="-1.63073">
        <ele>32.34</ele>
        <time>2014-02-16T07:56:20Z</time>
      </trkpt>
      <trkpt lat="47.26821" lon="-1.63071">
        <ele>32.34</ele>
        <time>2014-02-16T07:56:21Z</time>
      </trkpt>
      <trkpt lat="47.26821" lon="-1.63069">
        <ele>32.34</ele>
        <time>2014-02-16T07:56:22Z</time>
      </trkpt>
      <trkpt lat="47.26822" lon="-1.63066">
        <ele>32.34</ele>
        <time>2014-02-16T07:56:24Z</time>
      </trkpt>
      <trkpt lat="47.26822" lon="-1.63064">
        <ele>32.34</ele>
        <time>2014-02-16T07:56:25Z</time>
      </trkpt>
      <trkpt lat="47.2682" lon="-1.6306">
        <ele>32.34</ele>
        <time>2014-02-16T07:56:28Z</time>
      </trkpt>
      <trkpt lat="47.26818" lon="-1.6306">
        <ele>32.82</ele>
        <time>2014-02-16T07:56:29Z</time>
      </trkpt>
      <trkpt lat="47.26806" lon="-1.6306">
        <ele>33.3</ele>
        <time>2014-02-16T07:56:34Z</time>
      </trkpt>
      <trkpt lat="47.26792" lon="-1.63066">
        <ele>35.23</ele>
        <time>2014-02-16T07:56:40Z</time>
      </trkpt>
      <trkpt lat="47.26782" lon="-1.63068">
        <ele>36.19</ele>
        <time>2014-02-16T07:56:43Z</time>
      </trkpt>
      <trkpt lat="47.26762" lon="-1.63058">
        <ele>37.63</ele>
        <time>2014-02-16T07:56:50Z</time>
      </trkpt>
      <trkpt lat="47.26758" lon="-1.63055">
        <ele>40.03</ele>
        <time>2014-02-16T07:57:00Z</time>
      </trkpt>
      <trkpt lat="47.26755" lon="-1.63048">
        <ele>41.95</ele>
        <time>2014-02-16T07:57:10Z</time>
      </trkpt>
      <trkpt lat="47.2675" lon="-1.63038">
        <ele>43.88</ele>
        <time>2014-02-16T07:57:21Z</time>
      </trkpt>
      <trkpt lat="47.26749" lon="-1.6302">
        <ele>47.24</ele>
        <time>2014-02-16T07:57:30Z</time>
      </trkpt>
      <trkpt lat="47.2675" lon="-1.63012">
        <ele>48.68</ele>
        <time>2014-02-16T07:57:33Z</time>
      </trkpt>
      <trkpt lat="47.26751" lon="-1.6299">
        <ele>48.2</ele>
        <time>2014-02-16T07:57:39Z</time>
      </trkpt>
      <trkpt lat="47.26753" lon="-1.62982">
        <ele>48.2</ele>
        <time>2014-02-16T07:57:41Z</time>
      </trkpt>
      <trkpt lat="47.26753" lon="-1.62958">
        <ele>48.2</ele>
        <time>2014-02-16T07:57:45Z</time>
      </trkpt>
      <trkpt lat="47.26757" lon="-1.62939">
        <ele>48.68</ele>
        <time>2014-02-16T07:57:48Z</time>
      </trkpt>
      <trkpt lat="47.26766" lon="-1.6292">
        <ele>48.68</ele>
        <time>2014-02-16T07:57:51Z</time>
      </trkpt>
      <trkpt lat="47.26766" lon="-1.62914">
        <ele>47.72</ele>
        <time>2014-02-16T07:57:52Z</time>
      </trkpt>
      <trkpt lat="47.26767" lon="-1.62908">
        <ele>47.24</ele>
        <time>2014-02-16T07:57:53Z</time>
      </trkpt>
      <trkpt lat="47.26767" lon="-1.62903">
        <ele>46.76</ele>
        <time>2014-02-16T07:57:54Z</time>
      </trkpt>
      <trkpt lat="47.26765" lon="-1.62899">
        <ele>45.8</ele>
        <time>2014-02-16T07:57:55Z</time>
      </trkpt>
      <trkpt lat="47.26761" lon="-1.62888">
        <ele>45.32</ele>
        <time>2014-02-16T07:57:58Z</time>
      </trkpt>
      <trkpt lat="47.26758" lon="-1.62851">
        <ele>43.88</ele>
        <time>2014-02-16T07:58:05Z</time>
      </trkpt>
      <trkpt lat="47.26758" lon="-1.62809">
        <ele>42.44</ele>
        <time>2014-02-16T07:58:13Z</time>
      </trkpt>
      <trkpt lat="47.2676" lon="-1.62798">
        <ele>42.92</ele>
        <time>2014-02-16T07:58:15Z</time>
      </trkpt>
      <trkpt lat="47.2676" lon="-1.62791">
        <ele>43.4</ele>
        <time>2014-02-16T07:58:16Z</time>
      </trkpt>
      <trkpt lat="47.26759" lon="-1.62762">
        <ele>46.76</ele>
        <time>2014-02-16T07:58:23Z</time>
      </trkpt>
      <trkpt lat="47.26759" lon="-1.62758">
        <ele>46.76</ele>
        <time>2014-02-16T07:58:24Z</time>
      </trkpt>
      <trkpt lat="47.26758" lon="-1.62754">
        <ele>47.24</ele>
        <time>2014-02-16T07:58:25Z</time>
      </trkpt>
      <trkpt lat="47.26757" lon="-1.6275">
        <ele>47.72</ele>
        <time>2014-02-16T07:58:26Z</time>
      </trkpt>
      <trkpt lat="47.26758" lon="-1.62746">
        <ele>48.2</ele>
        <time>2014-02-16T07:58:27Z</time>
      </trkpt>
      <trkpt lat="47.26758" lon="-1.62742">
        <ele>48.68</ele>
        <time>2014-02-16T07:58:28Z</time>
      </trkpt>
      <trkpt lat="47.26758" lon="-1.62739">
        <ele>49.16</ele>
        <time>2014-02-16T07:58:29Z</time>
      </trkpt>
      <trkpt lat="47.26758" lon="-1.62737">
        <ele>49.65</ele>
        <time>2014-02-16T07:58:30Z</time>
      </trkpt>
      <trkpt lat="47.26758" lon="-1.62722">
        <ele>52.05</ele>
        <time>2014-02-16T07:58:37Z</time>
      </trkpt>
      <trkpt lat="47.26757" lon="-1.62707">
        <ele>53.49</ele>
        <time>2014-02-16T07:58:43Z</time>
      </trkpt>
      <trkpt lat="47.26757" lon="-1.62704">
        <ele>53.97</ele>
        <time>2014-02-16T07:58:44Z</time>
      </trkpt>
      <trkpt lat="47.26757" lon="-1.62701">
        <ele>54.93</ele>
        <time>2014-02-16T07:58:45Z</time>
      </trkpt>
      <trkpt lat="47.26757" lon="-1.62698">
        <ele>54.93</ele>
        <time>2014-02-16T07:58:46Z</time>
      </trkpt>
      <trkpt lat="47.26757" lon="-1.62696">
        <ele>55.41</ele>
        <time>2014-02-16T07:58:47Z</time>
      </trkpt>
      <trkpt lat="47.26758" lon="-1.6268">
        <ele>56.86</ele>
        <time>2014-02-16T07:58:58Z</time>
      </trkpt>
      <trkpt lat="47.26756" lon="-1.62674">
        <ele>59.26</ele>
        <time>2014-02-16T07:59:13Z</time>
      </trkpt>
      <trkpt lat="47.26752" lon="-1.62666">
        <ele>57.34</ele>
        <time>2014-02-16T07:59:22Z</time>
      </trkpt>
      <trkpt lat="47.26749" lon="-1.62661">
        <ele>55.89</ele>
        <time>2014-02-16T07:59:30Z</time>
      </trkpt>
      <trkpt lat="47.26747" lon="-1.62659">
        <ele>54.45</ele>
        <time>2014-02-16T07:59:39Z</time>
      </trkpt>
      <trkpt lat="47.26749" lon="-1.6265">
        <ele>53.01</ele>
        <time>2014-02-16T07:59:47Z</time>
      </trkpt>
      <trkpt lat="47.26749" lon="-1.62636">
        <ele>53.49</ele>
        <time>2014-02-16T07:59:53Z</time>
      </trkpt>
      <trkpt lat="47.26749" lon="-1.62632">
        <ele>53.49</ele>
        <time>2014-02-16T07:59:54Z</time>
      </trkpt>
      <trkpt lat="47.26749" lon="-1.62629">
        <ele>53.49</ele>
        <time>2014-02-16T07:59:55Z</time>
      </trkpt>
      <trkpt lat="47.2675" lon="-1.62626">
        <ele>53.49</ele>
        <time>2014-02-16T07:59:56Z</time>
      </trkpt>
      <trkpt lat="47.2675" lon="-1.62622">
        <ele>53.49</ele>
        <time>2014-02-16T07:59:57Z</time>
      </trkpt>
      <trkpt lat="47.2675" lon="-1.62619">
        <ele>53.49</ele>
        <time>2014-02-16T07:59:58Z</time>
      </trkpt>
      <trkpt lat="47.26751" lon="-1.62615">
        <ele>53.97</ele>
        <time>2014-02-16T07:59:59Z</time>
      </trkpt>
      <trkpt lat="47.26755" lon="-1.62598">
        <ele>56.86</ele>
        <time>2014-02-16T08:00:08Z</time>
      </trkpt>
      <trkpt lat="47.2675" lon="-1.62595">
        <ele>55.89</ele>
        <time>2014-02-16T08:00:22Z</time>
      </trkpt>
      <trkpt lat="47.26751" lon="-1.62579">
        <ele>53.01</ele>
        <time>2014-02-16T08:00:30Z</time>
      </trkpt>
      <trkpt lat="47.26751" lon="-1.62573">
        <ele>52.53</ele>
        <time>2014-02-16T08:00:32Z</time>
      </trkpt>
      <trkpt lat="47.2675" lon="-1.62569">
        <ele>52.05</ele>
        <time>2014-02-16T08:00:33Z</time>
      </trkpt>
      <trkpt lat="47.26749" lon="-1.62566">
        <ele>52.05</ele>
        <time>2014-02-16T08:00:34Z</time>
      </trkpt>
      <trkpt lat="47.26749" lon="-1.62562">
        <ele>51.57</ele>
        <time>2014-02-16T08:00:35Z</time>
      </trkpt>
      <trkpt lat="47.26748" lon="-1.62558">
        <ele>51.57</ele>
        <time>2014-02-16T08:00:36Z</time>
      </trkpt>
      <trkpt lat="47.26747" lon="-1.62555">
        <ele>51.57</ele>
        <time>2014-02-16T08:00:37Z</time>
      </trkpt>
      <trkpt lat="47.26746" lon="-1.62551">
        <ele>51.57</ele>
        <time>2014-02-16T08:00:38Z</time>
      </trkpt>
      <trkpt lat="47.26746" lon="-1.62548">
        <ele>51.57</ele>
        <time>2014-02-16T08:00:39Z</time>
      </trkpt>
      <trkpt lat="47.26745" lon="-1.62546">
        <ele>51.57</ele>
        <time>2014-02-16T08:00:40Z</time>
      </trkpt>
      <trkpt lat="47.26745" lon="-1.62543">
        <ele>51.57</ele>
        <time>2014-02-16T08:00:41Z</time>
      </trkpt>
      <trkpt lat="47.26745" lon="-1.6254">
        <ele>51.57</ele>
        <time>2014-02-16T08:00:42Z</time>
      </trkpt>
      <trkpt lat="47.26745" lon="-1.62537">
        <ele>51.57</ele>
        <time>2014-02-16T08:00:43Z</time>
      </trkpt>
      <trkpt lat="47.26746" lon="-1.62532">
        <ele>51.57</ele>
        <time>2014-02-16T08:00:44Z</time>
      </trkpt>
      <trkpt lat="47.26746" lon="-1.62529">
        <ele>51.57</ele>
        <time>2014-02-16T08:00:45Z</time>
      </trkpt>
      <trkpt lat="47.26744" lon="-1.62521">
        <ele>51.57</ele>
        <time>2014-02-16T08:00:49Z</time>
      </trkpt>
      <trkpt lat="47.26746" lon="-1.62498">
        <ele>52.53</ele>
        <time>2014-02-16T08:00:57Z</time>
      </trkpt>
      <trkpt lat="47.2675" lon="-1.62467">
        <ele>56.37</ele>
        <time>2014-02-16T08:01:07Z</time>
      </trkpt>
      <trkpt lat="47.26751" lon="-1.62462">
        <ele>57.82</ele>
        <time>2014-02-16T08:01:11Z</time>
      </trkpt>
      <trkpt lat="47.26758" lon="-1.62443">
        <ele>62.62</ele>
        <time>2014-02-16T08:01:20Z</time>
      </trkpt>
      <trkpt lat="47.26763" lon="-1.6243">
        <ele>62.14</ele>
        <time>2014-02-16T08:01:27Z</time>
      </trkpt>
      <trkpt lat="47.26765" lon="-1.62423">
        <ele>60.7</ele>
        <time>2014-02-16T08:01:37Z</time>
      </trkpt>
      <trkpt lat="47.2676" lon="-1.62416">
        <ele>58.78</ele>
        <time>2014-02-16T08:01:49Z</time>
      </trkpt>
      <trkpt lat="47.26759" lon="-1.62411">
        <ele>54.93</ele>
        <time>2014-02-16T08:02:00Z</time>
      </trkpt>
      <trkpt lat="47.26759" lon="-1.62406">
        <ele>50.13</ele>
        <time>2014-02-16T08:02:11Z</time>
      </trkpt>
      <trkpt lat="47.26761" lon="-1.62396">
        <ele>51.09</ele>
        <time>2014-02-16T08:02:27Z</time>
      </trkpt>
      <trkpt lat="47.26759" lon="-1.62394">
        <ele>49.16</ele>
        <time>2014-02-16T08:02:31Z</time>
      </trkpt>
      <trkpt lat="47.26756" lon="-1.62385">
        <ele>46.76</ele>
        <time>2014-02-16T08:02:41Z</time>
      </trkpt>
      <trkpt lat="47.26756" lon="-1.62369">
        <ele>43.4</ele>
        <time>2014-02-16T08:02:49Z</time>
      </trkpt>
      <trkpt lat="47.26755" lon="-1.62354">
        <ele>42.92</ele>
        <time>2014-02-16T08:02:57Z</time>
      </trkpt>
      <trkpt lat="47.2675" lon="-1.62347">
        <ele>42.92</ele>
        <time>2014-02-16T08:03:01Z</time>
      </trkpt>
      <trkpt lat="47.26746" lon="-1.62337">
        <ele>44.36</ele>
        <time>2014-02-16T08:03:06Z</time>
      </trkpt>
      <trkpt lat="47.26742" lon="-1.62324">
        <ele>43.4</ele>
        <time>2014-02-16T08:03:12Z</time>
      </trkpt>
      <trkpt lat="47.26736" lon="-1.62311">
        <ele>46.76</ele>
        <time>2014-02-16T08:03:19Z</time>
      </trkpt>
      <trkpt lat="47.2673" lon="-1.62299">
        <ele>46.28</ele>
        <time>2014-02-16T08:03:29Z</time>
      </trkpt>
      <trkpt lat="47.26728" lon="-1.62288">
        <ele>50.13</ele>
        <time>2014-02-16T08:03:37Z</time>
      </trkpt>
      <trkpt lat="47.26726" lon="-1.62285">
        <ele>50.13</ele>
        <time>2014-02-16T08:03:43Z</time>
      </trkpt>
      <trkpt lat="47.2672" lon="-1.62277">
        <ele>50.13</ele>
        <time>2014-02-16T08:03:52Z</time>
      </trkpt>
      <trkpt lat="47.26712" lon="-1.62269">
        <ele>51.09</ele>
        <time>2014-02-16T08:03:57Z</time>
      </trkpt>
      <trkpt lat="47.267" lon="-1.62246">
        <ele>51.57</ele>
        <time>2014-02-16T08:04:07Z</time>
      </trkpt>
      <trkpt lat="47.26697" lon="-1.62241">
        <ele>52.05</ele>
        <time>2014-02-16T08:04:09Z</time>
      </trkpt>
      <trkpt lat="47.26696" lon="-1.62238">
        <ele>52.53</ele>
        <time>2014-02-16T08:04:10Z</time>
      </trkpt>
      <trkpt lat="47.26695" lon="-1.62236">
        <ele>53.01</ele>
        <time>2014-02-16T08:04:11Z</time>
      </trkpt>
      <trkpt lat="47.26695" lon="-1.62233">
        <ele>53.01</ele>
        <time>2014-02-16T08:04:12Z</time>
      </trkpt>
      <trkpt lat="47.26695" lon="-1.62231">
        <ele>53.49</ele>
        <time>2014-02-16T08:04:13Z</time>
      </trkpt>
      <trkpt lat="47.26696" lon="-1.62228">
        <ele>54.45</ele>
        <time>2014-02-16T08:04:14Z</time>
      </trkpt>
      <trkpt lat="47.26695" lon="-1.62225">
        <ele>54.93</ele>
        <time>2014-02-16T08:04:15Z</time>
      </trkpt>
      <trkpt lat="47.26695" lon="-1.62223">
        <ele>55.41</ele>
        <time>2014-02-16T08:04:16Z</time>
      </trkpt>
      <trkpt lat="47.26695" lon="-1.6222">
        <ele>56.37</ele>
        <time>2014-02-16T08:04:17Z</time>
      </trkpt>
      <trkpt lat="47.26695" lon="-1.62217">
        <ele>56.86</ele>
        <time>2014-02-16T08:04:18Z</time>
      </trkpt>
      <trkpt lat="47.26695" lon="-1.62215">
        <ele>57.82</ele>
        <time>2014-02-16T08:04:19Z</time>
      </trkpt>
      <trkpt lat="47.26697" lon="-1.62212">
        <ele>58.3</ele>
        <time>2014-02-16T08:04:20Z</time>
      </trkpt>
      <trkpt lat="47.26697" lon="-1.6221">
        <ele>59.26</ele>
        <time>2014-02-16T08:04:21Z</time>
      </trkpt>
      <trkpt lat="47.26697" lon="-1.62207">
        <ele>60.22</ele>
        <time>2014-02-16T08:04:22Z</time>
      </trkpt>
      <trkpt lat="47.26696" lon="-1.62205">
        <ele>60.7</ele>
        <time>2014-02-16T08:04:23Z</time>
      </trkpt>
      <trkpt lat="47.26695" lon="-1.62201">
        <ele>61.66</ele>
        <time>2014-02-16T08:04:25Z</time>
      </trkpt>
      <trkpt lat="47.26694" lon="-1.622">
        <ele>62.14</ele>
        <time>2014-02-16T08:04:26Z</time>
      </trkpt>
      <trkpt lat="47.26693" lon="-1.62199">
        <ele>62.14</ele>
        <time>2014-02-16T08:04:27Z</time>
      </trkpt>
      <trkpt lat="47.26682" lon="-1.6219">
        <ele>65.03</ele>
        <time>2014-02-16T08:04:35Z</time>
      </trkpt>
      <trkpt lat="47.26664" lon="-1.62176">
        <ele>66.47</ele>
        <time>2014-02-16T08:04:44Z</time>
      </trkpt>
      <trkpt lat="47.26649" lon="-1.62166">
        <ele>67.43</ele>
        <time>2014-02-16T08:04:52Z</time>
      </trkpt>
      <trkpt lat="47.26648" lon="-1.62164">
        <ele>67.43</ele>
        <time>2014-02-16T08:04:53Z</time>
      </trkpt>
      <trkpt lat="47.26646" lon="-1.62162">
        <ele>67.91</ele>
        <time>2014-02-16T08:04:54Z</time>
      </trkpt>
      <trkpt lat="47.2664" lon="-1.62157">
        <ele>68.87</ele>
        <time>2014-02-16T08:04:58Z</time>
      </trkpt>
      <trkpt lat="47.26638" lon="-1.62156">
        <ele>68.87</ele>
        <time>2014-02-16T08:04:59Z</time>
      </trkpt>
      <trkpt lat="47.26631" lon="-1.62154">
        <ele>68.39</ele>
        <time>2014-02-16T08:05:02Z</time>
      </trkpt>
      <trkpt lat="47.26629" lon="-1.62154">
        <ele>68.39</ele>
        <time>2014-02-16T08:05:03Z</time>
      </trkpt>
      <trkpt lat="47.26626" lon="-1.62154">
        <ele>68.39</ele>
        <time>2014-02-16T08:05:04Z</time>
      </trkpt>
      <trkpt lat="47.26624" lon="-1.62154">
        <ele>68.87</ele>
        <time>2014-02-16T08:05:05Z</time>
      </trkpt>
      <trkpt lat="47.26621" lon="-1.62154">
        <ele>68.39</ele>
        <time>2014-02-16T08:05:06Z</time>
      </trkpt>
      <trkpt lat="47.26618" lon="-1.62154">
        <ele>68.39</ele>
        <time>2014-02-16T08:05:07Z</time>
      </trkpt>
      <trkpt lat="47.26616" lon="-1.62154">
        <ele>68.39</ele>
        <time>2014-02-16T08:05:08Z</time>
      </trkpt>
      <trkpt lat="47.26614" lon="-1.62154">
        <ele>67.91</ele>
        <time>2014-02-16T08:05:09Z</time>
      </trkpt>
      <trkpt lat="47.26612" lon="-1.62154">
        <ele>67.43</ele>
        <time>2014-02-16T08:05:10Z</time>
      </trkpt>
      <trkpt lat="47.2661" lon="-1.62154">
        <ele>67.43</ele>
        <time>2014-02-16T08:05:11Z</time>
      </trkpt>
      <trkpt lat="47.26608" lon="-1.62155">
        <ele>67.43</ele>
        <time>2014-02-16T08:05:12Z</time>
      </trkpt>
      <trkpt lat="47.26604" lon="-1.62157">
        <ele>66.95</ele>
        <time>2014-02-16T08:05:14Z</time>
      </trkpt>
      <trkpt lat="47.26602" lon="-1.62157">
        <ele>66.95</ele>
        <time>2014-02-16T08:05:15Z</time>
      </trkpt>
      <trkpt lat="47.26587" lon="-1.62155">
        <ele>61.66</ele>
        <time>2014-02-16T08:05:23Z</time>
      </trkpt>
      <trkpt lat="47.26576" lon="-1.62158">
        <ele>59.74</ele>
        <time>2014-02-16T08:05:34Z</time>
      </trkpt>
      <trkpt lat="47.2657" lon="-1.62157">
        <ele>60.22</ele>
        <time>2014-02-16T08:05:38Z</time>
      </trkpt>
      <trkpt lat="47.26569" lon="-1.62157">
        <ele>60.7</ele>
        <time>2014-02-16T08:05:39Z</time>
      </trkpt>
      <trkpt lat="47.26561" lon="-1.62158">
        <ele>61.66</ele>
        <time>2014-02-16T08:05:45Z</time>
      </trkpt>
      <trkpt lat="47.26554" lon="-1.6216">
        <ele>62.62</ele>
        <time>2014-02-16T08:05:50Z</time>
      </trkpt>
      <trkpt lat="47.2655" lon="-1.62161">
        <ele>66.47</ele>
        <time>2014-02-16T08:06:00Z</time>
      </trkpt>
      <trkpt lat="47.26549" lon="-1.62161">
        <ele>67.91</ele>
        <time>2014-02-16T08:06:17Z</time>
      </trkpt>
      <trkpt lat="47.26548" lon="-1.62158">
        <ele>67.43</ele>
        <time>2014-02-16T08:06:35Z</time>
      </trkpt>
      <trkpt lat="47.26545" lon="-1.62158">
        <ele>64.55</ele>
        <time>2014-02-16T08:07:00Z</time>
      </trkpt>
      <trkpt lat="47.26545" lon="-1.62153">
        <ele>65.99</ele>
        <time>2014-02-16T08:07:17Z</time>
      </trkpt>
      <trkpt lat="47.26549" lon="-1.62153">
        <ele>67.91</ele>
        <time>2014-02-16T08:07:36Z</time>
      </trkpt>
      <trkpt lat="47.26545" lon="-1.62156">
        <ele>66.95</ele>
        <time>2014-02-16T08:07:55Z</time>
      </trkpt>
      <trkpt lat="47.26543" lon="-1.62158">
        <ele>67.43</ele>
        <time>2014-02-16T08:07:58Z</time>
      </trkpt>
      <trkpt lat="47.26541" lon="-1.62158">
        <ele>67.91</ele>
        <time>2014-02-16T08:07:59Z</time>
      </trkpt>
      <trkpt lat="47.26539" lon="-1.62159">
        <ele>67.91</ele>
        <time>2014-02-16T08:08:00Z</time>
      </trkpt>
      <trkpt lat="47.26536" lon="-1.62159">
        <ele>68.39</ele>
        <time>2014-02-16T08:08:01Z</time>
      </trkpt>
      <trkpt lat="47.26534" lon="-1.62158">
        <ele>68.39</ele>
        <time>2014-02-16T08:08:02Z</time>
      </trkpt>
      <trkpt lat="47.26532" lon="-1.62158">
        <ele>68.87</ele>
        <time>2014-02-16T08:08:03Z</time>
      </trkpt>
      <trkpt lat="47.2653" lon="-1.62158">
        <ele>69.35</ele>
        <time>2014-02-16T08:08:04Z</time>
      </trkpt>
      <trkpt lat="47.26525" lon="-1.62157">
        <ele>70.31</ele>
        <time>2014-02-16T08:08:07Z</time>
      </trkpt>
      <trkpt lat="47.26522" lon="-1.62158">
        <ele>70.79</ele>
        <time>2014-02-16T08:08:08Z</time>
      </trkpt>
      <trkpt lat="47.26497" lon="-1.62166">
        <ele>72.72</ele>
        <time>2014-02-16T08:08:18Z</time>
      </trkpt>
      <trkpt lat="47.2648" lon="-1.6217">
        <ele>73.68</ele>
        <time>2014-02-16T08:08:25Z</time>
      </trkpt>
      <trkpt lat="47.26478" lon="-1.62171">
        <ele>74.16</ele>
        <time>2014-02-16T08:08:26Z</time>
      </trkpt>
      <trkpt lat="47.26465" lon="-1.62179">
        <ele>78.97</ele>
        <time>2014-02-16T08:08:35Z</time>
      </trkpt>
      <trkpt lat="47.26458" lon="-1.62183">
        <ele>83.29</ele>
        <time>2014-02-16T08:08:40Z</time>
      </trkpt>
      <trkpt lat="47.26457" lon="-1.62186">
        <ele>84.73</ele>
        <time>2014-02-16T08:08:42Z</time>
      </trkpt>
      <trkpt lat="47.26455" lon="-1.62198">
        <ele>88.1</ele>
        <time>2014-02-16T08:08:48Z</time>
      </trkpt>
      <trkpt lat="47.26455" lon="-1.62199">
        <ele>88.58</ele>
        <time>2014-02-16T08:08:49Z</time>
      </trkpt>
      <trkpt lat="47.26456" lon="-1.62218">
        <ele>83.29</ele>
        <time>2014-02-16T08:08:59Z</time>
      </trkpt>
      <trkpt lat="47.26456" lon="-1.62222">
        <ele>83.29</ele>
        <time>2014-02-16T08:09:00Z</time>
      </trkpt>
      <trkpt lat="47.26456" lon="-1.62226">
        <ele>83.29</ele>
        <time>2014-02-16T08:09:01Z</time>
      </trkpt>
      <trkpt lat="47.26456" lon="-1.6223">
        <ele>83.29</ele>
        <time>2014-02-16T08:09:02Z</time>
      </trkpt>
      <trkpt lat="47.26456" lon="-1.62233">
        <ele>83.29</ele>
        <time>2014-02-16T08:09:03Z</time>
      </trkpt>
      <trkpt lat="47.26457" lon="-1.62237">
        <ele>83.29</ele>
        <time>2014-02-16T08:09:04Z</time>
      </trkpt>
      <trkpt lat="47.26458" lon="-1.6224">
        <ele>83.29</ele>
        <time>2014-02-16T08:09:05Z</time>
      </trkpt>
      <trkpt lat="47.26459" lon="-1.62245">
        <ele>83.29</ele>
        <time>2014-02-16T08:09:06Z</time>
      </trkpt>
      <trkpt lat="47.26463" lon="-1.62257">
        <ele>82.33</ele>
        <time>2014-02-16T08:09:09Z</time>
      </trkpt>
      <trkpt lat="47.26462" lon="-1.62261">
        <ele>81.85</ele>
        <time>2014-02-16T08:09:10Z</time>
      </trkpt>
      <trkpt lat="47.26462" lon="-1.62268">
        <ele>80.89</ele>
        <time>2014-02-16T08:09:12Z</time>
      </trkpt>
      <trkpt lat="47.26463" lon="-1.62271">
        <ele>80.89</ele>
        <time>2014-02-16T08:09:13Z</time>
      </trkpt>
      <trkpt lat="47.26464" lon="-1.62275">
        <ele>79.93</ele>
        <time>2014-02-16T08:09:14Z</time>
      </trkpt>
      <trkpt lat="47.26464" lon="-1.62278">
        <ele>79.45</ele>
        <time>2014-02-16T08:09:15Z</time>
      </trkpt>
      <trkpt lat="47.26465" lon="-1.62281">
        <ele>79.45</ele>
        <time>2014-02-16T08:09:16Z</time>
      </trkpt>
      <trkpt lat="47.26465" lon="-1.62285">
        <ele>79.93</ele>
        <time>2014-02-16T08:09:17Z</time>
      </trkpt>
      <trkpt lat="47.26465" lon="-1.62289">
        <ele>79.93</ele>
        <time>2014-02-16T08:09:18Z</time>
      </trkpt>
      <trkpt lat="47.26465" lon="-1.62293">
        <ele>78.97</ele>
        <time>2014-02-16T08:09:19Z</time>
      </trkpt>
      <trkpt lat="47.26464" lon="-1.62297">
        <ele>78.97</ele>
        <time>2014-02-16T08:09:20Z</time>
      </trkpt>
      <trkpt lat="47.26463" lon="-1.623">
        <ele>78.97</ele>
        <time>2014-02-16T08:09:21Z</time>
      </trkpt>
      <trkpt lat="47.26464" lon="-1.62313">
        <ele>79.93</ele>
        <time>2014-02-16T08:09:28Z</time>
      </trkpt>
      <trkpt lat="47.26464" lon="-1.6232">
        <ele>79.93</ele>
        <time>2014-02-16T08:09:41Z</time>
      </trkpt>
      <trkpt lat="47.26462" lon="-1.62329">
        <ele>77.04</ele>
        <time>2014-02-16T08:09:52Z</time>
      </trkpt>
      <trkpt lat="47.26462" lon="-1.62333">
        <ele>76.56</ele>
        <time>2014-02-16T08:09:55Z</time>
      </trkpt>
      <trkpt lat="47.26462" lon="-1.62335">
        <ele>76.56</ele>
        <time>2014-02-16T08:09:56Z</time>
      </trkpt>
      <trkpt lat="47.26463" lon="-1.62338">
        <ele>77.04</ele>
        <time>2014-02-16T08:09:57Z</time>
      </trkpt>
      <trkpt lat="47.26463" lon="-1.62341">
        <ele>77.04</ele>
        <time>2014-02-16T08:09:58Z</time>
      </trkpt>
      <trkpt lat="47.26463" lon="-1.62345">
        <ele>77.52</ele>
        <time>2014-02-16T08:09:59Z</time>
      </trkpt>
      <trkpt lat="47.26463" lon="-1.62349">
        <ele>77.52</ele>
        <time>2014-02-16T08:10:00Z</time>
      </trkpt>
      <trkpt lat="47.26463" lon="-1.62351">
        <ele>78</ele>
        <time>2014-02-16T08:10:01Z</time>
      </trkpt>
      <trkpt lat="47.26463" lon="-1.62353">
        <ele>78</ele>
        <time>2014-02-16T08:10:02Z</time>
      </trkpt>
      <trkpt lat="47.26465" lon="-1.62356">
        <ele>78.48</ele>
        <time>2014-02-16T08:10:03Z</time>
      </trkpt>
      <trkpt lat="47.26466" lon="-1.62359">
        <ele>78.97</ele>
        <time>2014-02-16T08:10:04Z</time>
      </trkpt>
      <trkpt lat="47.26466" lon="-1.62363">
        <ele>79.93</ele>
        <time>2014-02-16T08:10:05Z</time>
      </trkpt>
      <trkpt lat="47.26472" lon="-1.62385">
        <ele>80.41</ele>
        <time>2014-02-16T08:10:12Z</time>
      </trkpt>
      <trkpt lat="47.26473" lon="-1.62385">
        <ele>79.45</ele>
        <time>2014-02-16T08:10:13Z</time>
      </trkpt>
      <trkpt lat="47.26475" lon="-1.62386">
        <ele>78.97</ele>
        <time>2014-02-16T08:10:14Z</time>
      </trkpt>
      <trkpt lat="47.26477" lon="-1.62387">
        <ele>78</ele>
        <time>2014-02-16T08:10:15Z</time>
      </trkpt>
      <trkpt lat="47.26479" lon="-1.62389">
        <ele>77.04</ele>
        <time>2014-02-16T08:10:16Z</time>
      </trkpt>
      <trkpt lat="47.26479" lon="-1.62391">
        <ele>75.6</ele>
        <time>2014-02-16T08:10:17Z</time>
      </trkpt>
      <trkpt lat="47.2648" lon="-1.62393">
        <ele>74.64</ele>
        <time>2014-02-16T08:10:18Z</time>
      </trkpt>
      <trkpt lat="47.26481" lon="-1.62397">
        <ele>73.68</ele>
        <time>2014-02-16T08:10:19Z</time>
      </trkpt>
      <trkpt lat="47.26481" lon="-1.624">
        <ele>72.72</ele>
        <time>2014-02-16T08:10:20Z</time>
      </trkpt>
      <trkpt lat="47.26482" lon="-1.62404">
        <ele>71.76</ele>
        <time>2014-02-16T08:10:21Z</time>
      </trkpt>
      <trkpt lat="47.26483" lon="-1.62407">
        <ele>71.27</ele>
        <time>2014-02-16T08:10:22Z</time>
      </trkpt>
      <trkpt lat="47.26484" lon="-1.62412">
        <ele>70.79</ele>
        <time>2014-02-16T08:10:23Z</time>
      </trkpt>
      <trkpt lat="47.26489" lon="-1.62419">
        <ele>69.83</ele>
        <time>2014-02-16T08:10:26Z</time>
      </trkpt>
      <trkpt lat="47.26491" lon="-1.62427">
        <ele>69.83</ele>
        <time>2014-02-16T08:10:27Z</time>
      </trkpt>
      <trkpt lat="47.26492" lon="-1.62433">
        <ele>70.31</ele>
        <time>2014-02-16T08:10:28Z</time>
      </trkpt>
      <trkpt lat="47.26493" lon="-1.62439">
        <ele>69.83</ele>
        <time>2014-02-16T08:10:29Z</time>
      </trkpt>
      <trkpt lat="47.26493" lon="-1.62444">
        <ele>69.83</ele>
        <time>2014-02-16T08:10:30Z</time>
      </trkpt>
      <trkpt lat="47.26493" lon="-1.62448">
        <ele>69.83</ele>
        <time>2014-02-16T08:10:31Z</time>
      </trkpt>
      <trkpt lat="47.26493" lon="-1.62453">
        <ele>69.35</ele>
        <time>2014-02-16T08:10:32Z</time>
      </trkpt>
      <trkpt lat="47.26494" lon="-1.62458">
        <ele>68.87</ele>
        <time>2014-02-16T08:10:33Z</time>
      </trkpt>
      <trkpt lat="47.26497" lon="-1.62474">
        <ele>64.07</ele>
        <time>2014-02-16T08:10:42Z</time>
      </trkpt>
      <trkpt lat="47.26496" lon="-1.62477">
        <ele>66.95</ele>
        <time>2014-02-16T08:11:06Z</time>
      </trkpt>
      <trkpt lat="47.26495" lon="-1.6248">
        <ele>65.51</ele>
        <time>2014-02-16T08:11:29Z</time>
      </trkpt>
      <trkpt lat="47.26484" lon="-1.62484">
        <ele>66.47</ele>
        <time>2014-02-16T08:11:36Z</time>
      </trkpt>
      <trkpt lat="47.26474" lon="-1.62489">
        <ele>71.76</ele>
        <time>2014-02-16T08:11:45Z</time>
      </trkpt>
      <trkpt lat="47.26461" lon="-1.62502">
        <ele>76.56</ele>
        <time>2014-02-16T08:11:56Z</time>
      </trkpt>
      <trkpt lat="47.26449" lon="-1.62512">
        <ele>78.48</ele>
        <time>2014-02-16T08:12:07Z</time>
      </trkpt>
      <trkpt lat="47.26441" lon="-1.62517">
        <ele>77.04</ele>
        <time>2014-02-16T08:12:20Z</time>
      </trkpt>
      <trkpt lat="47.26431" lon="-1.62527">
        <ele>78.48</ele>
        <time>2014-02-16T08:12:29Z</time>
      </trkpt>
      <trkpt lat="47.26413" lon="-1.62546">
        <ele>80.89</ele>
        <time>2014-02-16T08:12:37Z</time>
      </trkpt>
      <trkpt lat="47.26387" lon="-1.62559">
        <ele>80.89</ele>
        <time>2014-02-16T08:12:45Z</time>
      </trkpt>
      <trkpt lat="47.26358" lon="-1.62552">
        <ele>78.48</ele>
        <time>2014-02-16T08:12:54Z</time>
      </trkpt>
      <trkpt lat="47.26331" lon="-1.62541">
        <ele>77.52</ele>
        <time>2014-02-16T08:13:03Z</time>
      </trkpt>
      <trkpt lat="47.26311" lon="-1.62535">
        <ele>77.04</ele>
        <time>2014-02-16T08:13:12Z</time>
      </trkpt>
      <trkpt lat="47.26304" lon="-1.62533">
        <ele>76.56</ele>
        <time>2014-02-16T08:13:15Z</time>
      </trkpt>
      <trkpt lat="47.26302" lon="-1.62532">
        <ele>77.04</ele>
        <time>2014-02-16T08:13:16Z</time>
      </trkpt>
      <trkpt lat="47.26283" lon="-1.62525">
        <ele>79.93</ele>
        <time>2014-02-16T08:13:25Z</time>
      </trkpt>
      <trkpt lat="47.26258" lon="-1.62515">
        <ele>81.37</ele>
        <time>2014-02-16T08:13:32Z</time>
      </trkpt>
      <trkpt lat="47.26218" lon="-1.62504">
        <ele>79.93</ele>
        <time>2014-02-16T08:13:42Z</time>
      </trkpt>
      <trkpt lat="47.26183" lon="-1.62488">
        <ele>78</ele>
        <time>2014-02-16T08:13:50Z</time>
      </trkpt>
      <trkpt lat="47.26162" lon="-1.62477">
        <ele>75.6</ele>
        <time>2014-02-16T08:13:58Z</time>
      </trkpt>
      <trkpt lat="47.26161" lon="-1.62474">
        <ele>75.12</ele>
        <time>2014-02-16T08:13:59Z</time>
      </trkpt>
      <trkpt lat="47.26159" lon="-1.62471">
        <ele>75.12</ele>
        <time>2014-02-16T08:14:02Z</time>
      </trkpt>
      <trkpt lat="47.26157" lon="-1.62471">
        <ele>75.12</ele>
        <time>2014-02-16T08:14:03Z</time>
      </trkpt>
      <trkpt lat="47.26156" lon="-1.62471">
        <ele>75.12</ele>
        <time>2014-02-16T08:14:04Z</time>
      </trkpt>
      <trkpt lat="47.26154" lon="-1.62471">
        <ele>75.12</ele>
        <time>2014-02-16T08:14:05Z</time>
      </trkpt>
      <trkpt lat="47.26151" lon="-1.62471">
        <ele>75.12</ele>
        <time>2014-02-16T08:14:06Z</time>
      </trkpt>
      <trkpt lat="47.2615" lon="-1.62472">
        <ele>75.12</ele>
        <time>2014-02-16T08:14:07Z</time>
      </trkpt>
      <trkpt lat="47.26148" lon="-1.62473">
        <ele>75.12</ele>
        <time>2014-02-16T08:14:08Z</time>
      </trkpt>
      <trkpt lat="47.26147" lon="-1.62474">
        <ele>74.64</ele>
        <time>2014-02-16T08:14:09Z</time>
      </trkpt>
      <trkpt lat="47.26145" lon="-1.62473">
        <ele>74.64</ele>
        <time>2014-02-16T08:14:10Z</time>
      </trkpt>
      <trkpt lat="47.26143" lon="-1.62472">
        <ele>74.16</ele>
        <time>2014-02-16T08:14:11Z</time>
      </trkpt>
      <trkpt lat="47.2614" lon="-1.62469">
        <ele>74.16</ele>
        <time>2014-02-16T08:14:12Z</time>
      </trkpt>
      <trkpt lat="47.26137" lon="-1.62467">
        <ele>74.16</ele>
        <time>2014-02-16T08:14:13Z</time>
      </trkpt>
      <trkpt lat="47.26135" lon="-1.62464">
        <ele>73.68</ele>
        <time>2014-02-16T08:14:14Z</time>
      </trkpt>
      <trkpt lat="47.2612" lon="-1.62452">
        <ele>72.24</ele>
        <time>2014-02-16T08:14:20Z</time>
      </trkpt>
      <trkpt lat="47.26117" lon="-1.6245">
        <ele>72.24</ele>
        <time>2014-02-16T08:14:21Z</time>
      </trkpt>
      <trkpt lat="47.26114" lon="-1.62451">
        <ele>71.76</ele>
        <time>2014-02-16T08:14:22Z</time>
      </trkpt>
      <trkpt lat="47.26113" lon="-1.62453">
        <ele>71.27</ele>
        <time>2014-02-16T08:14:23Z</time>
      </trkpt>
      <trkpt lat="47.2611" lon="-1.62453">
        <ele>70.79</ele>
        <time>2014-02-16T08:14:24Z</time>
      </trkpt>
      <trkpt lat="47.26107" lon="-1.62452">
        <ele>70.79</ele>
        <time>2014-02-16T08:14:25Z</time>
      </trkpt>
      <trkpt lat="47.26105" lon="-1.62453">
        <ele>70.31</ele>
        <time>2014-02-16T08:14:26Z</time>
      </trkpt>
      <trkpt lat="47.26103" lon="-1.62454">
        <ele>70.31</ele>
        <time>2014-02-16T08:14:27Z</time>
      </trkpt>
      <trkpt lat="47.26101" lon="-1.62453">
        <ele>70.31</ele>
        <time>2014-02-16T08:14:28Z</time>
      </trkpt>
      <trkpt lat="47.261" lon="-1.62452">
        <ele>70.31</ele>
        <time>2014-02-16T08:14:29Z</time>
      </trkpt>
      <trkpt lat="47.261" lon="-1.62449">
        <ele>69.83</ele>
        <time>2014-02-16T08:14:30Z</time>
      </trkpt>
      <trkpt lat="47.261" lon="-1.62446">
        <ele>69.35</ele>
        <time>2014-02-16T08:14:31Z</time>
      </trkpt>
      <trkpt lat="47.26099" lon="-1.62441">
        <ele>68.87</ele>
        <time>2014-02-16T08:14:32Z</time>
      </trkpt>
      <trkpt lat="47.26098" lon="-1.62436">
        <ele>68.39</ele>
        <time>2014-02-16T08:14:33Z</time>
      </trkpt>
      <trkpt lat="47.26096" lon="-1.62426">
        <ele>66.47</ele>
        <time>2014-02-16T08:14:38Z</time>
      </trkpt>
      <trkpt lat="47.26095" lon="-1.62427">
        <ele>66.47</ele>
        <time>2014-02-16T08:14:39Z</time>
      </trkpt>
      <trkpt lat="47.26093" lon="-1.62428">
        <ele>65.99</ele>
        <time>2014-02-16T08:14:40Z</time>
      </trkpt>
      <trkpt lat="47.26075" lon="-1.62444">
        <ele>65.51</ele>
        <time>2014-02-16T08:14:50Z</time>
      </trkpt>
      <trkpt lat="47.2606" lon="-1.6246">
        <ele>65.03</ele>
        <time>2014-02-16T08:14:59Z</time>
      </trkpt>
      <trkpt lat="47.26042" lon="-1.62479">
        <ele>65.03</ele>
        <time>2014-02-16T08:15:09Z</time>
      </trkpt>
      <trkpt lat="47.26021" lon="-1.62497">
        <ele>65.51</ele>
        <time>2014-02-16T08:15:19Z</time>
      </trkpt>
      <trkpt lat="47.26002" lon="-1.62515">
        <ele>66.47</ele>
        <time>2014-02-16T08:15:29Z</time>
      </trkpt>
      <trkpt lat="47.25989" lon="-1.62526">
        <ele>65.99</ele>
        <time>2014-02-16T08:15:36Z</time>
      </trkpt>
      <trkpt lat="47.25983" lon="-1.62531">
        <ele>65.99</ele>
        <time>2014-02-16T08:15:41Z</time>
      </trkpt>
      <trkpt lat="47.25982" lon="-1.62532">
        <ele>65.99</ele>
        <time>2014-02-16T08:15:42Z</time>
      </trkpt>
      <trkpt lat="47.25981" lon="-1.62533">
        <ele>65.99</ele>
        <time>2014-02-16T08:15:43Z</time>
      </trkpt>
      <trkpt lat="47.2598" lon="-1.62534">
        <ele>65.99</ele>
        <time>2014-02-16T08:15:44Z</time>
      </trkpt>
      <trkpt lat="47.25978" lon="-1.62535">
        <ele>65.99</ele>
        <time>2014-02-16T08:15:45Z</time>
      </trkpt>
      <trkpt lat="47.25977" lon="-1.62536">
        <ele>65.51</ele>
        <time>2014-02-16T08:15:46Z</time>
      </trkpt>
      <trkpt lat="47.25976" lon="-1.62537">
        <ele>65.51</ele>
        <time>2014-02-16T08:15:47Z</time>
      </trkpt>
      <trkpt lat="47.25975" lon="-1.62538">
        <ele>65.99</ele>
        <time>2014-02-16T08:15:48Z</time>
      </trkpt>
      <trkpt lat="47.25973" lon="-1.6254">
        <ele>65.99</ele>
        <time>2014-02-16T08:15:50Z</time>
      </trkpt>
      <trkpt lat="47.25972" lon="-1.62541">
        <ele>66.47</ele>
        <time>2014-02-16T08:15:51Z</time>
      </trkpt>
      <trkpt lat="47.25971" lon="-1.62542">
        <ele>66.47</ele>
        <time>2014-02-16T08:15:52Z</time>
      </trkpt>
      <trkpt lat="47.2597" lon="-1.62543">
        <ele>66.47</ele>
        <time>2014-02-16T08:15:53Z</time>
      </trkpt>
      <trkpt lat="47.25968" lon="-1.62544">
        <ele>66.95</ele>
        <time>2014-02-16T08:15:54Z</time>
      </trkpt>
      <trkpt lat="47.25967" lon="-1.62545">
        <ele>66.95</ele>
        <time>2014-02-16T08:15:55Z</time>
      </trkpt>
      <trkpt lat="47.25961" lon="-1.62551">
        <ele>66.95</ele>
        <time>2014-02-16T08:16:00Z</time>
      </trkpt>
      <trkpt lat="47.25959" lon="-1.62554">
        <ele>66.95</ele>
        <time>2014-02-16T08:16:01Z</time>
      </trkpt>
      <trkpt lat="47.25957" lon="-1.62555">
        <ele>66.95</ele>
        <time>2014-02-16T08:16:02Z</time>
      </trkpt>
      <trkpt lat="47.25956" lon="-1.62556">
        <ele>66.95</ele>
        <time>2014-02-16T08:16:03Z</time>
      </trkpt>
      <trkpt lat="47.25954" lon="-1.62557">
        <ele>66.95</ele>
        <time>2014-02-16T08:16:04Z</time>
      </trkpt>
      <trkpt lat="47.25939" lon="-1.62569">
        <ele>68.87</ele>
        <time>2014-02-16T08:16:13Z</time>
      </trkpt>
      <trkpt lat="47.25935" lon="-1.62572">
        <ele>69.35</ele>
        <time>2014-02-16T08:16:14Z</time>
      </trkpt>
      <trkpt lat="47.25932" lon="-1.62576">
        <ele>68.87</ele>
        <time>2014-02-16T08:16:15Z</time>
      </trkpt>
      <trkpt lat="47.25928" lon="-1.62579">
        <ele>68.87</ele>
        <time>2014-02-16T08:16:16Z</time>
      </trkpt>
      <trkpt lat="47.25924" lon="-1.62583">
        <ele>68.39</ele>
        <time>2014-02-16T08:16:17Z</time>
      </trkpt>
      <trkpt lat="47.25921" lon="-1.62585">
        <ele>68.87</ele>
        <time>2014-02-16T08:16:18Z</time>
      </trkpt>
      <trkpt lat="47.2591" lon="-1.6259">
        <ele>68.87</ele>
        <time>2014-02-16T08:16:21Z</time>
      </trkpt>
      <trkpt lat="47.25881" lon="-1.62578">
        <ele>70.79</ele>
        <time>2014-02-16T08:16:29Z</time>
      </trkpt>
      <trkpt lat="47.25856" lon="-1.62571">
        <ele>68.87</ele>
        <time>2014-02-16T08:16:38Z</time>
      </trkpt>
      <trkpt lat="47.25848" lon="-1.62562">
        <ele>67.91</ele>
        <time>2014-02-16T08:16:41Z</time>
      </trkpt>
      <trkpt lat="47.25836" lon="-1.62522">
        <ele>67.43</ele>
        <time>2014-02-16T08:16:50Z</time>
      </trkpt>
      <trkpt lat="47.2582" lon="-1.62477">
        <ele>66.47</ele>
        <time>2014-02-16T08:17:02Z</time>
      </trkpt>
      <trkpt lat="47.25818" lon="-1.62475">
        <ele>65.99</ele>
        <time>2014-02-16T08:17:03Z</time>
      </trkpt>
      <trkpt lat="47.25816" lon="-1.62475">
        <ele>65.99</ele>
        <time>2014-02-16T08:17:04Z</time>
      </trkpt>
      <trkpt lat="47.25813" lon="-1.62476">
        <ele>65.99</ele>
        <time>2014-02-16T08:17:05Z</time>
      </trkpt>
      <trkpt lat="47.25811" lon="-1.62478">
        <ele>65.99</ele>
        <time>2014-02-16T08:17:06Z</time>
      </trkpt>
      <trkpt lat="47.25809" lon="-1.6248">
        <ele>65.99</ele>
        <time>2014-02-16T08:17:07Z</time>
      </trkpt>
      <trkpt lat="47.25807" lon="-1.62483">
        <ele>65.99</ele>
        <time>2014-02-16T08:17:08Z</time>
      </trkpt>
      <trkpt lat="47.25805" lon="-1.62486">
        <ele>65.51</ele>
        <time>2014-02-16T08:17:09Z</time>
      </trkpt>
      <trkpt lat="47.25776" lon="-1.62539">
        <ele>64.55</ele>
        <time>2014-02-16T08:17:24Z</time>
      </trkpt>
      <trkpt lat="47.25755" lon="-1.6258">
        <ele>65.51</ele>
        <time>2014-02-16T08:17:36Z</time>
      </trkpt>
      <trkpt lat="47.25734" lon="-1.62619">
        <ele>65.51</ele>
        <time>2014-02-16T08:17:48Z</time>
      </trkpt>
      <trkpt lat="47.25711" lon="-1.6266">
        <ele>65.51</ele>
        <time>2014-02-16T08:18:01Z</time>
      </trkpt>
      <trkpt lat="47.25685" lon="-1.62709">
        <ele>65.99</ele>
        <time>2014-02-16T08:18:15Z</time>
      </trkpt>
      <trkpt lat="47.25658" lon="-1.62755">
        <ele>65.99</ele>
        <time>2014-02-16T08:18:28Z</time>
      </trkpt>
      <trkpt lat="47.25641" lon="-1.62776">
        <ele>66.47</ele>
        <time>2014-02-16T08:18:37Z</time>
      </trkpt>
      <trkpt lat="47.25617" lon="-1.62808">
        <ele>67.43</ele>
        <time>2014-02-16T08:18:48Z</time>
      </trkpt>
      <trkpt lat="47.25586" lon="-1.62836">
        <ele>69.35</ele>
        <time>2014-02-16T08:19:01Z</time>
      </trkpt>
      <trkpt lat="47.25551" lon="-1.62863">
        <ele>68.39</ele>
        <time>2014-02-16T08:19:13Z</time>
      </trkpt>
      <trkpt lat="47.25523" lon="-1.62883">
        <ele>67.91</ele>
        <time>2014-02-16T08:19:23Z</time>
      </trkpt>
      <trkpt lat="47.25487" lon="-1.62908">
        <ele>67.43</ele>
        <time>2014-02-16T08:19:36Z</time>
      </trkpt>
      <trkpt lat="47.25475" lon="-1.62936">
        <ele>67.43</ele>
        <time>2014-02-16T08:19:43Z</time>
      </trkpt>
      <trkpt lat="47.25473" lon="-1.62941">
        <ele>67.43</ele>
        <time>2014-02-16T08:19:44Z</time>
      </trkpt>
      <trkpt lat="47.25451" lon="-1.62968">
        <ele>65.99</ele>
        <time>2014-02-16T08:19:53Z</time>
      </trkpt>
      <trkpt lat="47.2545" lon="-1.62972">
        <ele>65.99</ele>
        <time>2014-02-16T08:19:54Z</time>
      </trkpt>
      <trkpt lat="47.25448" lon="-1.62975">
        <ele>65.99</ele>
        <time>2014-02-16T08:19:55Z</time>
      </trkpt>
      <trkpt lat="47.25412" lon="-1.63007">
        <ele>65.99</ele>
        <time>2014-02-16T08:20:06Z</time>
      </trkpt>
      <trkpt lat="47.25363" lon="-1.63053">
        <ele>66.47</ele>
        <time>2014-02-16T08:20:21Z</time>
      </trkpt>
      <trkpt lat="47.25311" lon="-1.63103">
        <ele>65.51</ele>
        <time>2014-02-16T08:20:36Z</time>
      </trkpt>
      <trkpt lat="47.25246" lon="-1.63157">
        <ele>63.58</ele>
        <time>2014-02-16T08:20:52Z</time>
      </trkpt>
      <trkpt lat="47.25178" lon="-1.63211">
        <ele>62.14</ele>
        <time>2014-02-16T08:21:07Z</time>
      </trkpt>
      <trkpt lat="47.2514" lon="-1.63245">
        <ele>61.18</ele>
        <time>2014-02-16T08:21:19Z</time>
      </trkpt>
      <trkpt lat="47.25109" lon="-1.6327">
        <ele>61.18</ele>
        <time>2014-02-16T08:21:27Z</time>
      </trkpt>
      <trkpt lat="47.25062" lon="-1.63307">
        <ele>61.18</ele>
        <time>2014-02-16T08:21:39Z</time>
      </trkpt>
      <trkpt lat="47.25019" lon="-1.63342">
        <ele>61.18</ele>
        <time>2014-02-16T08:21:52Z</time>
      </trkpt>
      <trkpt lat="47.25009" lon="-1.63362">
        <ele>60.7</ele>
        <time>2014-02-16T08:21:57Z</time>
      </trkpt>
      <trkpt lat="47.25008" lon="-1.63367">
        <ele>61.18</ele>
        <time>2014-02-16T08:21:58Z</time>
      </trkpt>
      <trkpt lat="47.25005" lon="-1.63372">
        <ele>61.18</ele>
        <time>2014-02-16T08:21:59Z</time>
      </trkpt>
      <trkpt lat="47.25002" lon="-1.63375">
        <ele>61.18</ele>
        <time>2014-02-16T08:22:00Z</time>
      </trkpt>
      <trkpt lat="47.24999" lon="-1.63378">
        <ele>61.66</ele>
        <time>2014-02-16T08:22:01Z</time>
      </trkpt>
      <trkpt lat="47.24961" lon="-1.63409">
        <ele>61.18</ele>
        <time>2014-02-16T08:22:12Z</time>
      </trkpt>
      <trkpt lat="47.24943" lon="-1.63433">
        <ele>59.74</ele>
        <time>2014-02-16T08:22:21Z</time>
      </trkpt>
      <trkpt lat="47.24942" lon="-1.63435">
        <ele>59.74</ele>
        <time>2014-02-16T08:22:23Z</time>
      </trkpt>
      <trkpt lat="47.24943" lon="-1.63439">
        <ele>60.7</ele>
        <time>2014-02-16T08:22:26Z</time>
      </trkpt>
      <trkpt lat="47.24943" lon="-1.63441">
        <ele>60.7</ele>
        <time>2014-02-16T08:22:27Z</time>
      </trkpt>
      <trkpt lat="47.24944" lon="-1.63443">
        <ele>61.18</ele>
        <time>2014-02-16T08:22:28Z</time>
      </trkpt>
      <trkpt lat="47.24946" lon="-1.63444">
        <ele>61.66</ele>
        <time>2014-02-16T08:22:29Z</time>
      </trkpt>
      <trkpt lat="47.24948" lon="-1.63445">
        <ele>61.66</ele>
        <time>2014-02-16T08:22:30Z</time>
      </trkpt>
      <trkpt lat="47.2495" lon="-1.63446">
        <ele>61.66</ele>
        <time>2014-02-16T08:22:31Z</time>
      </trkpt>
      <trkpt lat="47.24951" lon="-1.63447">
        <ele>62.14</ele>
        <time>2014-02-16T08:22:32Z</time>
      </trkpt>
      <trkpt lat="47.24952" lon="-1.63449">
        <ele>62.14</ele>
        <time>2014-02-16T08:22:33Z</time>
      </trkpt>
      <trkpt lat="47.24954" lon="-1.6345">
        <ele>62.14</ele>
        <time>2014-02-16T08:22:34Z</time>
      </trkpt>
      <trkpt lat="47.24957" lon="-1.63451">
        <ele>62.14</ele>
        <time>2014-02-16T08:22:35Z</time>
      </trkpt>
      <trkpt lat="47.24959" lon="-1.63452">
        <ele>62.14</ele>
        <time>2014-02-16T08:22:36Z</time>
      </trkpt>
      <trkpt lat="47.24961" lon="-1.63452">
        <ele>62.14</ele>
        <time>2014-02-16T08:22:37Z</time>
      </trkpt>
      <trkpt lat="47.24962" lon="-1.63451">
        <ele>62.14</ele>
        <time>2014-02-16T08:22:38Z</time>
      </trkpt>
      <trkpt lat="47.24965" lon="-1.63452">
        <ele>62.62</ele>
        <time>2014-02-16T08:22:39Z</time>
      </trkpt>
      <trkpt lat="47.24967" lon="-1.63451">
        <ele>63.1</ele>
        <time>2014-02-16T08:22:40Z</time>
      </trkpt>
      <trkpt lat="47.2497" lon="-1.63451">
        <ele>63.58</ele>
        <time>2014-02-16T08:22:41Z</time>
      </trkpt>
      <trkpt lat="47.24973" lon="-1.6345">
        <ele>64.07</ele>
        <time>2014-02-16T08:22:42Z</time>
      </trkpt>
      <trkpt lat="47.24975" lon="-1.63449">
        <ele>64.55</ele>
        <time>2014-02-16T08:22:43Z</time>
      </trkpt>
      <trkpt lat="47.25003" lon="-1.63448">
        <ele>67.91</ele>
        <time>2014-02-16T08:22:52Z</time>
      </trkpt>
      <trkpt lat="47.25031" lon="-1.63454">
        <ele>71.27</ele>
        <time>2014-02-16T08:23:01Z</time>
      </trkpt>
      <trkpt lat="47.25049" lon="-1.63459">
        <ele>68.39</ele>
        <time>2014-02-16T08:23:10Z</time>
      </trkpt>
      <trkpt lat="47.25048" lon="-1.63462">
        <ele>65.51</ele>
        <time>2014-02-16T08:23:17Z</time>
      </trkpt>
      <trkpt lat="47.25046" lon="-1.63461">
        <ele>65.51</ele>
        <time>2014-02-16T08:23:18Z</time>
      </trkpt>
      <trkpt lat="47.25043" lon="-1.63459">
        <ele>65.51</ele>
        <time>2014-02-16T08:23:19Z</time>
      </trkpt>
      <trkpt lat="47.25039" lon="-1.63458">
        <ele>65.99</ele>
        <time>2014-02-16T08:23:20Z</time>
      </trkpt>
      <trkpt lat="47.25035" lon="-1.63457">
        <ele>65.99</ele>
        <time>2014-02-16T08:23:21Z</time>
      </trkpt>
      <trkpt lat="47.25032" lon="-1.63456">
        <ele>66.47</ele>
        <time>2014-02-16T08:23:22Z</time>
      </trkpt>
      <trkpt lat="47.25028" lon="-1.63454">
        <ele>66.95</ele>
        <time>2014-02-16T08:23:23Z</time>
      </trkpt>
      <trkpt lat="47.25026" lon="-1.63453">
        <ele>67.43</ele>
        <time>2014-02-16T08:23:24Z</time>
      </trkpt>
      <trkpt lat="47.25017" lon="-1.63454">
        <ele>68.87</ele>
        <time>2014-02-16T08:23:30Z</time>
      </trkpt>
      <trkpt lat="47.25016" lon="-1.63453">
        <ele>68.87</ele>
        <time>2014-02-16T08:23:31Z</time>
      </trkpt>
      <trkpt lat="47.25016" lon="-1.63451">
        <ele>69.35</ele>
        <time>2014-02-16T08:23:32Z</time>
      </trkpt>
      <trkpt lat="47.25016" lon="-1.6345">
        <ele>69.35</ele>
        <time>2014-02-16T08:23:33Z</time>
      </trkpt>
      <trkpt lat="47.25017" lon="-1.63451">
        <ele>69.83</ele>
        <time>2014-02-16T08:23:34Z</time>
      </trkpt>
      <trkpt lat="47.25019" lon="-1.63452">
        <ele>69.83</ele>
        <time>2014-02-16T08:23:35Z</time>
      </trkpt>
      <trkpt lat="47.25021" lon="-1.63453">
        <ele>70.31</ele>
        <time>2014-02-16T08:23:36Z</time>
      </trkpt>
      <trkpt lat="47.25023" lon="-1.63454">
        <ele>70.31</ele>
        <time>2014-02-16T08:23:37Z</time>
      </trkpt>
      <trkpt lat="47.25045" lon="-1.63461">
        <ele>71.76</ele>
        <time>2014-02-16T08:23:45Z</time>
      </trkpt>
      <trkpt lat="47.25065" lon="-1.63463">
        <ele>70.31</ele>
        <time>2014-02-16T08:23:52Z</time>
      </trkpt>
      <trkpt lat="47.25095" lon="-1.63459">
        <ele>68.87</ele>
        <time>2014-02-16T08:24:03Z</time>
      </trkpt>
      <trkpt lat="47.2512" lon="-1.6346">
        <ele>67.91</ele>
        <time>2014-02-16T08:24:12Z</time>
      </trkpt>
      <trkpt lat="47.25121" lon="-1.63463">
        <ele>67.91</ele>
        <time>2014-02-16T08:24:13Z</time>
      </trkpt>
      <trkpt lat="47.2514" lon="-1.63497">
        <ele>66.95</ele>
        <time>2014-02-16T08:24:21Z</time>
      </trkpt>
      <trkpt lat="47.25154" lon="-1.63519">
        <ele>65.99</ele>
        <time>2014-02-16T08:24:28Z</time>
      </trkpt>
      <trkpt lat="47.25157" lon="-1.63519">
        <ele>65.51</ele>
        <time>2014-02-16T08:24:29Z</time>
      </trkpt>
      <trkpt lat="47.25161" lon="-1.63517">
        <ele>65.51</ele>
        <time>2014-02-16T08:24:30Z</time>
      </trkpt>
      <trkpt lat="47.25189" lon="-1.63503">
        <ele>64.55</ele>
        <time>2014-02-16T08:24:37Z</time>
      </trkpt>
      <trkpt lat="47.25193" lon="-1.63503">
        <ele>64.55</ele>
        <time>2014-02-16T08:24:38Z</time>
      </trkpt>
      <trkpt lat="47.25197" lon="-1.63505">
        <ele>65.03</ele>
        <time>2014-02-16T08:24:39Z</time>
      </trkpt>
      <trkpt lat="47.252" lon="-1.63507">
        <ele>65.03</ele>
        <time>2014-02-16T08:24:40Z</time>
      </trkpt>
      <trkpt lat="47.25204" lon="-1.6351">
        <ele>65.51</ele>
        <time>2014-02-16T08:24:41Z</time>
      </trkpt>
      <trkpt lat="47.25207" lon="-1.63513">
        <ele>65.99</ele>
        <time>2014-02-16T08:24:42Z</time>
      </trkpt>
      <trkpt lat="47.2521" lon="-1.63516">
        <ele>66.47</ele>
        <time>2014-02-16T08:24:43Z</time>
      </trkpt>
      <trkpt lat="47.25213" lon="-1.6352">
        <ele>66.95</ele>
        <time>2014-02-16T08:24:44Z</time>
      </trkpt>
      <trkpt lat="47.25245" lon="-1.63552">
        <ele>69.35</ele>
        <time>2014-02-16T08:24:54Z</time>
      </trkpt>
      <trkpt lat="47.25281" lon="-1.63593">
        <ele>73.68</ele>
        <time>2014-02-16T08:25:05Z</time>
      </trkpt>
      <trkpt lat="47.25299" lon="-1.63614">
        <ele>75.6</ele>
        <time>2014-02-16T08:25:12Z</time>
      </trkpt>
      <trkpt lat="47.25301" lon="-1.63619">
        <ele>76.08</ele>
        <time>2014-02-16T08:25:13Z</time>
      </trkpt>
      <trkpt lat="47.25301" lon="-1.63625">
        <ele>76.08</ele>
        <time>2014-02-16T08:25:14Z</time>
      </trkpt>
      <trkpt lat="47.25302" lon="-1.6363">
        <ele>75.6</ele>
        <time>2014-02-16T08:25:15Z</time>
      </trkpt>
      <trkpt lat="47.25302" lon="-1.63637">
        <ele>75.6</ele>
        <time>2014-02-16T08:25:16Z</time>
      </trkpt>
      <trkpt lat="47.25303" lon="-1.63643">
        <ele>75.12</ele>
        <time>2014-02-16T08:25:17Z</time>
      </trkpt>
      <trkpt lat="47.25303" lon="-1.63649">
        <ele>74.64</ele>
        <time>2014-02-16T08:25:18Z</time>
      </trkpt>
      <trkpt lat="47.25301" lon="-1.63705">
        <ele>68.87</ele>
        <time>2014-02-16T08:25:28Z</time>
      </trkpt>
      <trkpt lat="47.253" lon="-1.6371">
        <ele>68.87</ele>
        <time>2014-02-16T08:25:32Z</time>
      </trkpt>
      <trkpt lat="47.25299" lon="-1.63712">
        <ele>68.39</ele>
        <time>2014-02-16T08:25:33Z</time>
      </trkpt>
      <trkpt lat="47.25299" lon="-1.63714">
        <ele>68.39</ele>
        <time>2014-02-16T08:25:34Z</time>
      </trkpt>
      <trkpt lat="47.25301" lon="-1.63722">
        <ele>66.47</ele>
        <time>2014-02-16T08:25:39Z</time>
      </trkpt>
      <trkpt lat="47.25302" lon="-1.63724">
        <ele>66.47</ele>
        <time>2014-02-16T08:25:40Z</time>
      </trkpt>
      <trkpt lat="47.25302" lon="-1.63725">
        <ele>65.99</ele>
        <time>2014-02-16T08:25:41Z</time>
      </trkpt>
      <trkpt lat="47.25302" lon="-1.63728">
        <ele>65.51</ele>
        <time>2014-02-16T08:25:42Z</time>
      </trkpt>
      <trkpt lat="47.25303" lon="-1.63731">
        <ele>65.51</ele>
        <time>2014-02-16T08:25:43Z</time>
      </trkpt>
      <trkpt lat="47.25305" lon="-1.63737">
        <ele>65.51</ele>
        <time>2014-02-16T08:25:45Z</time>
      </trkpt>
      <trkpt lat="47.25306" lon="-1.63756">
        <ele>64.07</ele>
        <time>2014-02-16T08:25:50Z</time>
      </trkpt>
      <trkpt lat="47.25308" lon="-1.63795">
        <ele>64.55</ele>
        <time>2014-02-16T08:25:59Z</time>
      </trkpt>
      <trkpt lat="47.25308" lon="-1.63807">
        <ele>65.51</ele>
        <time>2014-02-16T08:26:03Z</time>
      </trkpt>
      <trkpt lat="47.25309" lon="-1.63814">
        <ele>66.95</ele>
        <time>2014-02-16T08:26:05Z</time>
      </trkpt>
      <trkpt lat="47.25308" lon="-1.63839">
        <ele>69.35</ele>
        <time>2014-02-16T08:26:10Z</time>
      </trkpt>
      <trkpt lat="47.25289" lon="-1.63857">
        <ele>70.31</ele>
        <time>2014-02-16T08:26:17Z</time>
      </trkpt>
      <trkpt lat="47.25254" lon="-1.63879">
        <ele>69.35</ele>
        <time>2014-02-16T08:26:26Z</time>
      </trkpt>
      <trkpt lat="47.25236" lon="-1.63892">
        <ele>69.35</ele>
        <time>2014-02-16T08:26:31Z</time>
      </trkpt>
      <trkpt lat="47.25214" lon="-1.6393">
        <ele>67.43</ele>
        <time>2014-02-16T08:26:41Z</time>
      </trkpt>
      <trkpt lat="47.25193" lon="-1.63964">
        <ele>66.47</ele>
        <time>2014-02-16T08:26:50Z</time>
      </trkpt>
      <trkpt lat="47.25175" lon="-1.63989">
        <ele>65.51</ele>
        <time>2014-02-16T08:26:58Z</time>
      </trkpt>
      <trkpt lat="47.25156" lon="-1.64022">
        <ele>65.03</ele>
        <time>2014-02-16T08:27:07Z</time>
      </trkpt>
      <trkpt lat="47.2514" lon="-1.6406">
        <ele>64.07</ele>
        <time>2014-02-16T08:27:16Z</time>
      </trkpt>
      <trkpt lat="47.25119" lon="-1.64104">
        <ele>61.66</ele>
        <time>2014-02-16T08:27:27Z</time>
      </trkpt>
      <trkpt lat="47.25093" lon="-1.64136">
        <ele>61.66</ele>
        <time>2014-02-16T08:27:38Z</time>
      </trkpt>
      <trkpt lat="47.25069" lon="-1.64159">
        <ele>62.14</ele>
        <time>2014-02-16T08:27:48Z</time>
      </trkpt>
      <trkpt lat="47.25054" lon="-1.64167">
        <ele>61.18</ele>
        <time>2014-02-16T08:27:56Z</time>
      </trkpt>
      <trkpt lat="47.25053" lon="-1.64164">
        <ele>61.18</ele>
        <time>2014-02-16T08:27:57Z</time>
      </trkpt>
      <trkpt lat="47.25052" lon="-1.64161">
        <ele>61.18</ele>
        <time>2014-02-16T08:27:58Z</time>
      </trkpt>
      <trkpt lat="47.25051" lon="-1.64159">
        <ele>61.18</ele>
        <time>2014-02-16T08:27:59Z</time>
      </trkpt>
      <trkpt lat="47.2505" lon="-1.64155">
        <ele>60.7</ele>
        <time>2014-02-16T08:28:00Z</time>
      </trkpt>
      <trkpt lat="47.25048" lon="-1.64151">
        <ele>60.7</ele>
        <time>2014-02-16T08:28:01Z</time>
      </trkpt>
      <trkpt lat="47.25046" lon="-1.64147">
        <ele>60.7</ele>
        <time>2014-02-16T08:28:02Z</time>
      </trkpt>
      <trkpt lat="47.25044" lon="-1.64143">
        <ele>60.22</ele>
        <time>2014-02-16T08:28:03Z</time>
      </trkpt>
      <trkpt lat="47.25043" lon="-1.64139">
        <ele>59.74</ele>
        <time>2014-02-16T08:28:04Z</time>
      </trkpt>
      <trkpt lat="47.25033" lon="-1.64105">
        <ele>58.78</ele>
        <time>2014-02-16T08:28:14Z</time>
      </trkpt>
      <trkpt lat="47.25028" lon="-1.64088">
        <ele>57.34</ele>
        <time>2014-02-16T08:28:24Z</time>
      </trkpt>
      <trkpt lat="47.25025" lon="-1.64074">
        <ele>56.86</ele>
        <time>2014-02-16T08:28:35Z</time>
      </trkpt>
      <trkpt lat="47.25021" lon="-1.64062">
        <ele>56.37</ele>
        <time>2014-02-16T08:28:44Z</time>
      </trkpt>
      <trkpt lat="47.25018" lon="-1.64046">
        <ele>57.82</ele>
        <time>2014-02-16T08:28:54Z</time>
      </trkpt>
      <trkpt lat="47.25017" lon="-1.6404">
        <ele>57.82</ele>
        <time>2014-02-16T08:29:05Z</time>
      </trkpt>
      <trkpt lat="47.25014" lon="-1.64032">
        <ele>56.86</ele>
        <time>2014-02-16T08:29:21Z</time>
      </trkpt>
      <trkpt lat="47.25011" lon="-1.64021">
        <ele>56.37</ele>
        <time>2014-02-16T08:29:26Z</time>
      </trkpt>
      <trkpt lat="47.25013" lon="-1.64022">
        <ele>55.89</ele>
        <time>2014-02-16T08:29:29Z</time>
      </trkpt>
      <trkpt lat="47.25013" lon="-1.64024">
        <ele>55.89</ele>
        <time>2014-02-16T08:29:30Z</time>
      </trkpt>
      <trkpt lat="47.25014" lon="-1.64026">
        <ele>55.89</ele>
        <time>2014-02-16T08:29:31Z</time>
      </trkpt>
      <trkpt lat="47.25015" lon="-1.64029">
        <ele>55.41</ele>
        <time>2014-02-16T08:29:32Z</time>
      </trkpt>
      <trkpt lat="47.25016" lon="-1.64032">
        <ele>55.41</ele>
        <time>2014-02-16T08:29:33Z</time>
      </trkpt>
      <trkpt lat="47.25015" lon="-1.64035">
        <ele>55.41</ele>
        <time>2014-02-16T08:29:34Z</time>
      </trkpt>
      <trkpt lat="47.25013" lon="-1.64036">
        <ele>54.93</ele>
        <time>2014-02-16T08:29:35Z</time>
      </trkpt>
      <trkpt lat="47.25007" lon="-1.64041">
        <ele>53.97</ele>
        <time>2014-02-16T08:29:37Z</time>
      </trkpt>
      <trkpt lat="47.24988" lon="-1.64056">
        <ele>52.53</ele>
        <time>2014-02-16T08:29:44Z</time>
      </trkpt>
      <trkpt lat="47.24984" lon="-1.64057">
        <ele>54.45</ele>
        <time>2014-02-16T08:29:54Z</time>
      </trkpt>
      <trkpt lat="47.24982" lon="-1.64063">
        <ele>51.57</ele>
        <time>2014-02-16T08:30:17Z</time>
      </trkpt>
      <trkpt lat="47.24976" lon="-1.64067">
        <ele>50.13</ele>
        <time>2014-02-16T08:30:32Z</time>
      </trkpt>
      <trkpt lat="47.24956" lon="-1.64072">
        <ele>50.61</ele>
        <time>2014-02-16T08:30:41Z</time>
      </trkpt>
      <trkpt lat="47.24948" lon="-1.64073">
        <ele>50.13</ele>
        <time>2014-02-16T08:30:45Z</time>
      </trkpt>
      <trkpt lat="47.24938" lon="-1.64072">
        <ele>50.61</ele>
        <time>2014-02-16T08:30:49Z</time>
      </trkpt>
      <trkpt lat="47.2491" lon="-1.64053">
        <ele>51.09</ele>
        <time>2014-02-16T08:31:00Z</time>
      </trkpt>
      <trkpt lat="47.24903" lon="-1.6405">
        <ele>51.57</ele>
        <time>2014-02-16T08:31:03Z</time>
      </trkpt>
      <trkpt lat="47.24895" lon="-1.64038">
        <ele>51.57</ele>
        <time>2014-02-16T08:31:07Z</time>
      </trkpt>
      <trkpt lat="47.24873" lon="-1.63998">
        <ele>51.57</ele>
        <time>2014-02-16T08:31:17Z</time>
      </trkpt>
      <trkpt lat="47.24848" lon="-1.63953">
        <ele>52.05</ele>
        <time>2014-02-16T08:31:27Z</time>
      </trkpt>
      <trkpt lat="47.24832" lon="-1.63922">
        <ele>52.53</ele>
        <time>2014-02-16T08:31:33Z</time>
      </trkpt>
      <trkpt lat="47.2483" lon="-1.63917">
        <ele>52.53</ele>
        <time>2014-02-16T08:31:34Z</time>
      </trkpt>
      <trkpt lat="47.24827" lon="-1.63912">
        <ele>52.53</ele>
        <time>2014-02-16T08:31:35Z</time>
      </trkpt>
      <trkpt lat="47.24806" lon="-1.63874">
        <ele>53.97</ele>
        <time>2014-02-16T08:31:44Z</time>
      </trkpt>
      <trkpt lat="47.24791" lon="-1.63846">
        <ele>54.45</ele>
        <time>2014-02-16T08:31:51Z</time>
      </trkpt>
      <trkpt lat="47.2479" lon="-1.63843">
        <ele>54.45</ele>
        <time>2014-02-16T08:31:52Z</time>
      </trkpt>
      <trkpt lat="47.24789" lon="-1.63839">
        <ele>54.45</ele>
        <time>2014-02-16T08:31:53Z</time>
      </trkpt>
      <trkpt lat="47.24772" lon="-1.63803">
        <ele>55.89</ele>
        <time>2014-02-16T08:32:02Z</time>
      </trkpt>
      <trkpt lat="47.24749" lon="-1.63759">
        <ele>59.74</ele>
        <time>2014-02-16T08:32:12Z</time>
      </trkpt>
      <trkpt lat="47.24731" lon="-1.63728">
        <ele>60.7</ele>
        <time>2014-02-16T08:32:19Z</time>
      </trkpt>
      <trkpt lat="47.24715" lon="-1.6369">
        <ele>60.22</ele>
        <time>2014-02-16T08:32:28Z</time>
      </trkpt>
      <trkpt lat="47.247" lon="-1.63666">
        <ele>59.74</ele>
        <time>2014-02-16T08:32:36Z</time>
      </trkpt>
      <trkpt lat="47.24683" lon="-1.63638">
        <ele>60.7</ele>
        <time>2014-02-16T08:32:43Z</time>
      </trkpt>
      <trkpt lat="47.24663" lon="-1.63607">
        <ele>61.66</ele>
        <time>2014-02-16T08:32:53Z</time>
      </trkpt>
      <trkpt lat="47.24644" lon="-1.6359">
        <ele>64.55</ele>
        <time>2014-02-16T08:33:01Z</time>
      </trkpt>
      <trkpt lat="47.24607" lon="-1.63587">
        <ele>65.03</ele>
        <time>2014-02-16T08:33:11Z</time>
      </trkpt>
      <trkpt lat="47.24589" lon="-1.63605">
        <ele>63.58</ele>
        <time>2014-02-16T08:33:18Z</time>
      </trkpt>
      <trkpt lat="47.24575" lon="-1.63644">
        <ele>59.26</ele>
        <time>2014-02-16T08:33:26Z</time>
      </trkpt>
      <trkpt lat="47.24571" lon="-1.63653">
        <ele>58.78</ele>
        <time>2014-02-16T08:33:28Z</time>
      </trkpt>
      <trkpt lat="47.24566" lon="-1.63654">
        <ele>58.78</ele>
        <time>2014-02-16T08:33:29Z</time>
      </trkpt>
      <trkpt lat="47.24539" lon="-1.63661">
        <ele>56.37</ele>
        <time>2014-02-16T08:33:33Z</time>
      </trkpt>
      <trkpt lat="47.24521" lon="-1.63669">
        <ele>51.09</ele>
        <time>2014-02-16T08:33:37Z</time>
      </trkpt>
      <trkpt lat="47.24513" lon="-1.63675">
        <ele>48.68</ele>
        <time>2014-02-16T08:33:39Z</time>
      </trkpt>
      <trkpt lat="47.24509" lon="-1.63676">
        <ele>47.72</ele>
        <time>2014-02-16T08:33:40Z</time>
      </trkpt>
      <trkpt lat="47.24497" lon="-1.63677">
        <ele>44.84</ele>
        <time>2014-02-16T08:33:43Z</time>
      </trkpt>
      <trkpt lat="47.24492" lon="-1.63679">
        <ele>43.4</ele>
        <time>2014-02-16T08:33:44Z</time>
      </trkpt>
      <trkpt lat="47.24486" lon="-1.63683">
        <ele>42.44</ele>
        <time>2014-02-16T08:33:45Z</time>
      </trkpt>
      <trkpt lat="47.2448" lon="-1.63688">
        <ele>41.95</ele>
        <time>2014-02-16T08:33:46Z</time>
      </trkpt>
      <trkpt lat="47.24474" lon="-1.63693">
        <ele>40.99</ele>
        <time>2014-02-16T08:33:47Z</time>
      </trkpt>
      <trkpt lat="47.24469" lon="-1.63698">
        <ele>40.51</ele>
        <time>2014-02-16T08:33:48Z</time>
      </trkpt>
      <trkpt lat="47.24463" lon="-1.63702">
        <ele>40.03</ele>
        <time>2014-02-16T08:33:49Z</time>
      </trkpt>
      <trkpt lat="47.24459" lon="-1.63707">
        <ele>39.55</ele>
        <time>2014-02-16T08:33:50Z</time>
      </trkpt>
      <trkpt lat="47.24455" lon="-1.63712">
        <ele>39.07</ele>
        <time>2014-02-16T08:33:51Z</time>
      </trkpt>
      <trkpt lat="47.24451" lon="-1.63718">
        <ele>38.59</ele>
        <time>2014-02-16T08:33:52Z</time>
      </trkpt>
      <trkpt lat="47.24445" lon="-1.63729">
        <ele>38.11</ele>
        <time>2014-02-16T08:33:54Z</time>
      </trkpt>
      <trkpt lat="47.24443" lon="-1.63735">
        <ele>37.63</ele>
        <time>2014-02-16T08:33:55Z</time>
      </trkpt>
      <trkpt lat="47.24442" lon="-1.63739">
        <ele>37.15</ele>
        <time>2014-02-16T08:33:56Z</time>
      </trkpt>
      <trkpt lat="47.24439" lon="-1.63742">
        <ele>36.67</ele>
        <time>2014-02-16T08:33:57Z</time>
      </trkpt>
      <trkpt lat="47.24438" lon="-1.63743">
        <ele>36.19</ele>
        <time>2014-02-16T08:33:58Z</time>
      </trkpt>
      <trkpt lat="47.24435" lon="-1.63745">
        <ele>35.71</ele>
        <time>2014-02-16T08:34:00Z</time>
      </trkpt>
      <trkpt lat="47.2443" lon="-1.63745">
        <ele>32.82</ele>
        <time>2014-02-16T08:34:11Z</time>
      </trkpt>
      <trkpt lat="47.24426" lon="-1.63744">
        <ele>32.82</ele>
        <time>2014-02-16T08:34:35Z</time>
      </trkpt>
      <trkpt lat="47.24426" lon="-1.63742">
        <ele>32.82</ele>
        <time>2014-02-16T08:34:36Z</time>
      </trkpt>
      <trkpt lat="47.24425" lon="-1.6374">
        <ele>33.3</ele>
        <time>2014-02-16T08:34:37Z</time>
      </trkpt>
      <trkpt lat="47.24423" lon="-1.63737">
        <ele>33.3</ele>
        <time>2014-02-16T08:34:38Z</time>
      </trkpt>
      <trkpt lat="47.2442" lon="-1.63735">
        <ele>33.3</ele>
        <time>2014-02-16T08:34:39Z</time>
      </trkpt>
      <trkpt lat="47.24416" lon="-1.63734">
        <ele>33.3</ele>
        <time>2014-02-16T08:34:40Z</time>
      </trkpt>
      <trkpt lat="47.24412" lon="-1.63733">
        <ele>33.3</ele>
        <time>2014-02-16T08:34:41Z</time>
      </trkpt>
      <trkpt lat="47.24409" lon="-1.63734">
        <ele>33.3</ele>
        <time>2014-02-16T08:34:42Z</time>
      </trkpt>
      <trkpt lat="47.24407" lon="-1.63735">
        <ele>33.3</ele>
        <time>2014-02-16T08:34:43Z</time>
      </trkpt>
      <trkpt lat="47.24405" lon="-1.63738">
        <ele>33.78</ele>
        <time>2014-02-16T08:34:44Z</time>
      </trkpt>
      <trkpt lat="47.24404" lon="-1.63742">
        <ele>33.78</ele>
        <time>2014-02-16T08:34:45Z</time>
      </trkpt>
      <trkpt lat="47.24403" lon="-1.63745">
        <ele>33.78</ele>
        <time>2014-02-16T08:34:46Z</time>
      </trkpt>
      <trkpt lat="47.244" lon="-1.63748">
        <ele>33.3</ele>
        <time>2014-02-16T08:34:47Z</time>
      </trkpt>
      <trkpt lat="47.24398" lon="-1.63749">
        <ele>33.3</ele>
        <time>2014-02-16T08:34:48Z</time>
      </trkpt>
      <trkpt lat="47.24395" lon="-1.63748">
        <ele>33.3</ele>
        <time>2014-02-16T08:34:49Z</time>
      </trkpt>
      <trkpt lat="47.24392" lon="-1.63747">
        <ele>33.3</ele>
        <time>2014-02-16T08:34:50Z</time>
      </trkpt>
      <trkpt lat="47.2439" lon="-1.63745">
        <ele>33.3</ele>
        <time>2014-02-16T08:34:51Z</time>
      </trkpt>
      <trkpt lat="47.24389" lon="-1.63742">
        <ele>33.3</ele>
        <time>2014-02-16T08:34:52Z</time>
      </trkpt>
      <trkpt lat="47.24388" lon="-1.63739">
        <ele>33.3</ele>
        <time>2014-02-16T08:34:53Z</time>
      </trkpt>
      <trkpt lat="47.24387" lon="-1.63735">
        <ele>33.3</ele>
        <time>2014-02-16T08:34:54Z</time>
      </trkpt>
      <trkpt lat="47.24395" lon="-1.63697">
        <ele>33.78</ele>
        <time>2014-02-16T08:35:03Z</time>
      </trkpt>
      <trkpt lat="47.24398" lon="-1.63671">
        <ele>32.82</ele>
        <time>2014-02-16T08:35:12Z</time>
      </trkpt>
      <trkpt lat="47.24395" lon="-1.63638">
        <ele>33.78</ele>
        <time>2014-02-16T08:35:23Z</time>
      </trkpt>
      <trkpt lat="47.24389" lon="-1.63604">
        <ele>31.38</ele>
        <time>2014-02-16T08:35:31Z</time>
      </trkpt>
      <trkpt lat="47.24387" lon="-1.63599">
        <ele>31.38</ele>
        <time>2014-02-16T08:35:32Z</time>
      </trkpt>
      <trkpt lat="47.24381" lon="-1.63556">
        <ele>29.46</ele>
        <time>2014-02-16T08:35:40Z</time>
      </trkpt>
      <trkpt lat="47.24387" lon="-1.63525">
        <ele>28.02</ele>
        <time>2014-02-16T08:35:48Z</time>
      </trkpt>
      <trkpt lat="47.24395" lon="-1.63508">
        <ele>28.98</ele>
        <time>2014-02-16T08:35:53Z</time>
      </trkpt>
      <trkpt lat="47.24389" lon="-1.63452">
        <ele>30.9</ele>
        <time>2014-02-16T08:36:04Z</time>
      </trkpt>
      <trkpt lat="47.24381" lon="-1.63427">
        <ele>29.46</ele>
        <time>2014-02-16T08:36:12Z</time>
      </trkpt>
      <trkpt lat="47.24375" lon="-1.63418">
        <ele>28.5</ele>
        <time>2014-02-16T08:36:24Z</time>
      </trkpt>
      <trkpt lat="47.24369" lon="-1.63403">
        <ele>28.5</ele>
        <time>2014-02-16T08:36:31Z</time>
      </trkpt>
      <trkpt lat="47.24375" lon="-1.63388">
        <ele>28.98</ele>
        <time>2014-02-16T08:36:34Z</time>
      </trkpt>
      <trkpt lat="47.24379" lon="-1.63359">
        <ele>30.9</ele>
        <time>2014-02-16T08:36:39Z</time>
      </trkpt>
      <trkpt lat="47.24365" lon="-1.63318">
        <ele>32.82</ele>
        <time>2014-02-16T08:36:46Z</time>
      </trkpt>
      <trkpt lat="47.2436" lon="-1.63308">
        <ele>33.3</ele>
        <time>2014-02-16T08:36:48Z</time>
      </trkpt>
      <trkpt lat="47.24353" lon="-1.63299">
        <ele>33.3</ele>
        <time>2014-02-16T08:36:50Z</time>
      </trkpt>
      <trkpt lat="47.2435" lon="-1.63295">
        <ele>33.3</ele>
        <time>2014-02-16T08:36:51Z</time>
      </trkpt>
      <trkpt lat="47.24346" lon="-1.63292">
        <ele>33.3</ele>
        <time>2014-02-16T08:36:52Z</time>
      </trkpt>
      <trkpt lat="47.24343" lon="-1.6329">
        <ele>33.3</ele>
        <time>2014-02-16T08:36:53Z</time>
      </trkpt>
      <trkpt lat="47.24341" lon="-1.63288">
        <ele>33.3</ele>
        <time>2014-02-16T08:36:54Z</time>
      </trkpt>
      <trkpt lat="47.24339" lon="-1.63287">
        <ele>33.3</ele>
        <time>2014-02-16T08:36:55Z</time>
      </trkpt>
      <trkpt lat="47.24338" lon="-1.63285">
        <ele>33.3</ele>
        <time>2014-02-16T08:36:56Z</time>
      </trkpt>
      <trkpt lat="47.24328" lon="-1.6327">
        <ele>32.34</ele>
        <time>2014-02-16T08:37:00Z</time>
      </trkpt>
      <trkpt lat="47.24316" lon="-1.63252">
        <ele>31.86</ele>
        <time>2014-02-16T08:37:03Z</time>
      </trkpt>
      <trkpt lat="47.24312" lon="-1.63247">
        <ele>31.86</ele>
        <time>2014-02-16T08:37:04Z</time>
      </trkpt>
      <trkpt lat="47.24309" lon="-1.63243">
        <ele>31.86</ele>
        <time>2014-02-16T08:37:05Z</time>
      </trkpt>
      <trkpt lat="47.2429" lon="-1.63215">
        <ele>33.3</ele>
        <time>2014-02-16T08:37:12Z</time>
      </trkpt>
      <trkpt lat="47.24269" lon="-1.63201">
        <ele>35.71</ele>
        <time>2014-02-16T08:37:18Z</time>
      </trkpt>
      <trkpt lat="47.24265" lon="-1.63197">
        <ele>36.19</ele>
        <time>2014-02-16T08:37:19Z</time>
      </trkpt>
      <trkpt lat="47.24261" lon="-1.63191">
        <ele>36.19</ele>
        <time>2014-02-16T08:37:20Z</time>
      </trkpt>
      <trkpt lat="47.24257" lon="-1.63185">
        <ele>36.19</ele>
        <time>2014-02-16T08:37:21Z</time>
      </trkpt>
      <trkpt lat="47.24254" lon="-1.6318">
        <ele>35.71</ele>
        <time>2014-02-16T08:37:22Z</time>
      </trkpt>
      <trkpt lat="47.2425" lon="-1.63177">
        <ele>35.71</ele>
        <time>2014-02-16T08:37:23Z</time>
      </trkpt>
      <trkpt lat="47.24245" lon="-1.63173">
        <ele>35.71</ele>
        <time>2014-02-16T08:37:24Z</time>
      </trkpt>
      <trkpt lat="47.2424" lon="-1.63168">
        <ele>35.71</ele>
        <time>2014-02-16T08:37:25Z</time>
      </trkpt>
      <trkpt lat="47.24236" lon="-1.63163">
        <ele>35.23</ele>
        <time>2014-02-16T08:37:26Z</time>
      </trkpt>
      <trkpt lat="47.24233" lon="-1.63157">
        <ele>35.23</ele>
        <time>2014-02-16T08:37:27Z</time>
      </trkpt>
      <trkpt lat="47.24229" lon="-1.63151">
        <ele>34.74</ele>
        <time>2014-02-16T08:37:28Z</time>
      </trkpt>
      <trkpt lat="47.24225" lon="-1.63146">
        <ele>34.74</ele>
        <time>2014-02-16T08:37:29Z</time>
      </trkpt>
      <trkpt lat="47.24223" lon="-1.63141">
        <ele>34.74</ele>
        <time>2014-02-16T08:37:30Z</time>
      </trkpt>
      <trkpt lat="47.24221" lon="-1.63135">
        <ele>35.23</ele>
        <time>2014-02-16T08:37:31Z</time>
      </trkpt>
      <trkpt lat="47.24217" lon="-1.63124">
        <ele>35.23</ele>
        <time>2014-02-16T08:37:33Z</time>
      </trkpt>
      <trkpt lat="47.24215" lon="-1.63118">
        <ele>35.23</ele>
        <time>2014-02-16T08:37:34Z</time>
      </trkpt>
      <trkpt lat="47.24204" lon="-1.63083">
        <ele>34.74</ele>
        <time>2014-02-16T08:37:40Z</time>
      </trkpt>
      <trkpt lat="47.24202" lon="-1.63038">
        <ele>33.78</ele>
        <time>2014-02-16T08:37:48Z</time>
      </trkpt>
      <trkpt lat="47.24198" lon="-1.62998">
        <ele>35.71</ele>
        <time>2014-02-16T08:37:56Z</time>
      </trkpt>
      <trkpt lat="47.24192" lon="-1.6298">
        <ele>35.23</ele>
        <time>2014-02-16T08:37:59Z</time>
      </trkpt>
      <trkpt lat="47.2419" lon="-1.62973">
        <ele>35.23</ele>
        <time>2014-02-16T08:38:00Z</time>
      </trkpt>
      <trkpt lat="47.24188" lon="-1.62966">
        <ele>35.23</ele>
        <time>2014-02-16T08:38:01Z</time>
      </trkpt>
      <trkpt lat="47.24186" lon="-1.6296">
        <ele>35.71</ele>
        <time>2014-02-16T08:38:02Z</time>
      </trkpt>
      <trkpt lat="47.24184" lon="-1.62953">
        <ele>35.71</ele>
        <time>2014-02-16T08:38:03Z</time>
      </trkpt>
      <trkpt lat="47.24167" lon="-1.62902">
        <ele>31.38</ele>
        <time>2014-02-16T08:38:12Z</time>
      </trkpt>
      <trkpt lat="47.24154" lon="-1.62864">
        <ele>29.46</ele>
        <time>2014-02-16T08:38:20Z</time>
      </trkpt>
      <trkpt lat="47.24136" lon="-1.62828">
        <ele>27.53</ele>
        <time>2014-02-16T08:38:28Z</time>
      </trkpt>
      <trkpt lat="47.24125" lon="-1.62794">
        <ele>27.05</ele>
        <time>2014-02-16T08:38:35Z</time>
      </trkpt>
      <trkpt lat="47.24124" lon="-1.62789">
        <ele>27.05</ele>
        <time>2014-02-16T08:38:36Z</time>
      </trkpt>
      <trkpt lat="47.24104" lon="-1.62752">
        <ele>24.17</ele>
        <time>2014-02-16T08:38:46Z</time>
      </trkpt>
      <trkpt lat="47.241" lon="-1.62742">
        <ele>23.69</ele>
        <time>2014-02-16T08:38:49Z</time>
      </trkpt>
      <trkpt lat="47.24098" lon="-1.62741">
        <ele>24.17</ele>
        <time>2014-02-16T08:38:50Z</time>
      </trkpt>
      <trkpt lat="47.24097" lon="-1.62738">
        <ele>24.65</ele>
        <time>2014-02-16T08:38:51Z</time>
      </trkpt>
      <trkpt lat="47.24095" lon="-1.62737">
        <ele>25.13</ele>
        <time>2014-02-16T08:38:52Z</time>
      </trkpt>
      <trkpt lat="47.24094" lon="-1.62735">
        <ele>25.13</ele>
        <time>2014-02-16T08:38:53Z</time>
      </trkpt>
      <trkpt lat="47.24096" lon="-1.6273">
        <ele>23.69</ele>
        <time>2014-02-16T08:39:01Z</time>
      </trkpt>
      <trkpt lat="47.24095" lon="-1.6273">
        <ele>23.21</ele>
        <time>2014-02-16T08:39:10Z</time>
      </trkpt>
      <trkpt lat="47.24094" lon="-1.62728">
        <ele>24.65</ele>
        <time>2014-02-16T08:39:34Z</time>
      </trkpt>
      <trkpt lat="47.24097" lon="-1.62728">
        <ele>23.21</ele>
        <time>2014-02-16T08:39:56Z</time>
      </trkpt>
      <trkpt lat="47.24099" lon="-1.62724">
        <ele>23.21</ele>
        <time>2014-02-16T08:39:59Z</time>
      </trkpt>
      <trkpt lat="47.24097" lon="-1.62721">
        <ele>23.21</ele>
        <time>2014-02-16T08:40:01Z</time>
      </trkpt>
      <trkpt lat="47.24096" lon="-1.62719">
        <ele>23.21</ele>
        <time>2014-02-16T08:40:02Z</time>
      </trkpt>
      <trkpt lat="47.24094" lon="-1.62718">
        <ele>23.21</ele>
        <time>2014-02-16T08:40:03Z</time>
      </trkpt>
      <trkpt lat="47.24093" lon="-1.62717">
        <ele>23.21</ele>
        <time>2014-02-16T08:40:04Z</time>
      </trkpt>
      <trkpt lat="47.24089" lon="-1.62714">
        <ele>25.13</ele>
        <time>2014-02-16T08:40:15Z</time>
      </trkpt>
      <trkpt lat="47.24091" lon="-1.62711">
        <ele>23.21</ele>
        <time>2014-02-16T08:40:40Z</time>
      </trkpt>
      <trkpt lat="47.24091" lon="-1.62706">
        <ele>21.29</ele>
        <time>2014-02-16T08:40:59Z</time>
      </trkpt>
      <trkpt lat="47.24091" lon="-1.62705">
        <ele>21.29</ele>
        <time>2014-02-16T08:41:00Z</time>
      </trkpt>
      <trkpt lat="47.24084" lon="-1.62686">
        <ele>22.25</ele>
        <time>2014-02-16T08:41:06Z</time>
      </trkpt>
      <trkpt lat="47.24078" lon="-1.62686">
        <ele>25.13</ele>
        <time>2014-02-16T08:41:11Z</time>
      </trkpt>
      <trkpt lat="47.2407" lon="-1.62685">
        <ele>25.61</ele>
        <time>2014-02-16T08:41:17Z</time>
      </trkpt>
      <trkpt lat="47.24067" lon="-1.62687">
        <ele>26.09</ele>
        <time>2014-02-16T08:41:19Z</time>
      </trkpt>
      <trkpt lat="47.24044" lon="-1.62719">
        <ele>28.02</ele>
        <time>2014-02-16T08:41:27Z</time>
      </trkpt>
      <trkpt lat="47.24042" lon="-1.62724">
        <ele>28.02</ele>
        <time>2014-02-16T08:41:28Z</time>
      </trkpt>
      <trkpt lat="47.24039" lon="-1.62726">
        <ele>28.02</ele>
        <time>2014-02-16T08:41:29Z</time>
      </trkpt>
      <trkpt lat="47.24037" lon="-1.62725">
        <ele>28.02</ele>
        <time>2014-02-16T08:41:30Z</time>
      </trkpt>
      <trkpt lat="47.24036" lon="-1.62718">
        <ele>28.02</ele>
        <time>2014-02-16T08:41:32Z</time>
      </trkpt>
      <trkpt lat="47.24037" lon="-1.62716">
        <ele>28.02</ele>
        <time>2014-02-16T08:41:33Z</time>
      </trkpt>
      <trkpt lat="47.24039" lon="-1.62713">
        <ele>27.53</ele>
        <time>2014-02-16T08:41:34Z</time>
      </trkpt>
      <trkpt lat="47.24042" lon="-1.6271">
        <ele>27.53</ele>
        <time>2014-02-16T08:41:35Z</time>
      </trkpt>
      <trkpt lat="47.24045" lon="-1.62705">
        <ele>27.53</ele>
        <time>2014-02-16T08:41:36Z</time>
      </trkpt>
      <trkpt lat="47.24049" lon="-1.62701">
        <ele>27.53</ele>
        <time>2014-02-16T08:41:37Z</time>
      </trkpt>
      <trkpt lat="47.24065" lon="-1.62678">
        <ele>26.57</ele>
        <time>2014-02-16T08:41:43Z</time>
      </trkpt>
      <trkpt lat="47.24064" lon="-1.6267">
        <ele>25.13</ele>
        <time>2014-02-16T08:41:49Z</time>
      </trkpt>
      <trkpt lat="47.24062" lon="-1.62664">
        <ele>23.69</ele>
        <time>2014-02-16T08:42:03Z</time>
      </trkpt>
      <trkpt lat="47.24062" lon="-1.62662">
        <ele>24.17</ele>
        <time>2014-02-16T08:42:06Z</time>
      </trkpt>
      <trkpt lat="47.24068" lon="-1.62651">
        <ele>23.69</ele>
        <time>2014-02-16T08:42:12Z</time>
      </trkpt>
      <trkpt lat="47.24069" lon="-1.62648">
        <ele>23.69</ele>
        <time>2014-02-16T08:42:13Z</time>
      </trkpt>
      <trkpt lat="47.24071" lon="-1.62645">
        <ele>23.69</ele>
        <time>2014-02-16T08:42:14Z</time>
      </trkpt>
      <trkpt lat="47.24072" lon="-1.62642">
        <ele>23.21</ele>
        <time>2014-02-16T08:42:15Z</time>
      </trkpt>
      <trkpt lat="47.24074" lon="-1.62638">
        <ele>23.21</ele>
        <time>2014-02-16T08:42:16Z</time>
      </trkpt>
      <trkpt lat="47.24076" lon="-1.62635">
        <ele>23.21</ele>
        <time>2014-02-16T08:42:17Z</time>
      </trkpt>
      <trkpt lat="47.24077" lon="-1.62632">
        <ele>23.21</ele>
        <time>2014-02-16T08:42:18Z</time>
      </trkpt>
      <trkpt lat="47.24079" lon="-1.62628">
        <ele>23.69</ele>
        <time>2014-02-16T08:42:19Z</time>
      </trkpt>
      <trkpt lat="47.2408" lon="-1.62625">
        <ele>23.69</ele>
        <time>2014-02-16T08:42:20Z</time>
      </trkpt>
      <trkpt lat="47.24083" lon="-1.62621">
        <ele>23.69</ele>
        <time>2014-02-16T08:42:21Z</time>
      </trkpt>
      <trkpt lat="47.24098" lon="-1.62585">
        <ele>22.73</ele>
        <time>2014-02-16T08:42:31Z</time>
      </trkpt>
      <trkpt lat="47.24103" lon="-1.62566">
        <ele>23.69</ele>
        <time>2014-02-16T08:42:36Z</time>
      </trkpt>
      <trkpt lat="47.24102" lon="-1.62562">
        <ele>24.17</ele>
        <time>2014-02-16T08:42:37Z</time>
      </trkpt>
      <trkpt lat="47.24098" lon="-1.6255">
        <ele>24.17</ele>
        <time>2014-02-16T08:42:41Z</time>
      </trkpt>
      <trkpt lat="47.24078" lon="-1.62543">
        <ele>24.17</ele>
        <time>2014-02-16T08:42:51Z</time>
      </trkpt>
      <trkpt lat="47.24064" lon="-1.62529">
        <ele>22.25</ele>
        <time>2014-02-16T08:42:59Z</time>
      </trkpt>
      <trkpt lat="47.24044" lon="-1.62497">
        <ele>20.81</ele>
        <time>2014-02-16T08:43:08Z</time>
      </trkpt>
      <trkpt lat="47.24029" lon="-1.62475">
        <ele>21.29</ele>
        <time>2014-02-16T08:43:16Z</time>
      </trkpt>
      <trkpt lat="47.24022" lon="-1.62465">
        <ele>24.17</ele>
        <time>2014-02-16T08:43:25Z</time>
      </trkpt>
      <trkpt lat="47.24017" lon="-1.62457">
        <ele>25.61</ele>
        <time>2014-02-16T08:43:43Z</time>
      </trkpt>
      <trkpt lat="47.24011" lon="-1.62453">
        <ele>26.57</ele>
        <time>2014-02-16T08:43:53Z</time>
      </trkpt>
      <trkpt lat="47.24009" lon="-1.62452">
        <ele>26.57</ele>
        <time>2014-02-16T08:43:57Z</time>
      </trkpt>
      <trkpt lat="47.24008" lon="-1.62441">
        <ele>26.57</ele>
        <time>2014-02-16T08:44:03Z</time>
      </trkpt>
      <trkpt lat="47.24014" lon="-1.62418">
        <ele>26.09</ele>
        <time>2014-02-16T08:44:11Z</time>
      </trkpt>
      <trkpt lat="47.24014" lon="-1.62384">
        <ele>24.65</ele>
        <time>2014-02-16T08:44:18Z</time>
      </trkpt>
      <trkpt lat="47.24014" lon="-1.62351">
        <ele>23.21</ele>
        <time>2014-02-16T08:44:27Z</time>
      </trkpt>
      <trkpt lat="47.24013" lon="-1.62317">
        <ele>23.21</ele>
        <time>2014-02-16T08:44:34Z</time>
      </trkpt>
      <trkpt lat="47.24016" lon="-1.62304">
        <ele>21.77</ele>
        <time>2014-02-16T08:44:42Z</time>
      </trkpt>
      <trkpt lat="47.24016" lon="-1.62303">
        <ele>19.84</ele>
        <time>2014-02-16T08:45:01Z</time>
      </trkpt>
      <trkpt lat="47.24017" lon="-1.62302">
        <ele>20.81</ele>
        <time>2014-02-16T08:45:21Z</time>
      </trkpt>
      <trkpt lat="47.24015" lon="-1.62303">
        <ele>21.29</ele>
        <time>2014-02-16T08:45:38Z</time>
      </trkpt>
      <trkpt lat="47.24015" lon="-1.62292">
        <ele>22.73</ele>
        <time>2014-02-16T08:45:53Z</time>
      </trkpt>
      <trkpt lat="47.24013" lon="-1.62259">
        <ele>23.21</ele>
        <time>2014-02-16T08:46:02Z</time>
      </trkpt>
      <trkpt lat="47.24014" lon="-1.62221">
        <ele>23.21</ele>
        <time>2014-02-16T08:46:10Z</time>
      </trkpt>
      <trkpt lat="47.24011" lon="-1.62182">
        <ele>22.73</ele>
        <time>2014-02-16T08:46:17Z</time>
      </trkpt>
      <trkpt lat="47.24012" lon="-1.62177">
        <ele>22.73</ele>
        <time>2014-02-16T08:46:18Z</time>
      </trkpt>
      <trkpt lat="47.24012" lon="-1.62172">
        <ele>22.73</ele>
        <time>2014-02-16T08:46:19Z</time>
      </trkpt>
      <trkpt lat="47.24013" lon="-1.62166">
        <ele>22.73</ele>
        <time>2014-02-16T08:46:20Z</time>
      </trkpt>
      <trkpt lat="47.24013" lon="-1.62161">
        <ele>23.21</ele>
        <time>2014-02-16T08:46:21Z</time>
      </trkpt>
      <trkpt lat="47.24012" lon="-1.62116">
        <ele>23.69</ele>
        <time>2014-02-16T08:46:30Z</time>
      </trkpt>
      <trkpt lat="47.24011" lon="-1.62095">
        <ele>26.09</ele>
        <time>2014-02-16T08:46:37Z</time>
      </trkpt>
      <trkpt lat="47.24011" lon="-1.62078">
        <ele>28.5</ele>
        <time>2014-02-16T08:46:48Z</time>
      </trkpt>
      <trkpt lat="47.24011" lon="-1.62073">
        <ele>28.98</ele>
        <time>2014-02-16T08:46:51Z</time>
      </trkpt>
      <trkpt lat="47.2401" lon="-1.62068">
        <ele>28.98</ele>
        <time>2014-02-16T08:46:53Z</time>
      </trkpt>
      <trkpt lat="47.2401" lon="-1.62065">
        <ele>28.98</ele>
        <time>2014-02-16T08:46:54Z</time>
      </trkpt>
      <trkpt lat="47.24009" lon="-1.62061">
        <ele>28.98</ele>
        <time>2014-02-16T08:46:55Z</time>
      </trkpt>
      <trkpt lat="47.24008" lon="-1.62058">
        <ele>28.98</ele>
        <time>2014-02-16T08:46:56Z</time>
      </trkpt>
      <trkpt lat="47.24007" lon="-1.62054">
        <ele>29.46</ele>
        <time>2014-02-16T08:46:57Z</time>
      </trkpt>
      <trkpt lat="47.24007" lon="-1.62051">
        <ele>29.46</ele>
        <time>2014-02-16T08:46:58Z</time>
      </trkpt>
      <trkpt lat="47.24006" lon="-1.62047">
        <ele>29.94</ele>
        <time>2014-02-16T08:46:59Z</time>
      </trkpt>
      <trkpt lat="47.24005" lon="-1.62043">
        <ele>30.42</ele>
        <time>2014-02-16T08:47:00Z</time>
      </trkpt>
      <trkpt lat="47.23984" lon="-1.62014">
        <ele>35.23</ele>
        <time>2014-02-16T08:47:09Z</time>
      </trkpt>
      <trkpt lat="47.23957" lon="-1.61988">
        <ele>37.63</ele>
        <time>2014-02-16T08:47:18Z</time>
      </trkpt>
      <trkpt lat="47.23943" lon="-1.61975">
        <ele>36.67</ele>
        <time>2014-02-16T08:47:24Z</time>
      </trkpt>
      <trkpt lat="47.23924" lon="-1.61968">
        <ele>34.74</ele>
        <time>2014-02-16T08:47:32Z</time>
      </trkpt>
      <trkpt lat="47.239" lon="-1.61963">
        <ele>32.34</ele>
        <time>2014-02-16T08:47:40Z</time>
      </trkpt>
      <trkpt lat="47.23865" lon="-1.6195">
        <ele>30.42</ele>
        <time>2014-02-16T08:47:49Z</time>
      </trkpt>
      <trkpt lat="47.23842" lon="-1.61927">
        <ele>28.02</ele>
        <time>2014-02-16T08:47:58Z</time>
      </trkpt>
      <trkpt lat="47.23836" lon="-1.61918">
        <ele>28.02</ele>
        <time>2014-02-16T08:48:05Z</time>
      </trkpt>
      <trkpt lat="47.23832" lon="-1.61914">
        <ele>29.94</ele>
        <time>2014-02-16T08:48:16Z</time>
      </trkpt>
      <trkpt lat="47.2383" lon="-1.61912">
        <ele>23.69</ele>
        <time>2014-02-16T08:48:46Z</time>
      </trkpt>
      <trkpt lat="47.2383" lon="-1.61906">
        <ele>22.73</ele>
        <time>2014-02-16T08:48:58Z</time>
      </trkpt>
      <trkpt lat="47.23833" lon="-1.619">
        <ele>24.17</ele>
        <time>2014-02-16T08:49:01Z</time>
      </trkpt>
      <trkpt lat="47.23833" lon="-1.61896">
        <ele>24.65</ele>
        <time>2014-02-16T08:49:02Z</time>
      </trkpt>
      <trkpt lat="47.23833" lon="-1.61894">
        <ele>25.61</ele>
        <time>2014-02-16T08:49:03Z</time>
      </trkpt>
      <trkpt lat="47.2383" lon="-1.61892">
        <ele>30.9</ele>
        <time>2014-02-16T08:49:11Z</time>
      </trkpt>
      <trkpt lat="47.23828" lon="-1.6189">
        <ele>32.34</ele>
        <time>2014-02-16T08:49:14Z</time>
      </trkpt>
      <trkpt lat="47.23827" lon="-1.61889">
        <ele>32.82</ele>
        <time>2014-02-16T08:49:15Z</time>
      </trkpt>
      <trkpt lat="47.23826" lon="-1.61888">
        <ele>32.82</ele>
        <time>2014-02-16T08:49:16Z</time>
      </trkpt>
      <trkpt lat="47.23823" lon="-1.61878">
        <ele>34.74</ele>
        <time>2014-02-16T08:49:24Z</time>
      </trkpt>
      <trkpt lat="47.23823" lon="-1.61876">
        <ele>34.74</ele>
        <time>2014-02-16T08:49:25Z</time>
      </trkpt>
      <trkpt lat="47.23822" lon="-1.61874">
        <ele>34.74</ele>
        <time>2014-02-16T08:49:26Z</time>
      </trkpt>
      <trkpt lat="47.23821" lon="-1.61872">
        <ele>35.23</ele>
        <time>2014-02-16T08:49:27Z</time>
      </trkpt>
      <trkpt lat="47.2382" lon="-1.6187">
        <ele>35.71</ele>
        <time>2014-02-16T08:49:28Z</time>
      </trkpt>
      <trkpt lat="47.23819" lon="-1.61867">
        <ele>36.19</ele>
        <time>2014-02-16T08:49:29Z</time>
      </trkpt>
      <trkpt lat="47.23819" lon="-1.61865">
        <ele>36.67</ele>
        <time>2014-02-16T08:49:30Z</time>
      </trkpt>
      <trkpt lat="47.23816" lon="-1.61854">
        <ele>37.63</ele>
        <time>2014-02-16T08:49:36Z</time>
      </trkpt>
      <trkpt lat="47.23814" lon="-1.61852">
        <ele>37.63</ele>
        <time>2014-02-16T08:49:37Z</time>
      </trkpt>
      <trkpt lat="47.23812" lon="-1.6185">
        <ele>37.63</ele>
        <time>2014-02-16T08:49:38Z</time>
      </trkpt>
      <trkpt lat="47.2381" lon="-1.61848">
        <ele>37.63</ele>
        <time>2014-02-16T08:49:39Z</time>
      </trkpt>
      <trkpt lat="47.23809" lon="-1.61846">
        <ele>37.63</ele>
        <time>2014-02-16T08:49:40Z</time>
      </trkpt>
      <trkpt lat="47.23807" lon="-1.61843">
        <ele>37.63</ele>
        <time>2014-02-16T08:49:41Z</time>
      </trkpt>
      <trkpt lat="47.23806" lon="-1.61841">
        <ele>37.63</ele>
        <time>2014-02-16T08:49:42Z</time>
      </trkpt>
      <trkpt lat="47.23806" lon="-1.61837">
        <ele>37.15</ele>
        <time>2014-02-16T08:49:52Z</time>
      </trkpt>
      <trkpt lat="47.23799" lon="-1.61822">
        <ele>37.15</ele>
        <time>2014-02-16T08:50:05Z</time>
      </trkpt>
      <trkpt lat="47.23797" lon="-1.61817">
        <ele>37.63</ele>
        <time>2014-02-16T08:50:07Z</time>
      </trkpt>
      <trkpt lat="47.23795" lon="-1.61814">
        <ele>38.11</ele>
        <time>2014-02-16T08:50:08Z</time>
      </trkpt>
      <trkpt lat="47.23793" lon="-1.6181">
        <ele>38.59</ele>
        <time>2014-02-16T08:50:10Z</time>
      </trkpt>
      <trkpt lat="47.23792" lon="-1.61807">
        <ele>39.07</ele>
        <time>2014-02-16T08:50:12Z</time>
      </trkpt>
      <trkpt lat="47.2379" lon="-1.61806">
        <ele>39.55</ele>
        <time>2014-02-16T08:50:13Z</time>
      </trkpt>
      <trkpt lat="47.23789" lon="-1.61804">
        <ele>40.03</ele>
        <time>2014-02-16T08:50:14Z</time>
      </trkpt>
      <trkpt lat="47.23788" lon="-1.61801">
        <ele>40.03</ele>
        <time>2014-02-16T08:50:15Z</time>
      </trkpt>
      <trkpt lat="47.23787" lon="-1.61798">
        <ele>40.99</ele>
        <time>2014-02-16T08:50:16Z</time>
      </trkpt>
      <trkpt lat="47.23786" lon="-1.61795">
        <ele>41.47</ele>
        <time>2014-02-16T08:50:17Z</time>
      </trkpt>
      <trkpt lat="47.23785" lon="-1.61791">
        <ele>41.47</ele>
        <time>2014-02-16T08:50:18Z</time>
      </trkpt>
      <trkpt lat="47.23784" lon="-1.61789">
        <ele>41.95</ele>
        <time>2014-02-16T08:50:19Z</time>
      </trkpt>
      <trkpt lat="47.23784" lon="-1.61785">
        <ele>42.44</ele>
        <time>2014-02-16T08:50:20Z</time>
      </trkpt>
      <trkpt lat="47.23783" lon="-1.61782">
        <ele>42.92</ele>
        <time>2014-02-16T08:50:21Z</time>
      </trkpt>
      <trkpt lat="47.23782" lon="-1.61779">
        <ele>43.4</ele>
        <time>2014-02-16T08:50:22Z</time>
      </trkpt>
      <trkpt lat="47.2378" lon="-1.61776">
        <ele>43.4</ele>
        <time>2014-02-16T08:50:23Z</time>
      </trkpt>
      <trkpt lat="47.23779" lon="-1.61772">
        <ele>43.88</ele>
        <time>2014-02-16T08:50:24Z</time>
      </trkpt>
      <trkpt lat="47.23777" lon="-1.61768">
        <ele>44.36</ele>
        <time>2014-02-16T08:50:25Z</time>
      </trkpt>
      <trkpt lat="47.23776" lon="-1.61762">
        <ele>44.84</ele>
        <time>2014-02-16T08:50:26Z</time>
      </trkpt>
      <trkpt lat="47.23773" lon="-1.61728">
        <ele>44.84</ele>
        <time>2014-02-16T08:50:33Z</time>
      </trkpt>
      <trkpt lat="47.23771" lon="-1.61697">
        <ele>43.4</ele>
        <time>2014-02-16T08:50:40Z</time>
      </trkpt>
      <trkpt lat="47.23767" lon="-1.61674">
        <ele>40.03</ele>
        <time>2014-02-16T08:50:51Z</time>
      </trkpt>
      <trkpt lat="47.23765" lon="-1.61668">
        <ele>40.03</ele>
        <time>2014-02-16T08:50:55Z</time>
      </trkpt>
      <trkpt lat="47.2376" lon="-1.61651">
        <ele>38.11</ele>
        <time>2014-02-16T08:51:02Z</time>
      </trkpt>
      <trkpt lat="47.23762" lon="-1.61647">
        <ele>37.63</ele>
        <time>2014-02-16T08:51:03Z</time>
      </trkpt>
      <trkpt lat="47.23762" lon="-1.61643">
        <ele>37.15</ele>
        <time>2014-02-16T08:51:04Z</time>
      </trkpt>
      <trkpt lat="47.23763" lon="-1.6164">
        <ele>36.67</ele>
        <time>2014-02-16T08:51:05Z</time>
      </trkpt>
      <trkpt lat="47.23763" lon="-1.61636">
        <ele>36.19</ele>
        <time>2014-02-16T08:51:06Z</time>
      </trkpt>
      <trkpt lat="47.23764" lon="-1.61632">
        <ele>36.67</ele>
        <time>2014-02-16T08:51:07Z</time>
      </trkpt>
      <trkpt lat="47.23765" lon="-1.61628">
        <ele>36.67</ele>
        <time>2014-02-16T08:51:08Z</time>
      </trkpt>
      <trkpt lat="47.23766" lon="-1.61623">
        <ele>36.19</ele>
        <time>2014-02-16T08:51:09Z</time>
      </trkpt>
      <trkpt lat="47.23776" lon="-1.61582">
        <ele>35.71</ele>
        <time>2014-02-16T08:51:18Z</time>
      </trkpt>
      <trkpt lat="47.23777" lon="-1.61574">
        <ele>34.74</ele>
        <time>2014-02-16T08:51:22Z</time>
      </trkpt>
      <trkpt lat="47.23778" lon="-1.6157">
        <ele>33.3</ele>
        <time>2014-02-16T08:51:23Z</time>
      </trkpt>
      <trkpt lat="47.23779" lon="-1.61564">
        <ele>27.53</ele>
        <time>2014-02-16T08:51:31Z</time>
      </trkpt>
      <trkpt lat="47.23778" lon="-1.61564">
        <ele>24.65</ele>
        <time>2014-02-16T08:51:51Z</time>
      </trkpt>
      <trkpt lat="47.23777" lon="-1.61562">
        <ele>22.73</ele>
        <time>2014-02-16T08:52:06Z</time>
      </trkpt>
      <trkpt lat="47.23773" lon="-1.61556">
        <ele>23.69</ele>
        <time>2014-02-16T08:52:28Z</time>
      </trkpt>
      <trkpt lat="47.23775" lon="-1.61558">
        <ele>25.61</ele>
        <time>2014-02-16T08:52:58Z</time>
      </trkpt>
      <trkpt lat="47.23775" lon="-1.61558">
        <ele>26.09</ele>
        <time>2014-02-16T08:53:22Z</time>
      </trkpt>
      <trkpt lat="47.23776" lon="-1.61559">
        <ele>24.17</ele>
        <time>2014-02-16T08:53:27Z</time>
      </trkpt>
      <trkpt lat="47.23774" lon="-1.61558">
        <ele>24.65</ele>
        <time>2014-02-16T08:53:28Z</time>
      </trkpt>
      <trkpt lat="47.23771" lon="-1.61556">
        <ele>24.17</ele>
        <time>2014-02-16T08:53:29Z</time>
      </trkpt>
      <trkpt lat="47.23767" lon="-1.61554">
        <ele>24.65</ele>
        <time>2014-02-16T08:53:30Z</time>
      </trkpt>
      <trkpt lat="47.23763" lon="-1.61552">
        <ele>24.65</ele>
        <time>2014-02-16T08:53:31Z</time>
      </trkpt>
      <trkpt lat="47.23759" lon="-1.61551">
        <ele>24.65</ele>
        <time>2014-02-16T08:53:32Z</time>
      </trkpt>
      <trkpt lat="47.23757" lon="-1.6155">
        <ele>24.65</ele>
        <time>2014-02-16T08:53:33Z</time>
      </trkpt>
      <trkpt lat="47.23756" lon="-1.61549">
        <ele>24.65</ele>
        <time>2014-02-16T08:53:34Z</time>
      </trkpt>
      <trkpt lat="47.23755" lon="-1.61547">
        <ele>25.13</ele>
        <time>2014-02-16T08:53:35Z</time>
      </trkpt>
      <trkpt lat="47.23754" lon="-1.61544">
        <ele>25.13</ele>
        <time>2014-02-16T08:53:36Z</time>
      </trkpt>
      <trkpt lat="47.23753" lon="-1.61543">
        <ele>25.13</ele>
        <time>2014-02-16T08:53:37Z</time>
      </trkpt>
      <trkpt lat="47.23751" lon="-1.61542">
        <ele>25.13</ele>
        <time>2014-02-16T08:53:38Z</time>
      </trkpt>
      <trkpt lat="47.23749" lon="-1.6154">
        <ele>25.13</ele>
        <time>2014-02-16T08:53:39Z</time>
      </trkpt>
      <trkpt lat="47.23748" lon="-1.61535">
        <ele>24.65</ele>
        <time>2014-02-16T08:53:49Z</time>
      </trkpt>
      <trkpt lat="47.23747" lon="-1.61531">
        <ele>27.05</ele>
        <time>2014-02-16T08:54:04Z</time>
      </trkpt>
      <trkpt lat="47.23748" lon="-1.61528">
        <ele>27.05</ele>
        <time>2014-02-16T08:54:20Z</time>
      </trkpt>
      <trkpt lat="47.2375" lon="-1.61528">
        <ele>27.05</ele>
        <time>2014-02-16T08:54:36Z</time>
      </trkpt>
      <trkpt lat="47.23752" lon="-1.6153">
        <ele>24.65</ele>
        <time>2014-02-16T08:54:55Z</time>
      </trkpt>
      <trkpt lat="47.23747" lon="-1.61531">
        <ele>24.65</ele>
        <time>2014-02-16T08:55:04Z</time>
      </trkpt>
      <trkpt lat="47.23745" lon="-1.61531">
        <ele>24.65</ele>
        <time>2014-02-16T08:55:05Z</time>
      </trkpt>
      <trkpt lat="47.23739" lon="-1.61529">
        <ele>24.65</ele>
        <time>2014-02-16T08:55:08Z</time>
      </trkpt>
      <trkpt lat="47.23736" lon="-1.61524">
        <ele>25.13</ele>
        <time>2014-02-16T08:55:12Z</time>
      </trkpt>
      <trkpt lat="47.23729" lon="-1.61507">
        <ele>27.05</ele>
        <time>2014-02-16T08:55:20Z</time>
      </trkpt>
      <trkpt lat="47.23727" lon="-1.61497">
        <ele>27.53</ele>
        <time>2014-02-16T08:55:24Z</time>
      </trkpt>
      <trkpt lat="47.23727" lon="-1.61468">
        <ele>24.65</ele>
        <time>2014-02-16T08:55:33Z</time>
      </trkpt>
      <trkpt lat="47.2373" lon="-1.61449">
        <ele>24.17</ele>
        <time>2014-02-16T08:55:41Z</time>
      </trkpt>
      <trkpt lat="47.23735" lon="-1.61434">
        <ele>26.09</ele>
        <time>2014-02-16T08:55:51Z</time>
      </trkpt>
      <trkpt lat="47.23735" lon="-1.61418">
        <ele>26.09</ele>
        <time>2014-02-16T08:55:58Z</time>
      </trkpt>
      <trkpt lat="47.23735" lon="-1.61402">
        <ele>26.09</ele>
        <time>2014-02-16T08:56:03Z</time>
      </trkpt>
      <trkpt lat="47.2373" lon="-1.61366">
        <ele>28.5</ele>
        <time>2014-02-16T08:56:13Z</time>
      </trkpt>
      <trkpt lat="47.23719" lon="-1.61338">
        <ele>28.5</ele>
        <time>2014-02-16T08:56:21Z</time>
      </trkpt>
      <trkpt lat="47.23696" lon="-1.61316">
        <ele>30.42</ele>
        <time>2014-02-16T08:56:29Z</time>
      </trkpt>
      <trkpt lat="47.23678" lon="-1.61288">
        <ele>31.86</ele>
        <time>2014-02-16T08:56:37Z</time>
      </trkpt>
      <trkpt lat="47.23673" lon="-1.61255">
        <ele>35.23</ele>
        <time>2014-02-16T08:56:46Z</time>
      </trkpt>
      <trkpt lat="47.23663" lon="-1.61226">
        <ele>36.67</ele>
        <time>2014-02-16T08:56:54Z</time>
      </trkpt>
      <trkpt lat="47.23646" lon="-1.61191">
        <ele>37.63</ele>
        <time>2014-02-16T08:57:03Z</time>
      </trkpt>
      <trkpt lat="47.23634" lon="-1.6116">
        <ele>37.15</ele>
        <time>2014-02-16T08:57:11Z</time>
      </trkpt>
      <trkpt lat="47.23619" lon="-1.61124">
        <ele>36.67</ele>
        <time>2014-02-16T08:57:21Z</time>
      </trkpt>
      <trkpt lat="47.23619" lon="-1.61118">
        <ele>36.19</ele>
        <time>2014-02-16T08:57:22Z</time>
      </trkpt>
      <trkpt lat="47.23618" lon="-1.61114">
        <ele>35.71</ele>
        <time>2014-02-16T08:57:23Z</time>
      </trkpt>
      <trkpt lat="47.23617" lon="-1.6111">
        <ele>35.71</ele>
        <time>2014-02-16T08:57:24Z</time>
      </trkpt>
      <trkpt lat="47.23617" lon="-1.61107">
        <ele>35.23</ele>
        <time>2014-02-16T08:57:25Z</time>
      </trkpt>
      <trkpt lat="47.23616" lon="-1.61102">
        <ele>35.23</ele>
        <time>2014-02-16T08:57:26Z</time>
      </trkpt>
      <trkpt lat="47.23615" lon="-1.61097">
        <ele>35.23</ele>
        <time>2014-02-16T08:57:27Z</time>
      </trkpt>
      <trkpt lat="47.23615" lon="-1.61093">
        <ele>35.23</ele>
        <time>2014-02-16T08:57:28Z</time>
      </trkpt>
      <trkpt lat="47.23609" lon="-1.61056">
        <ele>34.74</ele>
        <time>2014-02-16T08:57:38Z</time>
      </trkpt>
      <trkpt lat="47.23603" lon="-1.61042">
        <ele>35.71</ele>
        <time>2014-02-16T08:57:42Z</time>
      </trkpt>
      <trkpt lat="47.23603" lon="-1.61038">
        <ele>36.19</ele>
        <time>2014-02-16T08:57:43Z</time>
      </trkpt>
      <trkpt lat="47.23604" lon="-1.61034">
        <ele>36.19</ele>
        <time>2014-02-16T08:57:44Z</time>
      </trkpt>
      <trkpt lat="47.23607" lon="-1.61002">
        <ele>35.71</ele>
        <time>2014-02-16T08:57:53Z</time>
      </trkpt>
      <trkpt lat="47.23613" lon="-1.60969">
        <ele>34.74</ele>
        <time>2014-02-16T08:58:03Z</time>
      </trkpt>
      <trkpt lat="47.23617" lon="-1.60944">
        <ele>33.78</ele>
        <time>2014-02-16T08:58:12Z</time>
      </trkpt>
      <trkpt lat="47.23623" lon="-1.60922">
        <ele>29.94</ele>
        <time>2014-02-16T08:58:21Z</time>
      </trkpt>
      <trkpt lat="47.23625" lon="-1.60906">
        <ele>28.02</ele>
        <time>2014-02-16T08:58:30Z</time>
      </trkpt>
      <trkpt lat="47.23625" lon="-1.60904">
        <ele>28.02</ele>
        <time>2014-02-16T08:58:31Z</time>
      </trkpt>
      <trkpt lat="47.23623" lon="-1.60903">
        <ele>28.5</ele>
        <time>2014-02-16T08:58:32Z</time>
      </trkpt>
      <trkpt lat="47.23622" lon="-1.60902">
        <ele>28.5</ele>
        <time>2014-02-16T08:58:33Z</time>
      </trkpt>
      <trkpt lat="47.2362" lon="-1.60901">
        <ele>28.5</ele>
        <time>2014-02-16T08:58:34Z</time>
      </trkpt>
      <trkpt lat="47.23618" lon="-1.609">
        <ele>28.98</ele>
        <time>2014-02-16T08:58:35Z</time>
      </trkpt>
      <trkpt lat="47.23616" lon="-1.60899">
        <ele>29.46</ele>
        <time>2014-02-16T08:58:36Z</time>
      </trkpt>
      <trkpt lat="47.23614" lon="-1.60898">
        <ele>29.94</ele>
        <time>2014-02-16T08:58:37Z</time>
      </trkpt>
      <trkpt lat="47.23613" lon="-1.60896">
        <ele>30.42</ele>
        <time>2014-02-16T08:58:38Z</time>
      </trkpt>
      <trkpt lat="47.23611" lon="-1.60894">
        <ele>30.9</ele>
        <time>2014-02-16T08:58:39Z</time>
      </trkpt>
      <trkpt lat="47.2361" lon="-1.60892">
        <ele>31.38</ele>
        <time>2014-02-16T08:58:40Z</time>
      </trkpt>
      <trkpt lat="47.23604" lon="-1.60885">
        <ele>32.34</ele>
        <time>2014-02-16T08:58:44Z</time>
      </trkpt>
      <trkpt lat="47.23592" lon="-1.60888">
        <ele>34.74</ele>
        <time>2014-02-16T08:58:50Z</time>
      </trkpt>
      <trkpt lat="47.23583" lon="-1.60897">
        <ele>34.26</ele>
        <time>2014-02-16T08:58:56Z</time>
      </trkpt>
      <trkpt lat="47.23582" lon="-1.60908">
        <ele>31.38</ele>
        <time>2014-02-16T08:59:07Z</time>
      </trkpt>
      <trkpt lat="47.23582" lon="-1.60906">
        <ele>30.9</ele>
        <time>2014-02-16T08:59:20Z</time>
      </trkpt>
      <trkpt lat="47.23583" lon="-1.60907">
        <ele>27.53</ele>
        <time>2014-02-16T08:59:50Z</time>
      </trkpt>
      <trkpt lat="47.23584" lon="-1.60918">
        <ele>27.05</ele>
        <time>2014-02-16T09:00:08Z</time>
      </trkpt>
      <trkpt lat="47.23585" lon="-1.60929">
        <ele>28.02</ele>
        <time>2014-02-16T09:00:19Z</time>
      </trkpt>
      <trkpt lat="47.23606" lon="-1.60936">
        <ele>27.53</ele>
        <time>2014-02-16T09:00:28Z</time>
      </trkpt>
      <trkpt lat="47.2361" lon="-1.60935">
        <ele>27.05</ele>
        <time>2014-02-16T09:00:29Z</time>
      </trkpt>
      <trkpt lat="47.23618" lon="-1.60931">
        <ele>25.13</ele>
        <time>2014-02-16T09:00:36Z</time>
      </trkpt>
      <trkpt lat="47.23621" lon="-1.60937">
        <ele>22.25</ele>
        <time>2014-02-16T09:00:48Z</time>
      </trkpt>
      <trkpt lat="47.23625" lon="-1.60934">
        <ele>25.61</ele>
        <time>2014-02-16T09:01:11Z</time>
      </trkpt>
      <trkpt lat="47.23624" lon="-1.60925">
        <ele>26.09</ele>
        <time>2014-02-16T09:01:24Z</time>
      </trkpt>
      <trkpt lat="47.23624" lon="-1.60923">
        <ele>27.05</ele>
        <time>2014-02-16T09:01:34Z</time>
      </trkpt>
      <trkpt lat="47.23623" lon="-1.60919">
        <ele>27.53</ele>
        <time>2014-02-16T09:02:00Z</time>
      </trkpt>
      <trkpt lat="47.23624" lon="-1.60919">
        <ele>28.02</ele>
        <time>2014-02-16T09:02:22Z</time>
      </trkpt>
      <trkpt lat="47.23624" lon="-1.6092">
        <ele>25.13</ele>
        <time>2014-02-16T09:02:40Z</time>
      </trkpt>
      <trkpt lat="47.23623" lon="-1.60919">
        <ele>24.65</ele>
        <time>2014-02-16T09:02:56Z</time>
      </trkpt>
      <trkpt lat="47.23624" lon="-1.60907">
        <ele>24.17</ele>
        <time>2014-02-16T09:03:09Z</time>
      </trkpt>
      <trkpt lat="47.23622" lon="-1.60886">
        <ele>28.5</ele>
        <time>2014-02-16T09:03:17Z</time>
      </trkpt>
      <trkpt lat="47.23622" lon="-1.60879">
        <ele>30.9</ele>
        <time>2014-02-16T09:03:20Z</time>
      </trkpt>
      <trkpt lat="47.23621" lon="-1.60877">
        <ele>31.86</ele>
        <time>2014-02-16T09:03:21Z</time>
      </trkpt>
      <trkpt lat="47.23621" lon="-1.60874">
        <ele>32.82</ele>
        <time>2014-02-16T09:03:22Z</time>
      </trkpt>
      <trkpt lat="47.23621" lon="-1.60871">
        <ele>33.78</ele>
        <time>2014-02-16T09:03:23Z</time>
      </trkpt>
      <trkpt lat="47.23621" lon="-1.60867">
        <ele>34.74</ele>
        <time>2014-02-16T09:03:24Z</time>
      </trkpt>
      <trkpt lat="47.2362" lon="-1.60832">
        <ele>37.15</ele>
        <time>2014-02-16T09:03:32Z</time>
      </trkpt>
      <trkpt lat="47.23593" lon="-1.60802">
        <ele>34.74</ele>
        <time>2014-02-16T09:03:43Z</time>
      </trkpt>
      <trkpt lat="47.23568" lon="-1.60773">
        <ele>31.38</ele>
        <time>2014-02-16T09:03:53Z</time>
      </trkpt>
      <trkpt lat="47.23539" lon="-1.60715">
        <ele>28.5</ele>
        <time>2014-02-16T09:04:07Z</time>
      </trkpt>
      <trkpt lat="47.2352" lon="-1.60669">
        <ele>26.09</ele>
        <time>2014-02-16T09:04:16Z</time>
      </trkpt>
      <trkpt lat="47.2352" lon="-1.60664">
        <ele>25.61</ele>
        <time>2014-02-16T09:04:17Z</time>
      </trkpt>
      <trkpt lat="47.2352" lon="-1.60658">
        <ele>25.13</ele>
        <time>2014-02-16T09:04:18Z</time>
      </trkpt>
      <trkpt lat="47.23519" lon="-1.60652">
        <ele>24.65</ele>
        <time>2014-02-16T09:04:19Z</time>
      </trkpt>
      <trkpt lat="47.23517" lon="-1.60645">
        <ele>24.65</ele>
        <time>2014-02-16T09:04:20Z</time>
      </trkpt>
      <trkpt lat="47.23515" lon="-1.60639">
        <ele>24.17</ele>
        <time>2014-02-16T09:04:21Z</time>
      </trkpt>
      <trkpt lat="47.23507" lon="-1.6061">
        <ele>22.25</ele>
        <time>2014-02-16T09:04:27Z</time>
      </trkpt>
      <trkpt lat="47.23505" lon="-1.60605">
        <ele>21.29</ele>
        <time>2014-02-16T09:04:28Z</time>
      </trkpt>
      <trkpt lat="47.23495" lon="-1.60578">
        <ele>23.21</ele>
        <time>2014-02-16T09:04:35Z</time>
      </trkpt>
      <trkpt lat="47.2349" lon="-1.60534">
        <ele>26.57</ele>
        <time>2014-02-16T09:04:45Z</time>
      </trkpt>
      <trkpt lat="47.23484" lon="-1.60498">
        <ele>27.05</ele>
        <time>2014-02-16T09:04:54Z</time>
      </trkpt>
      <trkpt lat="47.23483" lon="-1.60495">
        <ele>27.05</ele>
        <time>2014-02-16T09:04:55Z</time>
      </trkpt>
      <trkpt lat="47.23481" lon="-1.60488">
        <ele>27.53</ele>
        <time>2014-02-16T09:04:57Z</time>
      </trkpt>
      <trkpt lat="47.23481" lon="-1.60484">
        <ele>27.53</ele>
        <time>2014-02-16T09:04:58Z</time>
      </trkpt>
      <trkpt lat="47.23483" lon="-1.60458">
        <ele>28.02</ele>
        <time>2014-02-16T09:05:03Z</time>
      </trkpt>
      <trkpt lat="47.23482" lon="-1.60451">
        <ele>28.02</ele>
        <time>2014-02-16T09:05:04Z</time>
      </trkpt>
      <trkpt lat="47.23481" lon="-1.60445">
        <ele>28.02</ele>
        <time>2014-02-16T09:05:05Z</time>
      </trkpt>
      <trkpt lat="47.23478" lon="-1.60414">
        <ele>26.57</ele>
        <time>2014-02-16T09:05:11Z</time>
      </trkpt>
      <trkpt lat="47.23462" lon="-1.60373">
        <ele>24.65</ele>
        <time>2014-02-16T09:05:20Z</time>
      </trkpt>
      <trkpt lat="47.23455" lon="-1.60352">
        <ele>23.21</ele>
        <time>2014-02-16T09:05:23Z</time>
      </trkpt>
      <trkpt lat="47.23431" lon="-1.60312">
        <ele>20.32</ele>
        <time>2014-02-16T09:05:32Z</time>
      </trkpt>
      <trkpt lat="47.23403" lon="-1.60299">
        <ele>22.73</ele>
        <time>2014-02-16T09:05:40Z</time>
      </trkpt>
      <trkpt lat="47.23398" lon="-1.60295">
        <ele>23.69</ele>
        <time>2014-02-16T09:05:42Z</time>
      </trkpt>
      <trkpt lat="47.23396" lon="-1.60291">
        <ele>24.17</ele>
        <time>2014-02-16T09:05:43Z</time>
      </trkpt>
      <trkpt lat="47.23376" lon="-1.60252">
        <ele>23.21</ele>
        <time>2014-02-16T09:05:54Z</time>
      </trkpt>
      <trkpt lat="47.23356" lon="-1.60226">
        <ele>25.13</ele>
        <time>2014-02-16T09:06:02Z</time>
      </trkpt>
      <trkpt lat="47.23344" lon="-1.60199">
        <ele>28.5</ele>
        <time>2014-02-16T09:06:09Z</time>
      </trkpt>
      <trkpt lat="47.23324" lon="-1.6017">
        <ele>28.98</ele>
        <time>2014-02-16T09:06:17Z</time>
      </trkpt>
      <trkpt lat="47.23305" lon="-1.6014">
        <ele>30.9</ele>
        <time>2014-02-16T09:06:25Z</time>
      </trkpt>
      <trkpt lat="47.23298" lon="-1.60106">
        <ele>31.38</ele>
        <time>2014-02-16T09:06:34Z</time>
      </trkpt>
      <trkpt lat="47.23298" lon="-1.60072">
        <ele>34.74</ele>
        <time>2014-02-16T09:06:41Z</time>
      </trkpt>
      <trkpt lat="47.23296" lon="-1.60036">
        <ele>37.63</ele>
        <time>2014-02-16T09:06:47Z</time>
      </trkpt>
      <trkpt lat="47.23294" lon="-1.60008">
        <ele>37.63</ele>
        <time>2014-02-16T09:06:51Z</time>
      </trkpt>
      <trkpt lat="47.23293" lon="-1.60001">
        <ele>37.63</ele>
        <time>2014-02-16T09:06:52Z</time>
      </trkpt>
      <trkpt lat="47.23272" lon="-1.59968">
        <ele>36.67</ele>
        <time>2014-02-16T09:06:59Z</time>
      </trkpt>
      <trkpt lat="47.23258" lon="-1.59964">
        <ele>35.23</ele>
        <time>2014-02-16T09:07:03Z</time>
      </trkpt>
      <trkpt lat="47.23228" lon="-1.59975">
        <ele>30.42</ele>
        <time>2014-02-16T09:07:12Z</time>
      </trkpt>
      <trkpt lat="47.2322" lon="-1.59973">
        <ele>29.46</ele>
        <time>2014-02-16T09:07:14Z</time>
      </trkpt>
      <trkpt lat="47.23199" lon="-1.59969">
        <ele>27.05</ele>
        <time>2014-02-16T09:07:20Z</time>
      </trkpt>
      <trkpt lat="47.23192" lon="-1.59963">
        <ele>26.09</ele>
        <time>2014-02-16T09:07:23Z</time>
      </trkpt>
      <trkpt lat="47.23187" lon="-1.59951">
        <ele>25.13</ele>
        <time>2014-02-16T09:07:26Z</time>
      </trkpt>
      <trkpt lat="47.23192" lon="-1.59939">
        <ele>23.21</ele>
        <time>2014-02-16T09:07:32Z</time>
      </trkpt>
      <trkpt lat="47.23193" lon="-1.5993">
        <ele>23.21</ele>
        <time>2014-02-16T09:07:35Z</time>
      </trkpt>
      <trkpt lat="47.23194" lon="-1.59921">
        <ele>23.69</ele>
        <time>2014-02-16T09:07:37Z</time>
      </trkpt>
      <trkpt lat="47.23184" lon="-1.5988">
        <ele>24.17</ele>
        <time>2014-02-16T09:07:46Z</time>
      </trkpt>
      <trkpt lat="47.23181" lon="-1.59875">
        <ele>23.69</ele>
        <time>2014-02-16T09:07:47Z</time>
      </trkpt>
      <trkpt lat="47.23178" lon="-1.59871">
        <ele>23.69</ele>
        <time>2014-02-16T09:07:48Z</time>
      </trkpt>
      <trkpt lat="47.23176" lon="-1.59866">
        <ele>23.69</ele>
        <time>2014-02-16T09:07:49Z</time>
      </trkpt>
      <trkpt lat="47.23173" lon="-1.59861">
        <ele>23.69</ele>
        <time>2014-02-16T09:07:50Z</time>
      </trkpt>
      <trkpt lat="47.23142" lon="-1.59816">
        <ele>22.25</ele>
        <time>2014-02-16T09:08:01Z</time>
      </trkpt>
      <trkpt lat="47.23112" lon="-1.59784">
        <ele>20.81</ele>
        <time>2014-02-16T09:08:11Z</time>
      </trkpt>
      <trkpt lat="47.23088" lon="-1.59771">
        <ele>19.84</ele>
        <time>2014-02-16T09:08:18Z</time>
      </trkpt>
      <trkpt lat="47.23084" lon="-1.59772">
        <ele>19.84</ele>
        <time>2014-02-16T09:08:19Z</time>
      </trkpt>
      <trkpt lat="47.23065" lon="-1.59788">
        <ele>18.88</ele>
        <time>2014-02-16T09:08:26Z</time>
      </trkpt>
      <trkpt lat="47.23042" lon="-1.59795">
        <ele>19.36</ele>
        <time>2014-02-16T09:08:33Z</time>
      </trkpt>
      <trkpt lat="47.23038" lon="-1.59796">
        <ele>19.36</ele>
        <time>2014-02-16T09:08:34Z</time>
      </trkpt>
      <trkpt lat="47.23034" lon="-1.59796">
        <ele>19.36</ele>
        <time>2014-02-16T09:08:35Z</time>
      </trkpt>
      <trkpt lat="47.23008" lon="-1.59799">
        <ele>20.81</ele>
        <time>2014-02-16T09:08:43Z</time>
      </trkpt>
      <trkpt lat="47.22983" lon="-1.59806">
        <ele>19.84</ele>
        <time>2014-02-16T09:08:51Z</time>
      </trkpt>
      <trkpt lat="47.22973" lon="-1.59808">
        <ele>19.36</ele>
        <time>2014-02-16T09:08:55Z</time>
      </trkpt>
      <trkpt lat="47.2297" lon="-1.59807">
        <ele>18.88</ele>
        <time>2014-02-16T09:08:56Z</time>
      </trkpt>
      <trkpt lat="47.22966" lon="-1.59807">
        <ele>18.88</ele>
        <time>2014-02-16T09:08:57Z</time>
      </trkpt>
      <trkpt lat="47.22962" lon="-1.59808">
        <ele>18.4</ele>
        <time>2014-02-16T09:08:58Z</time>
      </trkpt>
      <trkpt lat="47.22958" lon="-1.5981">
        <ele>18.4</ele>
        <time>2014-02-16T09:08:59Z</time>
      </trkpt>
      <trkpt lat="47.22955" lon="-1.59813">
        <ele>17.92</ele>
        <time>2014-02-16T09:09:00Z</time>
      </trkpt>
      <trkpt lat="47.22952" lon="-1.59815">
        <ele>17.92</ele>
        <time>2014-02-16T09:09:01Z</time>
      </trkpt>
      <trkpt lat="47.2295" lon="-1.59816">
        <ele>17.92</ele>
        <time>2014-02-16T09:09:02Z</time>
      </trkpt>
      <trkpt lat="47.22947" lon="-1.59816">
        <ele>17.92</ele>
        <time>2014-02-16T09:09:03Z</time>
      </trkpt>
      <trkpt lat="47.22944" lon="-1.59815">
        <ele>18.4</ele>
        <time>2014-02-16T09:09:04Z</time>
      </trkpt>
      <trkpt lat="47.22941" lon="-1.59813">
        <ele>18.88</ele>
        <time>2014-02-16T09:09:05Z</time>
      </trkpt>
      <trkpt lat="47.22938" lon="-1.59811">
        <ele>18.88</ele>
        <time>2014-02-16T09:09:06Z</time>
      </trkpt>
      <trkpt lat="47.22935" lon="-1.59807">
        <ele>18.88</ele>
        <time>2014-02-16T09:09:07Z</time>
      </trkpt>
      <trkpt lat="47.2293" lon="-1.59798">
        <ele>18.88</ele>
        <time>2014-02-16T09:09:09Z</time>
      </trkpt>
      <trkpt lat="47.22929" lon="-1.59793">
        <ele>18.4</ele>
        <time>2014-02-16T09:09:10Z</time>
      </trkpt>
      <trkpt lat="47.2293" lon="-1.59777">
        <ele>17.92</ele>
        <time>2014-02-16T09:09:13Z</time>
      </trkpt>
      <trkpt lat="47.22933" lon="-1.59773">
        <ele>17.44</ele>
        <time>2014-02-16T09:09:14Z</time>
      </trkpt>
      <trkpt lat="47.22935" lon="-1.59771">
        <ele>17.44</ele>
        <time>2014-02-16T09:09:15Z</time>
      </trkpt>
      <trkpt lat="47.22943" lon="-1.59766">
        <ele>16.96</ele>
        <time>2014-02-16T09:09:19Z</time>
      </trkpt>
      <trkpt lat="47.22944" lon="-1.59766">
        <ele>16.96</ele>
        <time>2014-02-16T09:09:20Z</time>
      </trkpt>
      <trkpt lat="47.22945" lon="-1.59767">
        <ele>16.96</ele>
        <time>2014-02-16T09:09:21Z</time>
      </trkpt>
      <trkpt lat="47.22948" lon="-1.59766">
        <ele>16.96</ele>
        <time>2014-02-16T09:09:30Z</time>
      </trkpt>
      <trkpt lat="47.2295" lon="-1.59767">
        <ele>16.96</ele>
        <time>2014-02-16T09:09:34Z</time>
      </trkpt>
      <trkpt lat="47.2295" lon="-1.59768">
        <ele>15.52</ele>
        <time>2014-02-16T09:09:42Z</time>
      </trkpt>
      <trkpt lat="47.22951" lon="-1.5977">
        <ele>15.52</ele>
        <time>2014-02-16T09:09:56Z</time>
      </trkpt>
      <trkpt lat="47.22953" lon="-1.59768">
        <ele>14.56</ele>
        <time>2014-02-16T09:10:09Z</time>
      </trkpt>
      <trkpt lat="47.22952" lon="-1.59769">
        <ele>17.44</ele>
        <time>2014-02-16T09:10:29Z</time>
      </trkpt>
      <trkpt lat="47.22952" lon="-1.59771">
        <ele>19.36</ele>
        <time>2014-02-16T09:10:54Z</time>
      </trkpt>
      <trkpt lat="47.22953" lon="-1.59769">
        <ele>16</ele>
        <time>2014-02-16T09:11:15Z</time>
      </trkpt>
      <trkpt lat="47.22951" lon="-1.59769">
        <ele>15.04</ele>
        <time>2014-02-16T09:11:35Z</time>
      </trkpt>
      <trkpt lat="47.2295" lon="-1.59766">
        <ele>17.44</ele>
        <time>2014-02-16T09:11:56Z</time>
      </trkpt>
      <trkpt lat="47.2295" lon="-1.59767">
        <ele>14.08</ele>
        <time>2014-02-16T09:12:15Z</time>
      </trkpt>
      <trkpt lat="47.2295" lon="-1.59767">
        <ele>13.6</ele>
        <time>2014-02-16T09:12:35Z</time>
      </trkpt>
      <trkpt lat="47.22948" lon="-1.59768">
        <ele>11.19</ele>
        <time>2014-02-16T09:12:51Z</time>
      </trkpt>
      <trkpt lat="47.2295" lon="-1.59766">
        <ele>10.23</ele>
        <time>2014-02-16T09:13:15Z</time>
      </trkpt>
      <trkpt lat="47.22948" lon="-1.59769">
        <ele>11.67</ele>
        <time>2014-02-16T09:13:23Z</time>
      </trkpt>
      <trkpt lat="47.22949" lon="-1.5977">
        <ele>13.6</ele>
        <time>2014-02-16T09:13:33Z</time>
      </trkpt>
      <trkpt lat="47.22947" lon="-1.59766">
        <ele>14.56</ele>
        <time>2014-02-16T09:13:50Z</time>
      </trkpt>
      <trkpt lat="47.22946" lon="-1.59766">
        <ele>12.15</ele>
        <time>2014-02-16T09:14:09Z</time>
      </trkpt>
      <trkpt lat="47.22946" lon="-1.59768">
        <ele>12.15</ele>
        <time>2014-02-16T09:14:21Z</time>
      </trkpt>
      <trkpt lat="47.22946" lon="-1.59769">
        <ele>12.15</ele>
        <time>2014-02-16T09:14:24Z</time>
      </trkpt>
      <trkpt lat="47.22937" lon="-1.59772">
        <ele>13.12</ele>
        <time>2014-02-16T09:14:33Z</time>
      </trkpt>
      <trkpt lat="47.2293" lon="-1.59772">
        <ele>13.12</ele>
        <time>2014-02-16T09:14:35Z</time>
      </trkpt>
      <trkpt lat="47.22928" lon="-1.5977">
        <ele>13.12</ele>
        <time>2014-02-16T09:14:36Z</time>
      </trkpt>
      <trkpt lat="47.22925" lon="-1.59768">
        <ele>13.12</ele>
        <time>2014-02-16T09:14:37Z</time>
      </trkpt>
      <trkpt lat="47.22923" lon="-1.59766">
        <ele>13.12</ele>
        <time>2014-02-16T09:14:38Z</time>
      </trkpt>
      <trkpt lat="47.22921" lon="-1.59764">
        <ele>13.12</ele>
        <time>2014-02-16T09:14:39Z</time>
      </trkpt>
      <trkpt lat="47.2292" lon="-1.59761">
        <ele>13.12</ele>
        <time>2014-02-16T09:14:40Z</time>
      </trkpt>
      <trkpt lat="47.22913" lon="-1.5975">
        <ele>13.6</ele>
        <time>2014-02-16T09:14:43Z</time>
      </trkpt>
      <trkpt lat="47.22913" lon="-1.59747">
        <ele>13.6</ele>
        <time>2014-02-16T09:14:44Z</time>
      </trkpt>
      <trkpt lat="47.22913" lon="-1.59746">
        <ele>13.6</ele>
        <time>2014-02-16T09:14:45Z</time>
      </trkpt>
      <trkpt lat="47.2292" lon="-1.59735">
        <ele>12.63</ele>
        <time>2014-02-16T09:14:55Z</time>
      </trkpt>
      <trkpt lat="47.22926" lon="-1.59727">
        <ele>12.63</ele>
        <time>2014-02-16T09:15:07Z</time>
      </trkpt>
      <trkpt lat="47.22929" lon="-1.5972">
        <ele>12.15</ele>
        <time>2014-02-16T09:15:13Z</time>
      </trkpt>
      <trkpt lat="47.22926" lon="-1.59709">
        <ele>14.08</ele>
        <time>2014-02-16T09:15:22Z</time>
      </trkpt>
      <trkpt lat="47.22923" lon="-1.59707">
        <ele>14.08</ele>
        <time>2014-02-16T09:15:24Z</time>
      </trkpt>
      <trkpt lat="47.22921" lon="-1.59706">
        <ele>14.08</ele>
        <time>2014-02-16T09:15:25Z</time>
      </trkpt>
      <trkpt lat="47.22919" lon="-1.59705">
        <ele>14.08</ele>
        <time>2014-02-16T09:15:26Z</time>
      </trkpt>
      <trkpt lat="47.22916" lon="-1.59704">
        <ele>14.08</ele>
        <time>2014-02-16T09:15:27Z</time>
      </trkpt>
      <trkpt lat="47.22913" lon="-1.59702">
        <ele>14.08</ele>
        <time>2014-02-16T09:15:28Z</time>
      </trkpt>
      <trkpt lat="47.22888" lon="-1.59679">
        <ele>13.6</ele>
        <time>2014-02-16T09:15:38Z</time>
      </trkpt>
      <trkpt lat="47.22867" lon="-1.59658">
        <ele>14.56</ele>
        <time>2014-02-16T09:15:47Z</time>
      </trkpt>
      <trkpt lat="47.22845" lon="-1.59618">
        <ele>15.52</ele>
        <time>2014-02-16T09:15:57Z</time>
      </trkpt>
      <trkpt lat="47.22845" lon="-1.59611">
        <ele>15.52</ele>
        <time>2014-02-16T09:15:58Z</time>
      </trkpt>
      <trkpt lat="47.22845" lon="-1.59604">
        <ele>15.52</ele>
        <time>2014-02-16T09:15:59Z</time>
      </trkpt>
      <trkpt lat="47.22855" lon="-1.59565">
        <ele>13.12</ele>
        <time>2014-02-16T09:16:07Z</time>
      </trkpt>
      <trkpt lat="47.22855" lon="-1.59561">
        <ele>12.63</ele>
        <time>2014-02-16T09:16:08Z</time>
      </trkpt>
      <trkpt lat="47.22853" lon="-1.59556">
        <ele>12.63</ele>
        <time>2014-02-16T09:16:09Z</time>
      </trkpt>
      <trkpt lat="47.22851" lon="-1.59551">
        <ele>12.15</ele>
        <time>2014-02-16T09:16:10Z</time>
      </trkpt>
      <trkpt lat="47.22848" lon="-1.59548">
        <ele>11.67</ele>
        <time>2014-02-16T09:16:11Z</time>
      </trkpt>
      <trkpt lat="47.22844" lon="-1.59545">
        <ele>11.19</ele>
        <time>2014-02-16T09:16:12Z</time>
      </trkpt>
      <trkpt lat="47.2284" lon="-1.59543">
        <ele>10.71</ele>
        <time>2014-02-16T09:16:13Z</time>
      </trkpt>
      <trkpt lat="47.22836" lon="-1.59541">
        <ele>10.23</ele>
        <time>2014-02-16T09:16:14Z</time>
      </trkpt>
      <trkpt lat="47.22831" lon="-1.59541">
        <ele>9.75</ele>
        <time>2014-02-16T09:16:15Z</time>
      </trkpt>
      <trkpt lat="47.22826" lon="-1.59541">
        <ele>9.75</ele>
        <time>2014-02-16T09:16:16Z</time>
      </trkpt>
      <trkpt lat="47.22821" lon="-1.59541">
        <ele>9.27</ele>
        <time>2014-02-16T09:16:17Z</time>
      </trkpt>
      <trkpt lat="47.22767" lon="-1.59552">
        <ele>10.23</ele>
        <time>2014-02-16T09:16:29Z</time>
      </trkpt>
      <trkpt lat="47.22737" lon="-1.5955">
        <ele>9.75</ele>
        <time>2014-02-16T09:16:36Z</time>
      </trkpt>
      <trkpt lat="47.22728" lon="-1.59547">
        <ele>9.27</ele>
        <time>2014-02-16T09:16:38Z</time>
      </trkpt>
      <trkpt lat="47.22723" lon="-1.59547">
        <ele>9.27</ele>
        <time>2014-02-16T09:16:39Z</time>
      </trkpt>
      <trkpt lat="47.22719" lon="-1.59545">
        <ele>9.75</ele>
        <time>2014-02-16T09:16:40Z</time>
      </trkpt>
      <trkpt lat="47.22715" lon="-1.59542">
        <ele>9.75</ele>
        <time>2014-02-16T09:16:41Z</time>
      </trkpt>
      <trkpt lat="47.22711" lon="-1.59539">
        <ele>9.75</ele>
        <time>2014-02-16T09:16:42Z</time>
      </trkpt>
      <trkpt lat="47.22707" lon="-1.59535">
        <ele>10.23</ele>
        <time>2014-02-16T09:16:43Z</time>
      </trkpt>
      <trkpt lat="47.22703" lon="-1.5953">
        <ele>10.23</ele>
        <time>2014-02-16T09:16:44Z</time>
      </trkpt>
      <trkpt lat="47.2269" lon="-1.59499">
        <ele>11.67</ele>
        <time>2014-02-16T09:16:51Z</time>
      </trkpt>
      <trkpt lat="47.22689" lon="-1.59473">
        <ele>12.15</ele>
        <time>2014-02-16T09:16:55Z</time>
      </trkpt>
      <trkpt lat="47.22704" lon="-1.59417">
        <ele>12.63</ele>
        <time>2014-02-16T09:17:05Z</time>
      </trkpt>
      <trkpt lat="47.22709" lon="-1.59401">
        <ele>13.12</ele>
        <time>2014-02-16T09:17:11Z</time>
      </trkpt>
      <trkpt lat="47.22712" lon="-1.59395">
        <ele>12.15</ele>
        <time>2014-02-16T09:17:19Z</time>
      </trkpt>
      <trkpt lat="47.22717" lon="-1.59383">
        <ele>13.12</ele>
        <time>2014-02-16T09:17:26Z</time>
      </trkpt>
      <trkpt lat="47.22723" lon="-1.5936">
        <ele>14.08</ele>
        <time>2014-02-16T09:17:35Z</time>
      </trkpt>
      <trkpt lat="47.22729" lon="-1.59327">
        <ele>15.52</ele>
        <time>2014-02-16T09:17:43Z</time>
      </trkpt>
      <trkpt lat="47.22736" lon="-1.59282">
        <ele>17.92</ele>
        <time>2014-02-16T09:17:53Z</time>
      </trkpt>
      <trkpt lat="47.22746" lon="-1.59246">
        <ele>16</ele>
        <time>2014-02-16T09:18:01Z</time>
      </trkpt>
      <trkpt lat="47.22754" lon="-1.59231">
        <ele>14.56</ele>
        <time>2014-02-16T09:18:04Z</time>
      </trkpt>
      <trkpt lat="47.22773" lon="-1.59187">
        <ele>12.15</ele>
        <time>2014-02-16T09:18:13Z</time>
      </trkpt>
      <trkpt lat="47.22767" lon="-1.59165">
        <ele>13.12</ele>
        <time>2014-02-16T09:18:17Z</time>
      </trkpt>
      <trkpt lat="47.22754" lon="-1.5914">
        <ele>13.12</ele>
        <time>2014-02-16T09:18:22Z</time>
      </trkpt>
      <trkpt lat="47.22751" lon="-1.59137">
        <ele>13.12</ele>
        <time>2014-02-16T09:18:23Z</time>
      </trkpt>
      <trkpt lat="47.22747" lon="-1.59133">
        <ele>12.63</ele>
        <time>2014-02-16T09:18:24Z</time>
      </trkpt>
      <trkpt lat="47.22744" lon="-1.5913">
        <ele>12.63</ele>
        <time>2014-02-16T09:18:25Z</time>
      </trkpt>
      <trkpt lat="47.2274" lon="-1.59126">
        <ele>12.15</ele>
        <time>2014-02-16T09:18:26Z</time>
      </trkpt>
      <trkpt lat="47.22736" lon="-1.59123">
        <ele>12.15</ele>
        <time>2014-02-16T09:18:27Z</time>
      </trkpt>
      <trkpt lat="47.22697" lon="-1.59093">
        <ele>12.63</ele>
        <time>2014-02-16T09:18:35Z</time>
      </trkpt>
      <trkpt lat="47.2266" lon="-1.59065">
        <ele>14.08</ele>
        <time>2014-02-16T09:18:43Z</time>
      </trkpt>
      <trkpt lat="47.22643" lon="-1.59046">
        <ele>15.04</ele>
        <time>2014-02-16T09:18:47Z</time>
      </trkpt>
      <trkpt lat="47.2264" lon="-1.5904">
        <ele>15.04</ele>
        <time>2014-02-16T09:18:48Z</time>
      </trkpt>
      <trkpt lat="47.22636" lon="-1.59033">
        <ele>15.04</ele>
        <time>2014-02-16T09:18:49Z</time>
      </trkpt>
      <trkpt lat="47.22633" lon="-1.59026">
        <ele>15.04</ele>
        <time>2014-02-16T09:18:50Z</time>
      </trkpt>
      <trkpt lat="47.22629" lon="-1.5902">
        <ele>14.56</ele>
        <time>2014-02-16T09:18:51Z</time>
      </trkpt>
      <trkpt lat="47.22626" lon="-1.59017">
        <ele>14.56</ele>
        <time>2014-02-16T09:18:52Z</time>
      </trkpt>
      <trkpt lat="47.22621" lon="-1.59014">
        <ele>14.56</ele>
        <time>2014-02-16T09:18:53Z</time>
      </trkpt>
      <trkpt lat="47.22618" lon="-1.5901">
        <ele>14.08</ele>
        <time>2014-02-16T09:18:54Z</time>
      </trkpt>
      <trkpt lat="47.22615" lon="-1.59006">
        <ele>14.08</ele>
        <time>2014-02-16T09:18:55Z</time>
      </trkpt>
      <trkpt lat="47.22613" lon="-1.59001">
        <ele>13.6</ele>
        <time>2014-02-16T09:18:56Z</time>
      </trkpt>
      <trkpt lat="47.22596" lon="-1.58971">
        <ele>12.15</ele>
        <time>2014-02-16T09:19:05Z</time>
      </trkpt>
      <trkpt lat="47.22584" lon="-1.58936">
        <ele>11.19</ele>
        <time>2014-02-16T09:19:15Z</time>
      </trkpt>
      <trkpt lat="47.22582" lon="-1.58929">
        <ele>10.71</ele>
        <time>2014-02-16T09:19:17Z</time>
      </trkpt>
      <trkpt lat="47.22577" lon="-1.5889">
        <ele>9.75</ele>
        <time>2014-02-16T09:19:23Z</time>
      </trkpt>
      <trkpt lat="47.22571" lon="-1.58847">
        <ele>9.27</ele>
        <time>2014-02-16T09:19:30Z</time>
      </trkpt>
      <trkpt lat="47.22571" lon="-1.58841">
        <ele>9.75</ele>
        <time>2014-02-16T09:19:31Z</time>
      </trkpt>
      <trkpt lat="47.2257" lon="-1.58837">
        <ele>9.75</ele>
        <time>2014-02-16T09:19:32Z</time>
      </trkpt>
      <trkpt lat="47.2257" lon="-1.58833">
        <ele>9.75</ele>
        <time>2014-02-16T09:19:33Z</time>
      </trkpt>
      <trkpt lat="47.2257" lon="-1.5883">
        <ele>9.75</ele>
        <time>2014-02-16T09:19:34Z</time>
      </trkpt>
      <trkpt lat="47.2257" lon="-1.58826">
        <ele>9.75</ele>
        <time>2014-02-16T09:19:35Z</time>
      </trkpt>
      <trkpt lat="47.2257" lon="-1.58822">
        <ele>9.75</ele>
        <time>2014-02-16T09:19:36Z</time>
      </trkpt>
      <trkpt lat="47.22569" lon="-1.58818">
        <ele>9.75</ele>
        <time>2014-02-16T09:19:37Z</time>
      </trkpt>
      <trkpt lat="47.22567" lon="-1.58813">
        <ele>9.75</ele>
        <time>2014-02-16T09:19:38Z</time>
      </trkpt>
      <trkpt lat="47.22556" lon="-1.58782">
        <ele>10.23</ele>
        <time>2014-02-16T09:19:45Z</time>
      </trkpt>
      <trkpt lat="47.22557" lon="-1.58779">
        <ele>11.19</ele>
        <time>2014-02-16T09:19:46Z</time>
      </trkpt>
      <trkpt lat="47.22559" lon="-1.58777">
        <ele>11.19</ele>
        <time>2014-02-16T09:19:47Z</time>
      </trkpt>
      <trkpt lat="47.22561" lon="-1.58776">
        <ele>11.19</ele>
        <time>2014-02-16T09:19:48Z</time>
      </trkpt>
      <trkpt lat="47.22563" lon="-1.58775">
        <ele>11.67</ele>
        <time>2014-02-16T09:19:49Z</time>
      </trkpt>
      <trkpt lat="47.22566" lon="-1.58774">
        <ele>11.67</ele>
        <time>2014-02-16T09:19:50Z</time>
      </trkpt>
      <trkpt lat="47.22568" lon="-1.58773">
        <ele>11.67</ele>
        <time>2014-02-16T09:19:51Z</time>
      </trkpt>
      <trkpt lat="47.2257" lon="-1.58771">
        <ele>11.67</ele>
        <time>2014-02-16T09:19:52Z</time>
      </trkpt>
      <trkpt lat="47.2258" lon="-1.58755">
        <ele>13.12</ele>
        <time>2014-02-16T09:19:59Z</time>
      </trkpt>
      <trkpt lat="47.22589" lon="-1.58714">
        <ele>16.48</ele>
        <time>2014-02-16T09:20:08Z</time>
      </trkpt>
      <trkpt lat="47.22588" lon="-1.58706">
        <ele>17.44</ele>
        <time>2014-02-16T09:20:10Z</time>
      </trkpt>
      <trkpt lat="47.22587" lon="-1.58702">
        <ele>17.92</ele>
        <time>2014-02-16T09:20:11Z</time>
      </trkpt>
      <trkpt lat="47.22568" lon="-1.58666">
        <ele>22.25</ele>
        <time>2014-02-16T09:20:20Z</time>
      </trkpt>
      <trkpt lat="47.22545" lon="-1.58632">
        <ele>23.69</ele>
        <time>2014-02-16T09:20:29Z</time>
      </trkpt>
      <trkpt lat="47.22524" lon="-1.58614">
        <ele>21.77</ele>
        <time>2014-02-16T09:20:36Z</time>
      </trkpt>
      <trkpt lat="47.22486" lon="-1.58594">
        <ele>23.21</ele>
        <time>2014-02-16T09:20:46Z</time>
      </trkpt>
      <trkpt lat="47.22462" lon="-1.58568">
        <ele>22.73</ele>
        <time>2014-02-16T09:20:55Z</time>
      </trkpt>
      <trkpt lat="47.22419" lon="-1.58538">
        <ele>25.61</ele>
        <time>2014-02-16T09:21:08Z</time>
      </trkpt>
      <trkpt lat="47.22386" lon="-1.58507">
        <ele>25.13</ele>
        <time>2014-02-16T09:21:18Z</time>
      </trkpt>
      <trkpt lat="47.22381" lon="-1.58501">
        <ele>23.69</ele>
        <time>2014-02-16T09:21:25Z</time>
      </trkpt>
      <trkpt lat="47.22378" lon="-1.58497">
        <ele>21.77</ele>
        <time>2014-02-16T09:21:38Z</time>
      </trkpt>
      <trkpt lat="47.22377" lon="-1.58495">
        <ele>20.81</ele>
        <time>2014-02-16T09:21:57Z</time>
      </trkpt>
      <trkpt lat="47.22376" lon="-1.58488">
        <ele>20.81</ele>
        <time>2014-02-16T09:22:04Z</time>
      </trkpt>
      <trkpt lat="47.22376" lon="-1.58487">
        <ele>20.81</ele>
        <time>2014-02-16T09:22:05Z</time>
      </trkpt>
      <trkpt lat="47.22375" lon="-1.58485">
        <ele>20.81</ele>
        <time>2014-02-16T09:22:06Z</time>
      </trkpt>
      <trkpt lat="47.22374" lon="-1.5848">
        <ele>20.81</ele>
        <time>2014-02-16T09:22:13Z</time>
      </trkpt>
      <trkpt lat="47.22377" lon="-1.5848">
        <ele>20.32</ele>
        <time>2014-02-16T09:22:32Z</time>
      </trkpt>
      <trkpt lat="47.22374" lon="-1.58476">
        <ele>22.25</ele>
        <time>2014-02-16T09:22:42Z</time>
      </trkpt>
      <trkpt lat="47.22376" lon="-1.58477">
        <ele>22.25</ele>
        <time>2014-02-16T09:22:46Z</time>
      </trkpt>
      <trkpt lat="47.2238" lon="-1.58476">
        <ele>19.36</ele>
        <time>2014-02-16T09:22:56Z</time>
      </trkpt>
      <trkpt lat="47.22381" lon="-1.58478">
        <ele>18.88</ele>
        <time>2014-02-16T09:23:09Z</time>
      </trkpt>
      <trkpt lat="47.22383" lon="-1.58483">
        <ele>19.84</ele>
        <time>2014-02-16T09:23:17Z</time>
      </trkpt>
      <trkpt lat="47.22383" lon="-1.58482">
        <ele>18.88</ele>
        <time>2014-02-16T09:23:27Z</time>
      </trkpt>
      <trkpt lat="47.22382" lon="-1.5848">
        <ele>18.88</ele>
        <time>2014-02-16T09:23:35Z</time>
      </trkpt>
      <trkpt lat="47.22382" lon="-1.58478">
        <ele>18.88</ele>
        <time>2014-02-16T09:23:36Z</time>
      </trkpt>
      <trkpt lat="47.22381" lon="-1.58476">
        <ele>18.88</ele>
        <time>2014-02-16T09:23:37Z</time>
      </trkpt>
      <trkpt lat="47.22382" lon="-1.58465">
        <ele>21.29</ele>
        <time>2014-02-16T09:23:45Z</time>
      </trkpt>
      <trkpt lat="47.22381" lon="-1.58464">
        <ele>21.29</ele>
        <time>2014-02-16T09:23:47Z</time>
      </trkpt>
      <trkpt lat="47.22378" lon="-1.5846">
        <ele>19.84</ele>
        <time>2014-02-16T09:23:56Z</time>
      </trkpt>
      <trkpt lat="47.22372" lon="-1.58461">
        <ele>20.81</ele>
        <time>2014-02-16T09:24:05Z</time>
      </trkpt>
      <trkpt lat="47.22372" lon="-1.58459">
        <ele>21.77</ele>
        <time>2014-02-16T09:24:19Z</time>
      </trkpt>
      <trkpt lat="47.2237" lon="-1.5846">
        <ele>22.25</ele>
        <time>2014-02-16T09:24:25Z</time>
      </trkpt>
      <trkpt lat="47.22369" lon="-1.58461">
        <ele>22.25</ele>
        <time>2014-02-16T09:24:26Z</time>
      </trkpt>
      <trkpt lat="47.22368" lon="-1.58462">
        <ele>22.25</ele>
        <time>2014-02-16T09:24:27Z</time>
      </trkpt>
      <trkpt lat="47.22366" lon="-1.58464">
        <ele>22.25</ele>
        <time>2014-02-16T09:24:28Z</time>
      </trkpt>
      <trkpt lat="47.22365" lon="-1.58465">
        <ele>21.77</ele>
        <time>2014-02-16T09:24:29Z</time>
      </trkpt>
      <trkpt lat="47.22363" lon="-1.58467">
        <ele>21.77</ele>
        <time>2014-02-16T09:24:30Z</time>
      </trkpt>
      <trkpt lat="47.22329" lon="-1.58487">
        <ele>19.36</ele>
        <time>2014-02-16T09:24:42Z</time>
      </trkpt>
      <trkpt lat="47.22286" lon="-1.5851">
        <ele>18.4</ele>
        <time>2014-02-16T09:24:54Z</time>
      </trkpt>
      <trkpt lat="47.22282" lon="-1.58513">
        <ele>17.92</ele>
        <time>2014-02-16T09:24:55Z</time>
      </trkpt>
      <trkpt lat="47.22264" lon="-1.58522">
        <ele>17.44</ele>
        <time>2014-02-16T09:24:59Z</time>
      </trkpt>
      <trkpt lat="47.22251" lon="-1.58538">
        <ele>16.96</ele>
        <time>2014-02-16T09:25:03Z</time>
      </trkpt>
      <trkpt lat="47.22226" lon="-1.58553">
        <ele>16.48</ele>
        <time>2014-02-16T09:25:10Z</time>
      </trkpt>
      <trkpt lat="47.22223" lon="-1.58548">
        <ele>16.48</ele>
        <time>2014-02-16T09:25:11Z</time>
      </trkpt>
      <trkpt lat="47.22221" lon="-1.58542">
        <ele>16.48</ele>
        <time>2014-02-16T09:25:12Z</time>
      </trkpt>
      <trkpt lat="47.2222" lon="-1.58534">
        <ele>16.48</ele>
        <time>2014-02-16T09:25:13Z</time>
      </trkpt>
      <trkpt lat="47.2222" lon="-1.58527">
        <ele>16.48</ele>
        <time>2014-02-16T09:25:14Z</time>
      </trkpt>
      <trkpt lat="47.22221" lon="-1.5852">
        <ele>16</ele>
        <time>2014-02-16T09:25:15Z</time>
      </trkpt>
      <trkpt lat="47.22221" lon="-1.58512">
        <ele>16</ele>
        <time>2014-02-16T09:25:16Z</time>
      </trkpt>
      <trkpt lat="47.22226" lon="-1.58479">
        <ele>15.52</ele>
        <time>2014-02-16T09:25:20Z</time>
      </trkpt>
      <trkpt lat="47.22226" lon="-1.58471">
        <ele>15.52</ele>
        <time>2014-02-16T09:25:21Z</time>
      </trkpt>
      <trkpt lat="47.22238" lon="-1.58369">
        <ele>12.63</ele>
        <time>2014-02-16T09:25:32Z</time>
      </trkpt>
      <trkpt lat="47.22248" lon="-1.58263">
        <ele>9.75</ele>
        <time>2014-02-16T09:25:43Z</time>
      </trkpt>
      <trkpt lat="47.22252" lon="-1.58209">
        <ele>9.75</ele>
        <time>2014-02-16T09:25:51Z</time>
      </trkpt>
      <trkpt lat="47.22255" lon="-1.5818">
        <ele>10.23</ele>
        <time>2014-02-16T09:25:56Z</time>
      </trkpt>
      <trkpt lat="47.22254" lon="-1.58174">
        <ele>10.23</ele>
        <time>2014-02-16T09:25:57Z</time>
      </trkpt>
      <trkpt lat="47.22254" lon="-1.58168">
        <ele>10.23</ele>
        <time>2014-02-16T09:25:58Z</time>
      </trkpt>
      <trkpt lat="47.22254" lon="-1.58131">
        <ele>11.19</ele>
        <time>2014-02-16T09:26:07Z</time>
      </trkpt>
      <trkpt lat="47.22254" lon="-1.58128">
        <ele>11.19</ele>
        <time>2014-02-16T09:26:11Z</time>
      </trkpt>
      <trkpt lat="47.22255" lon="-1.58126">
        <ele>11.19</ele>
        <time>2014-02-16T09:26:12Z</time>
      </trkpt>
      <trkpt lat="47.22255" lon="-1.58124">
        <ele>11.67</ele>
        <time>2014-02-16T09:26:13Z</time>
      </trkpt>
      <trkpt lat="47.22255" lon="-1.58122">
        <ele>11.67</ele>
        <time>2014-02-16T09:26:14Z</time>
      </trkpt>
      <trkpt lat="47.22255" lon="-1.58118">
        <ele>11.67</ele>
        <time>2014-02-16T09:26:15Z</time>
      </trkpt>
      <trkpt lat="47.22255" lon="-1.58114">
        <ele>12.15</ele>
        <time>2014-02-16T09:26:16Z</time>
      </trkpt>
      <trkpt lat="47.22254" lon="-1.58108">
        <ele>12.15</ele>
        <time>2014-02-16T09:26:17Z</time>
      </trkpt>
      <trkpt lat="47.22254" lon="-1.58101">
        <ele>12.15</ele>
        <time>2014-02-16T09:26:18Z</time>
      </trkpt>
      <trkpt lat="47.22251" lon="-1.58072">
        <ele>12.63</ele>
        <time>2014-02-16T09:26:22Z</time>
      </trkpt>
      <trkpt lat="47.2225" lon="-1.58065">
        <ele>12.63</ele>
        <time>2014-02-16T09:26:23Z</time>
      </trkpt>
      <trkpt lat="47.22248" lon="-1.58051">
        <ele>12.63</ele>
        <time>2014-02-16T09:26:25Z</time>
      </trkpt>
      <trkpt lat="47.22243" lon="-1.58025">
        <ele>12.63</ele>
        <time>2014-02-16T09:26:29Z</time>
      </trkpt>
      <trkpt lat="47.22232" lon="-1.57991">
        <ele>13.12</ele>
        <time>2014-02-16T09:26:35Z</time>
      </trkpt>
      <trkpt lat="47.22229" lon="-1.57985">
        <ele>13.12</ele>
        <time>2014-02-16T09:26:36Z</time>
      </trkpt>
      <trkpt lat="47.22203" lon="-1.57915">
        <ele>15.52</ele>
        <time>2014-02-16T09:26:49Z</time>
      </trkpt>
      <trkpt lat="47.22195" lon="-1.57901">
        <ele>15.04</ele>
        <time>2014-02-16T09:26:53Z</time>
      </trkpt>
      <trkpt lat="47.22192" lon="-1.579">
        <ele>15.04</ele>
        <time>2014-02-16T09:26:54Z</time>
      </trkpt>
      <trkpt lat="47.22181" lon="-1.57898">
        <ele>16.48</ele>
        <time>2014-02-16T09:26:59Z</time>
      </trkpt>
      <trkpt lat="47.22178" lon="-1.57898">
        <ele>16.48</ele>
        <time>2014-02-16T09:27:00Z</time>
      </trkpt>
      <trkpt lat="47.22176" lon="-1.57897">
        <ele>16.96</ele>
        <time>2014-02-16T09:27:01Z</time>
      </trkpt>
      <trkpt lat="47.22168" lon="-1.57893">
        <ele>16.96</ele>
        <time>2014-02-16T09:27:03Z</time>
      </trkpt>
      <trkpt lat="47.22164" lon="-1.57889">
        <ele>17.44</ele>
        <time>2014-02-16T09:27:04Z</time>
      </trkpt>
      <trkpt lat="47.22159" lon="-1.57885">
        <ele>17.44</ele>
        <time>2014-02-16T09:27:05Z</time>
      </trkpt>
      <trkpt lat="47.22138" lon="-1.57875">
        <ele>18.4</ele>
        <time>2014-02-16T09:27:09Z</time>
      </trkpt>
      <trkpt lat="47.22134" lon="-1.57871">
        <ele>18.88</ele>
        <time>2014-02-16T09:27:10Z</time>
      </trkpt>
      <trkpt lat="47.22113" lon="-1.57853">
        <ele>19.84</ele>
        <time>2014-02-16T09:27:17Z</time>
      </trkpt>
      <trkpt lat="47.22109" lon="-1.5785">
        <ele>20.81</ele>
        <time>2014-02-16T09:27:19Z</time>
      </trkpt>
      <trkpt lat="47.22107" lon="-1.57848">
        <ele>21.29</ele>
        <time>2014-02-16T09:27:20Z</time>
      </trkpt>
      <trkpt lat="47.22104" lon="-1.57846">
        <ele>21.77</ele>
        <time>2014-02-16T09:27:21Z</time>
      </trkpt>
      <trkpt lat="47.22101" lon="-1.57845">
        <ele>22.25</ele>
        <time>2014-02-16T09:27:22Z</time>
      </trkpt>
      <trkpt lat="47.22099" lon="-1.57841">
        <ele>22.73</ele>
        <time>2014-02-16T09:27:23Z</time>
      </trkpt>
      <trkpt lat="47.22102" lon="-1.57836">
        <ele>23.21</ele>
        <time>2014-02-16T09:27:25Z</time>
      </trkpt>
      <trkpt lat="47.22104" lon="-1.57837">
        <ele>23.21</ele>
        <time>2014-02-16T09:27:26Z</time>
      </trkpt>
      <trkpt lat="47.22105" lon="-1.5784">
        <ele>22.73</ele>
        <time>2014-02-16T09:27:27Z</time>
      </trkpt>
      <trkpt lat="47.22106" lon="-1.57844">
        <ele>22.25</ele>
        <time>2014-02-16T09:27:28Z</time>
      </trkpt>
      <trkpt lat="47.22108" lon="-1.57848">
        <ele>22.25</ele>
        <time>2014-02-16T09:27:30Z</time>
      </trkpt>
      <trkpt lat="47.2211" lon="-1.57848">
        <ele>22.25</ele>
        <time>2014-02-16T09:27:31Z</time>
      </trkpt>
      <trkpt lat="47.22113" lon="-1.57848">
        <ele>22.25</ele>
        <time>2014-02-16T09:27:32Z</time>
      </trkpt>
      <trkpt lat="47.22116" lon="-1.57849">
        <ele>22.25</ele>
        <time>2014-02-16T09:27:33Z</time>
      </trkpt>
      <trkpt lat="47.22119" lon="-1.57849">
        <ele>22.25</ele>
        <time>2014-02-16T09:27:34Z</time>
      </trkpt>
      <trkpt lat="47.22123" lon="-1.5785">
        <ele>22.25</ele>
        <time>2014-02-16T09:27:35Z</time>
      </trkpt>
      <trkpt lat="47.22131" lon="-1.57853">
        <ele>22.25</ele>
        <time>2014-02-16T09:27:37Z</time>
      </trkpt>
      <trkpt lat="47.22135" lon="-1.57855">
        <ele>22.73</ele>
        <time>2014-02-16T09:27:38Z</time>
      </trkpt>
      <trkpt lat="47.2214" lon="-1.57858">
        <ele>23.21</ele>
        <time>2014-02-16T09:27:40Z</time>
      </trkpt>
      <trkpt lat="47.22139" lon="-1.57859">
        <ele>23.21</ele>
        <time>2014-02-16T09:27:42Z</time>
      </trkpt>
      <trkpt lat="47.22137" lon="-1.57858">
        <ele>23.21</ele>
        <time>2014-02-16T09:27:43Z</time>
      </trkpt>
      <trkpt lat="47.22135" lon="-1.57857">
        <ele>23.21</ele>
        <time>2014-02-16T09:27:44Z</time>
      </trkpt>
      <trkpt lat="47.22131" lon="-1.57855">
        <ele>23.21</ele>
        <time>2014-02-16T09:27:45Z</time>
      </trkpt>
      <trkpt lat="47.22127" lon="-1.57853">
        <ele>22.73</ele>
        <time>2014-02-16T09:27:46Z</time>
      </trkpt>
      <trkpt lat="47.22101" lon="-1.57852">
        <ele>22.25</ele>
        <time>2014-02-16T09:27:54Z</time>
      </trkpt>
      <trkpt lat="47.22077" lon="-1.57865">
        <ele>21.77</ele>
        <time>2014-02-16T09:28:00Z</time>
      </trkpt>
      <trkpt lat="47.22071" lon="-1.57866">
        <ele>21.77</ele>
        <time>2014-02-16T09:28:01Z</time>
      </trkpt>
      <trkpt lat="47.22065" lon="-1.57865">
        <ele>21.29</ele>
        <time>2014-02-16T09:28:02Z</time>
      </trkpt>
      <trkpt lat="47.22059" lon="-1.57862">
        <ele>21.29</ele>
        <time>2014-02-16T09:28:03Z</time>
      </trkpt>
      <trkpt lat="47.22054" lon="-1.57857">
        <ele>20.81</ele>
        <time>2014-02-16T09:28:04Z</time>
      </trkpt>
      <trkpt lat="47.22049" lon="-1.57851">
        <ele>20.81</ele>
        <time>2014-02-16T09:28:05Z</time>
      </trkpt>
      <trkpt lat="47.22041" lon="-1.57838">
        <ele>20.32</ele>
        <time>2014-02-16T09:28:07Z</time>
      </trkpt>
      <trkpt lat="47.22037" lon="-1.5783">
        <ele>20.32</ele>
        <time>2014-02-16T09:28:08Z</time>
      </trkpt>
      <trkpt lat="47.22036" lon="-1.57822">
        <ele>20.32</ele>
        <time>2014-02-16T09:28:09Z</time>
      </trkpt>
      <trkpt lat="47.22035" lon="-1.57814">
        <ele>20.81</ele>
        <time>2014-02-16T09:28:10Z</time>
      </trkpt>
      <trkpt lat="47.22035" lon="-1.57807">
        <ele>20.81</ele>
        <time>2014-02-16T09:28:11Z</time>
      </trkpt>
      <trkpt lat="47.22034" lon="-1.57757">
        <ele>20.32</ele>
        <time>2014-02-16T09:28:17Z</time>
      </trkpt>
      <trkpt lat="47.22031" lon="-1.5775">
        <ele>20.32</ele>
        <time>2014-02-16T09:28:18Z</time>
      </trkpt>
      <trkpt lat="47.22027" lon="-1.57743">
        <ele>19.84</ele>
        <time>2014-02-16T09:28:19Z</time>
      </trkpt>
      <trkpt lat="47.22022" lon="-1.57739">
        <ele>19.84</ele>
        <time>2014-02-16T09:28:20Z</time>
      </trkpt>
      <trkpt lat="47.22017" lon="-1.57736">
        <ele>19.84</ele>
        <time>2014-02-16T09:28:21Z</time>
      </trkpt>
      <trkpt lat="47.22011" lon="-1.57733">
        <ele>19.36</ele>
        <time>2014-02-16T09:28:22Z</time>
      </trkpt>
      <trkpt lat="47.22007" lon="-1.57731">
        <ele>19.36</ele>
        <time>2014-02-16T09:28:23Z</time>
      </trkpt>
      <trkpt lat="47.21989" lon="-1.57716">
        <ele>19.84</ele>
        <time>2014-02-16T09:28:30Z</time>
      </trkpt>
      <trkpt lat="47.21978" lon="-1.57695">
        <ele>20.32</ele>
        <time>2014-02-16T09:28:37Z</time>
      </trkpt>
      <trkpt lat="47.21973" lon="-1.57682">
        <ele>20.32</ele>
        <time>2014-02-16T09:28:39Z</time>
      </trkpt>
      <trkpt lat="47.21972" lon="-1.57674">
        <ele>19.84</ele>
        <time>2014-02-16T09:28:40Z</time>
      </trkpt>
      <trkpt lat="47.21969" lon="-1.57667">
        <ele>19.84</ele>
        <time>2014-02-16T09:28:41Z</time>
      </trkpt>
      <trkpt lat="47.21966" lon="-1.5766">
        <ele>19.36</ele>
        <time>2014-02-16T09:28:42Z</time>
      </trkpt>
      <trkpt lat="47.21963" lon="-1.57653">
        <ele>18.88</ele>
        <time>2014-02-16T09:28:43Z</time>
      </trkpt>
      <trkpt lat="47.21961" lon="-1.57645">
        <ele>18.4</ele>
        <time>2014-02-16T09:28:44Z</time>
      </trkpt>
      <trkpt lat="47.2196" lon="-1.57637">
        <ele>18.4</ele>
        <time>2014-02-16T09:28:45Z</time>
      </trkpt>
      <trkpt lat="47.21958" lon="-1.57631">
        <ele>17.92</ele>
        <time>2014-02-16T09:28:46Z</time>
      </trkpt>
      <trkpt lat="47.21954" lon="-1.57626">
        <ele>17.44</ele>
        <time>2014-02-16T09:28:47Z</time>
      </trkpt>
      <trkpt lat="47.21949" lon="-1.57623">
        <ele>17.44</ele>
        <time>2014-02-16T09:28:48Z</time>
      </trkpt>
      <trkpt lat="47.21944" lon="-1.57622">
        <ele>16.96</ele>
        <time>2014-02-16T09:28:49Z</time>
      </trkpt>
      <trkpt lat="47.2194" lon="-1.57621">
        <ele>16.96</ele>
        <time>2014-02-16T09:28:50Z</time>
      </trkpt>
      <trkpt lat="47.21936" lon="-1.57619">
        <ele>16.96</ele>
        <time>2014-02-16T09:28:51Z</time>
      </trkpt>
      <trkpt lat="47.21934" lon="-1.57618">
        <ele>16.96</ele>
        <time>2014-02-16T09:28:52Z</time>
      </trkpt>
      <trkpt lat="47.21931" lon="-1.57614">
        <ele>16.96</ele>
        <time>2014-02-16T09:28:53Z</time>
      </trkpt>
      <trkpt lat="47.21929" lon="-1.5761">
        <ele>16.96</ele>
        <time>2014-02-16T09:28:54Z</time>
      </trkpt>
      <trkpt lat="47.21928" lon="-1.57604">
        <ele>16.96</ele>
        <time>2014-02-16T09:28:55Z</time>
      </trkpt>
      <trkpt lat="47.21928" lon="-1.57597">
        <ele>16.48</ele>
        <time>2014-02-16T09:28:56Z</time>
      </trkpt>
      <trkpt lat="47.21928" lon="-1.57591">
        <ele>16</ele>
        <time>2014-02-16T09:28:57Z</time>
      </trkpt>
      <trkpt lat="47.21928" lon="-1.57584">
        <ele>16</ele>
        <time>2014-02-16T09:28:58Z</time>
      </trkpt>
      <trkpt lat="47.21925" lon="-1.57563">
        <ele>16</ele>
        <time>2014-02-16T09:29:01Z</time>
      </trkpt>
      <trkpt lat="47.21924" lon="-1.57556">
        <ele>16</ele>
        <time>2014-02-16T09:29:02Z</time>
      </trkpt>
      <trkpt lat="47.21905" lon="-1.57512">
        <ele>15.04</ele>
        <time>2014-02-16T09:29:11Z</time>
      </trkpt>
      <trkpt lat="47.21899" lon="-1.57495">
        <ele>16.48</ele>
        <time>2014-02-16T09:29:16Z</time>
      </trkpt>
      <trkpt lat="47.21896" lon="-1.57493">
        <ele>16.48</ele>
        <time>2014-02-16T09:29:17Z</time>
      </trkpt>
      <trkpt lat="47.21892" lon="-1.57491">
        <ele>16.48</ele>
        <time>2014-02-16T09:29:18Z</time>
      </trkpt>
      <trkpt lat="47.21889" lon="-1.57488">
        <ele>16.48</ele>
        <time>2014-02-16T09:29:19Z</time>
      </trkpt>
      <trkpt lat="47.21886" lon="-1.57486">
        <ele>16.48</ele>
        <time>2014-02-16T09:29:20Z</time>
      </trkpt>
      <trkpt lat="47.21883" lon="-1.57484">
        <ele>16.48</ele>
        <time>2014-02-16T09:29:21Z</time>
      </trkpt>
      <trkpt lat="47.21881" lon="-1.57482">
        <ele>16.48</ele>
        <time>2014-02-16T09:29:22Z</time>
      </trkpt>
      <trkpt lat="47.2188" lon="-1.5748">
        <ele>16.48</ele>
        <time>2014-02-16T09:29:23Z</time>
      </trkpt>
      <trkpt lat="47.21879" lon="-1.57477">
        <ele>16.96</ele>
        <time>2014-02-16T09:29:24Z</time>
      </trkpt>
      <trkpt lat="47.21868" lon="-1.57454">
        <ele>17.92</ele>
        <time>2014-02-16T09:29:29Z</time>
      </trkpt>
      <trkpt lat="47.21865" lon="-1.5745">
        <ele>17.92</ele>
        <time>2014-02-16T09:29:30Z</time>
      </trkpt>
      <trkpt lat="47.21862" lon="-1.57447">
        <ele>18.4</ele>
        <time>2014-02-16T09:29:31Z</time>
      </trkpt>
      <trkpt lat="47.21861" lon="-1.57445">
        <ele>18.4</ele>
        <time>2014-02-16T09:29:32Z</time>
      </trkpt>
      <trkpt lat="47.21859" lon="-1.57444">
        <ele>18.88</ele>
        <time>2014-02-16T09:29:33Z</time>
      </trkpt>
      <trkpt lat="47.21858" lon="-1.57442">
        <ele>19.36</ele>
        <time>2014-02-16T09:29:34Z</time>
      </trkpt>
      <trkpt lat="47.21856" lon="-1.5744">
        <ele>20.32</ele>
        <time>2014-02-16T09:29:35Z</time>
      </trkpt>
      <trkpt lat="47.21855" lon="-1.57439">
        <ele>20.81</ele>
        <time>2014-02-16T09:29:36Z</time>
      </trkpt>
      <trkpt lat="47.21853" lon="-1.57438">
        <ele>21.29</ele>
        <time>2014-02-16T09:29:37Z</time>
      </trkpt>
      <trkpt lat="47.21849" lon="-1.57435">
        <ele>21.77</ele>
        <time>2014-02-16T09:29:40Z</time>
      </trkpt>
      <trkpt lat="47.21847" lon="-1.57434">
        <ele>21.77</ele>
        <time>2014-02-16T09:29:41Z</time>
      </trkpt>
      <trkpt lat="47.21846" lon="-1.57432">
        <ele>21.29</ele>
        <time>2014-02-16T09:29:42Z</time>
      </trkpt>
      <trkpt lat="47.21844" lon="-1.57427">
        <ele>22.25</ele>
        <time>2014-02-16T09:29:45Z</time>
      </trkpt>
      <trkpt lat="47.21833" lon="-1.57409">
        <ele>22.25</ele>
        <time>2014-02-16T09:29:56Z</time>
      </trkpt>
      <trkpt lat="47.21811" lon="-1.57376">
        <ele>24.65</ele>
        <time>2014-02-16T09:30:04Z</time>
      </trkpt>
      <trkpt lat="47.21805" lon="-1.57365">
        <ele>24.65</ele>
        <time>2014-02-16T09:30:06Z</time>
      </trkpt>
      <trkpt lat="47.21782" lon="-1.57351">
        <ele>26.09</ele>
        <time>2014-02-16T09:30:11Z</time>
      </trkpt>
      <trkpt lat="47.21773" lon="-1.5735">
        <ele>26.57</ele>
        <time>2014-02-16T09:30:13Z</time>
      </trkpt>
      <trkpt lat="47.21729" lon="-1.57355">
        <ele>24.65</ele>
        <time>2014-02-16T09:30:22Z</time>
      </trkpt>
      <trkpt lat="47.21696" lon="-1.57381">
        <ele>23.69</ele>
        <time>2014-02-16T09:30:29Z</time>
      </trkpt>
      <trkpt lat="47.21677" lon="-1.57407">
        <ele>24.17</ele>
        <time>2014-02-16T09:30:36Z</time>
      </trkpt>
      <trkpt lat="47.2167" lon="-1.57416">
        <ele>25.13</ele>
        <time>2014-02-16T09:30:38Z</time>
      </trkpt>
      <trkpt lat="47.21666" lon="-1.57418">
        <ele>25.13</ele>
        <time>2014-02-16T09:30:39Z</time>
      </trkpt>
      <trkpt lat="47.21662" lon="-1.5742">
        <ele>25.13</ele>
        <time>2014-02-16T09:30:40Z</time>
      </trkpt>
      <trkpt lat="47.21658" lon="-1.57421">
        <ele>25.13</ele>
        <time>2014-02-16T09:30:41Z</time>
      </trkpt>
      <trkpt lat="47.21643" lon="-1.57425">
        <ele>24.65</ele>
        <time>2014-02-16T09:30:44Z</time>
      </trkpt>
      <trkpt lat="47.2163" lon="-1.57428">
        <ele>23.69</ele>
        <time>2014-02-16T09:30:47Z</time>
      </trkpt>
      <trkpt lat="47.21626" lon="-1.57428">
        <ele>23.69</ele>
        <time>2014-02-16T09:30:48Z</time>
      </trkpt>
      <trkpt lat="47.21622" lon="-1.57426">
        <ele>23.69</ele>
        <time>2014-02-16T09:30:49Z</time>
      </trkpt>
      <trkpt lat="47.21611" lon="-1.57417">
        <ele>23.69</ele>
        <time>2014-02-16T09:30:52Z</time>
      </trkpt>
      <trkpt lat="47.21608" lon="-1.57412">
        <ele>24.17</ele>
        <time>2014-02-16T09:30:53Z</time>
      </trkpt>
      <trkpt lat="47.21604" lon="-1.57408">
        <ele>24.17</ele>
        <time>2014-02-16T09:30:54Z</time>
      </trkpt>
      <trkpt lat="47.21582" lon="-1.57377">
        <ele>26.09</ele>
        <time>2014-02-16T09:31:02Z</time>
      </trkpt>
      <trkpt lat="47.21575" lon="-1.57357">
        <ele>27.53</ele>
        <time>2014-02-16T09:31:06Z</time>
      </trkpt>
      <trkpt lat="47.21585" lon="-1.57334">
        <ele>22.73</ele>
        <time>2014-02-16T09:31:14Z</time>
      </trkpt>
      <trkpt lat="47.21589" lon="-1.57324">
        <ele>20.32</ele>
        <time>2014-02-16T09:31:19Z</time>
      </trkpt>
      <trkpt lat="47.21588" lon="-1.57318">
        <ele>19.84</ele>
        <time>2014-02-16T09:31:21Z</time>
      </trkpt>
      <trkpt lat="47.21586" lon="-1.5731">
        <ele>18.88</ele>
        <time>2014-02-16T09:31:24Z</time>
      </trkpt>
      <trkpt lat="47.21583" lon="-1.57308">
        <ele>18.88</ele>
        <time>2014-02-16T09:31:25Z</time>
      </trkpt>
      <trkpt lat="47.2158" lon="-1.57304">
        <ele>18.88</ele>
        <time>2014-02-16T09:31:26Z</time>
      </trkpt>
      <trkpt lat="47.21577" lon="-1.573">
        <ele>18.4</ele>
        <time>2014-02-16T09:31:27Z</time>
      </trkpt>
      <trkpt lat="47.21574" lon="-1.57297">
        <ele>18.4</ele>
        <time>2014-02-16T09:31:28Z</time>
      </trkpt>
      <trkpt lat="47.2157" lon="-1.57294">
        <ele>18.4</ele>
        <time>2014-02-16T09:31:29Z</time>
      </trkpt>
      <trkpt lat="47.21567" lon="-1.57291">
        <ele>18.4</ele>
        <time>2014-02-16T09:31:30Z</time>
      </trkpt>
      <trkpt lat="47.21564" lon="-1.57287">
        <ele>18.4</ele>
        <time>2014-02-16T09:31:31Z</time>
      </trkpt>
      <trkpt lat="47.21528" lon="-1.5725">
        <ele>17.44</ele>
        <time>2014-02-16T09:31:42Z</time>
      </trkpt>
      <trkpt lat="47.21514" lon="-1.57236">
        <ele>17.44</ele>
        <time>2014-02-16T09:31:50Z</time>
      </trkpt>
      <trkpt lat="47.21512" lon="-1.57236">
        <ele>17.44</ele>
        <time>2014-02-16T09:31:51Z</time>
      </trkpt>
      <trkpt lat="47.21509" lon="-1.57237">
        <ele>16.96</ele>
        <time>2014-02-16T09:31:52Z</time>
      </trkpt>
      <trkpt lat="47.21506" lon="-1.57239">
        <ele>16.96</ele>
        <time>2014-02-16T09:31:53Z</time>
      </trkpt>
      <trkpt lat="47.21503" lon="-1.57242">
        <ele>16.48</ele>
        <time>2014-02-16T09:31:54Z</time>
      </trkpt>
      <trkpt lat="47.21496" lon="-1.57248">
        <ele>16.48</ele>
        <time>2014-02-16T09:31:56Z</time>
      </trkpt>
      <trkpt lat="47.21474" lon="-1.5727">
        <ele>16.96</ele>
        <time>2014-02-16T09:32:05Z</time>
      </trkpt>
      <trkpt lat="47.21471" lon="-1.57272">
        <ele>17.44</ele>
        <time>2014-02-16T09:32:06Z</time>
      </trkpt>
      <trkpt lat="47.21457" lon="-1.57282">
        <ele>19.84</ele>
        <time>2014-02-16T09:32:14Z</time>
      </trkpt>
      <trkpt lat="47.2145" lon="-1.57267">
        <ele>21.29</ele>
        <time>2014-02-16T09:32:20Z</time>
      </trkpt>
      <trkpt lat="47.21445" lon="-1.57212">
        <ele>22.25</ele>
        <time>2014-02-16T09:32:31Z</time>
      </trkpt>
      <trkpt lat="47.21445" lon="-1.57201">
        <ele>22.73</ele>
        <time>2014-02-16T09:32:33Z</time>
      </trkpt>
      <trkpt lat="47.21444" lon="-1.57159">
        <ele>24.65</ele>
        <time>2014-02-16T09:32:41Z</time>
      </trkpt>
      <trkpt lat="47.21434" lon="-1.5709">
        <ele>28.02</ele>
        <time>2014-02-16T09:32:54Z</time>
      </trkpt>
      <trkpt lat="47.21435" lon="-1.57032">
        <ele>28.02</ele>
        <time>2014-02-16T09:33:05Z</time>
      </trkpt>
      <trkpt lat="47.21438" lon="-1.56955">
        <ele>28.02</ele>
        <time>2014-02-16T09:33:19Z</time>
      </trkpt>
      <trkpt lat="47.21445" lon="-1.56889">
        <ele>30.42</ele>
        <time>2014-02-16T09:33:31Z</time>
      </trkpt>
      <trkpt lat="47.21452" lon="-1.56842">
        <ele>32.82</ele>
        <time>2014-02-16T09:33:40Z</time>
      </trkpt>
      <trkpt lat="47.21459" lon="-1.56803">
        <ele>34.26</ele>
        <time>2014-02-16T09:33:49Z</time>
      </trkpt>
      <trkpt lat="47.21457" lon="-1.56786">
        <ele>35.23</ele>
        <time>2014-02-16T09:33:56Z</time>
      </trkpt>
      <trkpt lat="47.21456" lon="-1.56784">
        <ele>33.78</ele>
        <time>2014-02-16T09:34:07Z</time>
      </trkpt>
      <trkpt lat="47.21456" lon="-1.56767">
        <ele>35.71</ele>
        <time>2014-02-16T09:34:15Z</time>
      </trkpt>
      <trkpt lat="47.21459" lon="-1.56727">
        <ele>39.55</ele>
        <time>2014-02-16T09:34:24Z</time>
      </trkpt>
      <trkpt lat="47.2146" lon="-1.56701">
        <ele>41.95</ele>
        <time>2014-02-16T09:34:34Z</time>
      </trkpt>
      <trkpt lat="47.21465" lon="-1.56686">
        <ele>42.92</ele>
        <time>2014-02-16T09:34:46Z</time>
      </trkpt>
      <trkpt lat="47.21468" lon="-1.56664">
        <ele>42.92</ele>
        <time>2014-02-16T09:34:56Z</time>
      </trkpt>
      <trkpt lat="47.21468" lon="-1.56634">
        <ele>40.99</ele>
        <time>2014-02-16T09:35:07Z</time>
      </trkpt>
      <trkpt lat="47.21464" lon="-1.5663">
        <ele>40.51</ele>
        <time>2014-02-16T09:35:19Z</time>
      </trkpt>
      <trkpt lat="47.21465" lon="-1.56621">
        <ele>39.07</ele>
        <time>2014-02-16T09:35:34Z</time>
      </trkpt>
      <trkpt lat="47.21465" lon="-1.56618">
        <ele>39.07</ele>
        <time>2014-02-16T09:35:35Z</time>
      </trkpt>
      <trkpt lat="47.21466" lon="-1.56616">
        <ele>39.07</ele>
        <time>2014-02-16T09:35:36Z</time>
      </trkpt>
      <trkpt lat="47.21467" lon="-1.56613">
        <ele>39.07</ele>
        <time>2014-02-16T09:35:37Z</time>
      </trkpt>
      <trkpt lat="47.21467" lon="-1.5661">
        <ele>39.07</ele>
        <time>2014-02-16T09:35:38Z</time>
      </trkpt>
      <trkpt lat="47.21467" lon="-1.56608">
        <ele>39.07</ele>
        <time>2014-02-16T09:35:39Z</time>
      </trkpt>
      <trkpt lat="47.21467" lon="-1.56604">
        <ele>39.07</ele>
        <time>2014-02-16T09:35:40Z</time>
      </trkpt>
      <trkpt lat="47.21473" lon="-1.56569">
        <ele>37.63</ele>
        <time>2014-02-16T09:35:50Z</time>
      </trkpt>
      <trkpt lat="47.21477" lon="-1.56551">
        <ele>36.67</ele>
        <time>2014-02-16T09:36:00Z</time>
      </trkpt>
      <trkpt lat="47.21477" lon="-1.56539">
        <ele>36.19</ele>
        <time>2014-02-16T09:36:11Z</time>
      </trkpt>
      <trkpt lat="47.21484" lon="-1.56509">
        <ele>37.15</ele>
        <time>2014-02-16T09:36:17Z</time>
      </trkpt>
      <trkpt lat="47.21487" lon="-1.56493">
        <ele>37.15</ele>
        <time>2014-02-16T09:36:20Z</time>
      </trkpt>
      <trkpt lat="47.21495" lon="-1.56427">
        <ele>36.67</ele>
        <time>2014-02-16T09:36:31Z</time>
      </trkpt>
      <trkpt lat="47.21499" lon="-1.56402">
        <ele>37.15</ele>
        <time>2014-02-16T09:36:40Z</time>
      </trkpt>
      <trkpt lat="47.215" lon="-1.564">
        <ele>36.67</ele>
        <time>2014-02-16T09:36:53Z</time>
      </trkpt>
      <trkpt lat="47.21501" lon="-1.564">
        <ele>36.67</ele>
        <time>2014-02-16T09:37:10Z</time>
      </trkpt>
      <trkpt lat="47.21503" lon="-1.56387">
        <ele>36.67</ele>
        <time>2014-02-16T09:37:21Z</time>
      </trkpt>
      <trkpt lat="47.21507" lon="-1.5636">
        <ele>35.71</ele>
        <time>2014-02-16T09:37:26Z</time>
      </trkpt>
      <trkpt lat="47.21508" lon="-1.56354">
        <ele>35.71</ele>
        <time>2014-02-16T09:37:27Z</time>
      </trkpt>
      <trkpt lat="47.21511" lon="-1.56335">
        <ele>34.74</ele>
        <time>2014-02-16T09:37:30Z</time>
      </trkpt>
      <trkpt lat="47.21512" lon="-1.56328">
        <ele>34.74</ele>
        <time>2014-02-16T09:37:31Z</time>
      </trkpt>
      <trkpt lat="47.2153" lon="-1.56241">
        <ele>30.9</ele>
        <time>2014-02-16T09:37:42Z</time>
      </trkpt>
      <trkpt lat="47.2155" lon="-1.56119">
        <ele>28.98</ele>
        <time>2014-02-16T09:37:54Z</time>
      </trkpt>
      <trkpt lat="47.21559" lon="-1.56053">
        <ele>27.05</ele>
        <time>2014-02-16T09:38:00Z</time>
      </trkpt>
      <trkpt lat="47.21575" lon="-1.55959">
        <ele>28.02</ele>
        <time>2014-02-16T09:38:09Z</time>
      </trkpt>
      <trkpt lat="47.21591" lon="-1.55841">
        <ele>28.02</ele>
        <time>2014-02-16T09:38:21Z</time>
      </trkpt>
      <trkpt lat="47.21603" lon="-1.55747">
        <ele>23.21</ele>
        <time>2014-02-16T09:38:30Z</time>
      </trkpt>
      <trkpt lat="47.21606" lon="-1.55726">
        <ele>21.77</ele>
        <time>2014-02-16T09:38:32Z</time>
      </trkpt>
      <trkpt lat="47.21609" lon="-1.55709">
        <ele>20.32</ele>
        <time>2014-02-16T09:38:34Z</time>
      </trkpt>
      <trkpt lat="47.2161" lon="-1.55701">
        <ele>20.32</ele>
        <time>2014-02-16T09:38:35Z</time>
      </trkpt>
      <trkpt lat="47.21614" lon="-1.55665">
        <ele>17.92</ele>
        <time>2014-02-16T09:38:42Z</time>
      </trkpt>
      <trkpt lat="47.21613" lon="-1.55659">
        <ele>17.44</ele>
        <time>2014-02-16T09:38:43Z</time>
      </trkpt>
      <trkpt lat="47.21614" lon="-1.55654">
        <ele>17.44</ele>
        <time>2014-02-16T09:38:44Z</time>
      </trkpt>
      <trkpt lat="47.21616" lon="-1.55651">
        <ele>17.44</ele>
        <time>2014-02-16T09:38:45Z</time>
      </trkpt>
      <trkpt lat="47.21619" lon="-1.5565">
        <ele>17.44</ele>
        <time>2014-02-16T09:38:46Z</time>
      </trkpt>
      <trkpt lat="47.21622" lon="-1.55649">
        <ele>16.96</ele>
        <time>2014-02-16T09:38:47Z</time>
      </trkpt>
      <trkpt lat="47.21627" lon="-1.55651">
        <ele>16.48</ele>
        <time>2014-02-16T09:38:48Z</time>
      </trkpt>
      <trkpt lat="47.21631" lon="-1.55655">
        <ele>16</ele>
        <time>2014-02-16T09:38:49Z</time>
      </trkpt>
      <trkpt lat="47.21634" lon="-1.55659">
        <ele>15.52</ele>
        <time>2014-02-16T09:38:50Z</time>
      </trkpt>
      <trkpt lat="47.21638" lon="-1.55663">
        <ele>15.52</ele>
        <time>2014-02-16T09:38:51Z</time>
      </trkpt>
      <trkpt lat="47.21642" lon="-1.55667">
        <ele>15.04</ele>
        <time>2014-02-16T09:38:52Z</time>
      </trkpt>
      <trkpt lat="47.21647" lon="-1.55669">
        <ele>14.56</ele>
        <time>2014-02-16T09:38:53Z</time>
      </trkpt>
      <trkpt lat="47.21694" lon="-1.55686">
        <ele>12.63</ele>
        <time>2014-02-16T09:39:02Z</time>
      </trkpt>
      <trkpt lat="47.217" lon="-1.55688">
        <ele>12.63</ele>
        <time>2014-02-16T09:39:03Z</time>
      </trkpt>
      <trkpt lat="47.21705" lon="-1.55689">
        <ele>12.63</ele>
        <time>2014-02-16T09:39:04Z</time>
      </trkpt>
      <trkpt lat="47.21709" lon="-1.55691">
        <ele>12.63</ele>
        <time>2014-02-16T09:39:05Z</time>
      </trkpt>
      <trkpt lat="47.21713" lon="-1.55693">
        <ele>12.63</ele>
        <time>2014-02-16T09:39:06Z</time>
      </trkpt>
      <trkpt lat="47.21718" lon="-1.55694">
        <ele>12.63</ele>
        <time>2014-02-16T09:39:07Z</time>
      </trkpt>
      <trkpt lat="47.21722" lon="-1.55696">
        <ele>12.63</ele>
        <time>2014-02-16T09:39:08Z</time>
      </trkpt>
      <trkpt lat="47.21749" lon="-1.55705">
        <ele>11.67</ele>
        <time>2014-02-16T09:39:16Z</time>
      </trkpt>
      <trkpt lat="47.21757" lon="-1.55706">
        <ele>11.19</ele>
        <time>2014-02-16T09:39:18Z</time>
      </trkpt>
      <trkpt lat="47.21761" lon="-1.55707">
        <ele>11.19</ele>
        <time>2014-02-16T09:39:19Z</time>
      </trkpt>
      <trkpt lat="47.21774" lon="-1.55709">
        <ele>11.67</ele>
        <time>2014-02-16T09:39:22Z</time>
      </trkpt>
      <trkpt lat="47.21803" lon="-1.55715">
        <ele>10.71</ele>
        <time>2014-02-16T09:39:28Z</time>
      </trkpt>
      <trkpt lat="47.21826" lon="-1.55715">
        <ele>9.75</ele>
        <time>2014-02-16T09:39:33Z</time>
      </trkpt>
      <trkpt lat="47.2184" lon="-1.55713">
        <ele>9.27</ele>
        <time>2014-02-16T09:39:36Z</time>
      </trkpt>
      <trkpt lat="47.21861" lon="-1.55705">
        <ele>10.23</ele>
        <time>2014-02-16T09:39:41Z</time>
      </trkpt>
      <trkpt lat="47.21894" lon="-1.5568">
        <ele>10.71</ele>
        <time>2014-02-16T09:39:49Z</time>
      </trkpt>
      <trkpt lat="47.21909" lon="-1.55661">
        <ele>10.23</ele>
        <time>2014-02-16T09:39:52Z</time>
      </trkpt>
      <trkpt lat="47.21913" lon="-1.55654">
        <ele>10.23</ele>
        <time>2014-02-16T09:39:53Z</time>
      </trkpt>
      <trkpt lat="47.21926" lon="-1.5563">
        <ele>9.75</ele>
        <time>2014-02-16T09:39:56Z</time>
      </trkpt>
      <trkpt lat="47.2193" lon="-1.55624">
        <ele>9.75</ele>
        <time>2014-02-16T09:39:57Z</time>
      </trkpt>
      <trkpt lat="47.21935" lon="-1.55618">
        <ele>10.23</ele>
        <time>2014-02-16T09:39:58Z</time>
      </trkpt>
      <trkpt lat="47.21943" lon="-1.55605">
        <ele>10.23</ele>
        <time>2014-02-16T09:40:00Z</time>
      </trkpt>
      <trkpt lat="47.21947" lon="-1.55598">
        <ele>10.23</ele>
        <time>2014-02-16T09:40:01Z</time>
      </trkpt>
      <trkpt lat="47.21963" lon="-1.55576">
        <ele>11.19</ele>
        <time>2014-02-16T09:40:05Z</time>
      </trkpt>
      <trkpt lat="47.21969" lon="-1.55566">
        <ele>11.67</ele>
        <time>2014-02-16T09:40:07Z</time>
      </trkpt>
      <trkpt lat="47.21971" lon="-1.55562">
        <ele>11.67</ele>
        <time>2014-02-16T09:40:08Z</time>
      </trkpt>
      <trkpt lat="47.21974" lon="-1.55556">
        <ele>11.67</ele>
        <time>2014-02-16T09:40:09Z</time>
      </trkpt>
      <trkpt lat="47.21978" lon="-1.55551">
        <ele>11.67</ele>
        <time>2014-02-16T09:40:10Z</time>
      </trkpt>
      <trkpt lat="47.21981" lon="-1.55545">
        <ele>11.67</ele>
        <time>2014-02-16T09:40:11Z</time>
      </trkpt>
      <trkpt lat="47.21984" lon="-1.5554">
        <ele>11.67</ele>
        <time>2014-02-16T09:40:12Z</time>
      </trkpt>
      <trkpt lat="47.21987" lon="-1.55534">
        <ele>11.19</ele>
        <time>2014-02-16T09:40:13Z</time>
      </trkpt>
      <trkpt lat="47.21999" lon="-1.55502">
        <ele>11.19</ele>
        <time>2014-02-16T09:40:21Z</time>
      </trkpt>
      <trkpt lat="47.22003" lon="-1.55491">
        <ele>11.67</ele>
        <time>2014-02-16T09:40:30Z</time>
      </trkpt>
      <trkpt lat="47.22009" lon="-1.55475">
        <ele>11.67</ele>
        <time>2014-02-16T09:40:35Z</time>
      </trkpt>
      <trkpt lat="47.22012" lon="-1.55473">
        <ele>11.67</ele>
        <time>2014-02-16T09:40:36Z</time>
      </trkpt>
      <trkpt lat="47.22015" lon="-1.55471">
        <ele>12.15</ele>
        <time>2014-02-16T09:40:37Z</time>
      </trkpt>
      <trkpt lat="47.22018" lon="-1.55469">
        <ele>11.67</ele>
        <time>2014-02-16T09:40:38Z</time>
      </trkpt>
      <trkpt lat="47.22021" lon="-1.55468">
        <ele>11.67</ele>
        <time>2014-02-16T09:40:39Z</time>
      </trkpt>
      <trkpt lat="47.22039" lon="-1.55465">
        <ele>12.15</ele>
        <time>2014-02-16T09:40:49Z</time>
      </trkpt>
      <trkpt lat="47.2204" lon="-1.55466">
        <ele>12.63</ele>
        <time>2014-02-16T09:40:59Z</time>
      </trkpt>
      <trkpt lat="47.22039" lon="-1.55466">
        <ele>11.67</ele>
        <time>2014-02-16T09:41:09Z</time>
      </trkpt>
      <trkpt lat="47.22044" lon="-1.55463">
        <ele>11.19</ele>
        <time>2014-02-16T09:41:22Z</time>
      </trkpt>
      <trkpt lat="47.22046" lon="-1.55461">
        <ele>11.67</ele>
        <time>2014-02-16T09:41:24Z</time>
      </trkpt>
      <trkpt lat="47.22049" lon="-1.55459">
        <ele>11.19</ele>
        <time>2014-02-16T09:41:31Z</time>
      </trkpt>
      <trkpt lat="47.2205" lon="-1.55459">
        <ele>10.23</ele>
        <time>2014-02-16T09:41:49Z</time>
      </trkpt>
      <trkpt lat="47.2205" lon="-1.55459">
        <ele>11.19</ele>
        <time>2014-02-16T09:42:08Z</time>
      </trkpt>
      <trkpt lat="47.22048" lon="-1.55459">
        <ele>11.67</ele>
        <time>2014-02-16T09:42:28Z</time>
      </trkpt>
      <trkpt lat="47.22048" lon="-1.55463">
        <ele>12.15</ele>
        <time>2014-02-16T09:42:51Z</time>
      </trkpt>
      <trkpt lat="47.22051" lon="-1.55463">
        <ele>10.71</ele>
        <time>2014-02-16T09:43:02Z</time>
      </trkpt>
      <trkpt lat="47.22052" lon="-1.55462">
        <ele>10.23</ele>
        <time>2014-02-16T09:43:19Z</time>
      </trkpt>
      <trkpt lat="47.22052" lon="-1.55463">
        <ele>10.71</ele>
        <time>2014-02-16T09:43:33Z</time>
      </trkpt>
      <trkpt lat="47.22053" lon="-1.55464">
        <ele>11.67</ele>
        <time>2014-02-16T09:43:46Z</time>
      </trkpt>
      <trkpt lat="47.22053" lon="-1.55463">
        <ele>11.67</ele>
        <time>2014-02-16T09:43:52Z</time>
      </trkpt>
      <trkpt lat="47.22054" lon="-1.55465">
        <ele>11.67</ele>
        <time>2014-02-16T09:44:02Z</time>
      </trkpt>
      <trkpt lat="47.22054" lon="-1.55468">
        <ele>12.15</ele>
        <time>2014-02-16T09:44:13Z</time>
      </trkpt>
      <trkpt lat="47.22056" lon="-1.5548">
        <ele>12.15</ele>
        <time>2014-02-16T09:44:23Z</time>
      </trkpt>
      <trkpt lat="47.22059" lon="-1.55487">
        <ele>12.15</ele>
        <time>2014-02-16T09:44:32Z</time>
      </trkpt>
      <trkpt lat="47.2206" lon="-1.55489">
        <ele>11.67</ele>
        <time>2014-02-16T09:44:46Z</time>
      </trkpt>
      <trkpt lat="47.2206" lon="-1.55491">
        <ele>12.63</ele>
        <time>2014-02-16T09:45:07Z</time>
      </trkpt>
      <trkpt lat="47.22061" lon="-1.5549">
        <ele>12.15</ele>
        <time>2014-02-16T09:45:13Z</time>
      </trkpt>
      <trkpt lat="47.22078" lon="-1.55464">
        <ele>11.19</ele>
        <time>2014-02-16T09:45:24Z</time>
      </trkpt>
      <trkpt lat="47.22089" lon="-1.55451">
        <ele>11.19</ele>
        <time>2014-02-16T09:45:28Z</time>
      </trkpt>
      <trkpt lat="47.22116" lon="-1.5541">
        <ele>9.27</ele>
        <time>2014-02-16T09:45:37Z</time>
      </trkpt>
      <trkpt lat="47.22129" lon="-1.55396">
        <ele>8.79</ele>
        <time>2014-02-16T09:45:41Z</time>
      </trkpt>
      <trkpt lat="47.22136" lon="-1.55388">
        <ele>8.79</ele>
        <time>2014-02-16T09:45:43Z</time>
      </trkpt>
      <trkpt lat="47.22154" lon="-1.55368">
        <ele>8.31</ele>
        <time>2014-02-16T09:45:48Z</time>
      </trkpt>
      <trkpt lat="47.22202" lon="-1.55334">
        <ele>10.71</ele>
        <time>2014-02-16T09:45:59Z</time>
      </trkpt>
      <trkpt lat="47.22252" lon="-1.55323">
        <ele>12.63</ele>
        <time>2014-02-16T09:46:10Z</time>
      </trkpt>
      <trkpt lat="47.22276" lon="-1.55321">
        <ele>12.15</ele>
        <time>2014-02-16T09:46:17Z</time>
      </trkpt>
      <trkpt lat="47.22279" lon="-1.55322">
        <ele>12.63</ele>
        <time>2014-02-16T09:46:19Z</time>
      </trkpt>
      <trkpt lat="47.22288" lon="-1.55295">
        <ele>14.56</ele>
        <time>2014-02-16T09:46:26Z</time>
      </trkpt>
      <trkpt lat="47.22291" lon="-1.5526">
        <ele>13.6</ele>
        <time>2014-02-16T09:46:34Z</time>
      </trkpt>
      <trkpt lat="47.2229" lon="-1.55246">
        <ele>12.63</ele>
        <time>2014-02-16T09:46:40Z</time>
      </trkpt>
      <trkpt lat="47.22289" lon="-1.55241">
        <ele>12.63</ele>
        <time>2014-02-16T09:46:41Z</time>
      </trkpt>
      <trkpt lat="47.22289" lon="-1.55237">
        <ele>12.63</ele>
        <time>2014-02-16T09:46:42Z</time>
      </trkpt>
      <trkpt lat="47.2229" lon="-1.55233">
        <ele>12.63</ele>
        <time>2014-02-16T09:46:43Z</time>
      </trkpt>
      <trkpt lat="47.22292" lon="-1.5523">
        <ele>12.63</ele>
        <time>2014-02-16T09:46:44Z</time>
      </trkpt>
      <trkpt lat="47.22295" lon="-1.55228">
        <ele>12.63</ele>
        <time>2014-02-16T09:46:45Z</time>
      </trkpt>
      <trkpt lat="47.22299" lon="-1.55228">
        <ele>12.63</ele>
        <time>2014-02-16T09:46:46Z</time>
      </trkpt>
      <trkpt lat="47.22302" lon="-1.5523">
        <ele>12.63</ele>
        <time>2014-02-16T09:46:47Z</time>
      </trkpt>
      <trkpt lat="47.22306" lon="-1.55233">
        <ele>12.15</ele>
        <time>2014-02-16T09:46:48Z</time>
      </trkpt>
      <trkpt lat="47.22309" lon="-1.55237">
        <ele>12.15</ele>
        <time>2014-02-16T09:46:49Z</time>
      </trkpt>
      <trkpt lat="47.22312" lon="-1.5524">
        <ele>12.15</ele>
        <time>2014-02-16T09:46:50Z</time>
      </trkpt>
      <trkpt lat="47.22315" lon="-1.55243">
        <ele>11.67</ele>
        <time>2014-02-16T09:46:51Z</time>
      </trkpt>
      <trkpt lat="47.22319" lon="-1.55245">
        <ele>11.67</ele>
        <time>2014-02-16T09:46:52Z</time>
      </trkpt>
      <trkpt lat="47.22354" lon="-1.55259">
        <ele>8.79</ele>
        <time>2014-02-16T09:46:59Z</time>
      </trkpt>
      <trkpt lat="47.22403" lon="-1.55264">
        <ele>5.42</ele>
        <time>2014-02-16T09:47:09Z</time>
      </trkpt>
      <trkpt lat="47.22453" lon="-1.55275">
        <ele>2.54</ele>
        <time>2014-02-16T09:47:20Z</time>
      </trkpt>
      <trkpt lat="47.22498" lon="-1.55284">
        <ele>4.46</ele>
        <time>2014-02-16T09:47:30Z</time>
      </trkpt>
      <trkpt lat="47.22521" lon="-1.55288">
        <ele>6.39</ele>
        <time>2014-02-16T09:47:36Z</time>
      </trkpt>
      <trkpt lat="47.22575" lon="-1.55298">
        <ele>7.83</ele>
        <time>2014-02-16T09:47:48Z</time>
      </trkpt>
      <trkpt lat="47.22579" lon="-1.55299">
        <ele>7.83</ele>
        <time>2014-02-16T09:47:49Z</time>
      </trkpt>
      <trkpt lat="47.22583" lon="-1.55299">
        <ele>7.35</ele>
        <time>2014-02-16T09:47:50Z</time>
      </trkpt>
      <trkpt lat="47.22587" lon="-1.55299">
        <ele>7.35</ele>
        <time>2014-02-16T09:47:51Z</time>
      </trkpt>
      <trkpt lat="47.22591" lon="-1.553">
        <ele>7.35</ele>
        <time>2014-02-16T09:47:52Z</time>
      </trkpt>
      <trkpt lat="47.22595" lon="-1.55301">
        <ele>7.35</ele>
        <time>2014-02-16T09:47:53Z</time>
      </trkpt>
      <trkpt lat="47.2263" lon="-1.55307">
        <ele>5.91</ele>
        <time>2014-02-16T09:48:02Z</time>
      </trkpt>
      <trkpt lat="47.22653" lon="-1.5531">
        <ele>4.46</ele>
        <time>2014-02-16T09:48:08Z</time>
      </trkpt>
      <trkpt lat="47.2267" lon="-1.55315">
        <ele>4.94</ele>
        <time>2014-02-16T09:48:12Z</time>
      </trkpt>
      <trkpt lat="47.22674" lon="-1.55315">
        <ele>5.91</ele>
        <time>2014-02-16T09:48:13Z</time>
      </trkpt>
      <trkpt lat="47.22678" lon="-1.55314">
        <ele>6.39</ele>
        <time>2014-02-16T09:48:14Z</time>
      </trkpt>
      <trkpt lat="47.22691" lon="-1.55312">
        <ele>8.31</ele>
        <time>2014-02-16T09:48:17Z</time>
      </trkpt>
      <trkpt lat="47.22696" lon="-1.55311">
        <ele>8.79</ele>
        <time>2014-02-16T09:48:18Z</time>
      </trkpt>
      <trkpt lat="47.22699" lon="-1.55309">
        <ele>9.27</ele>
        <time>2014-02-16T09:48:19Z</time>
      </trkpt>
      <trkpt lat="47.22711" lon="-1.55302">
        <ele>10.23</ele>
        <time>2014-02-16T09:48:26Z</time>
      </trkpt>
      <trkpt lat="47.22712" lon="-1.553">
        <ele>10.71</ele>
        <time>2014-02-16T09:48:27Z</time>
      </trkpt>
      <trkpt lat="47.22713" lon="-1.55298">
        <ele>10.71</ele>
        <time>2014-02-16T09:48:28Z</time>
      </trkpt>
      <trkpt lat="47.22714" lon="-1.55297">
        <ele>11.19</ele>
        <time>2014-02-16T09:48:29Z</time>
      </trkpt>
      <trkpt lat="47.22715" lon="-1.55295">
        <ele>10.71</ele>
        <time>2014-02-16T09:48:30Z</time>
      </trkpt>
      <trkpt lat="47.22716" lon="-1.55293">
        <ele>10.71</ele>
        <time>2014-02-16T09:48:31Z</time>
      </trkpt>
      <trkpt lat="47.22717" lon="-1.55291">
        <ele>10.71</ele>
        <time>2014-02-16T09:48:32Z</time>
      </trkpt>
      <trkpt lat="47.22718" lon="-1.55289">
        <ele>11.19</ele>
        <time>2014-02-16T09:48:33Z</time>
      </trkpt>
      <trkpt lat="47.2272" lon="-1.55287">
        <ele>11.67</ele>
        <time>2014-02-16T09:48:34Z</time>
      </trkpt>
      <trkpt lat="47.22723" lon="-1.55284">
        <ele>11.67</ele>
        <time>2014-02-16T09:48:35Z</time>
      </trkpt>
      <trkpt lat="47.22731" lon="-1.55281">
        <ele>13.12</ele>
        <time>2014-02-16T09:48:42Z</time>
      </trkpt>
      <trkpt lat="47.22736" lon="-1.55278">
        <ele>14.56</ele>
        <time>2014-02-16T09:48:48Z</time>
      </trkpt>
      <trkpt lat="47.22737" lon="-1.55277">
        <ele>14.56</ele>
        <time>2014-02-16T09:48:49Z</time>
      </trkpt>
      <trkpt lat="47.22738" lon="-1.55275">
        <ele>14.56</ele>
        <time>2014-02-16T09:48:50Z</time>
      </trkpt>
      <trkpt lat="47.22739" lon="-1.55274">
        <ele>14.56</ele>
        <time>2014-02-16T09:48:51Z</time>
      </trkpt>
      <trkpt lat="47.22742" lon="-1.55276">
        <ele>14.56</ele>
        <time>2014-02-16T09:48:59Z</time>
      </trkpt>
      <trkpt lat="47.22737" lon="-1.55281">
        <ele>14.56</ele>
        <time>2014-02-16T09:49:04Z</time>
      </trkpt>
      <trkpt lat="47.22736" lon="-1.55281">
        <ele>15.04</ele>
        <time>2014-02-16T09:49:14Z</time>
      </trkpt>
      <trkpt lat="47.22737" lon="-1.55285">
        <ele>13.6</ele>
        <time>2014-02-16T09:49:25Z</time>
      </trkpt>
      <trkpt lat="47.22737" lon="-1.55286">
        <ele>14.08</ele>
        <time>2014-02-16T09:49:41Z</time>
      </trkpt>
      <trkpt lat="47.22737" lon="-1.55288">
        <ele>11.67</ele>
        <time>2014-02-16T09:50:06Z</time>
      </trkpt>
      <trkpt lat="47.22737" lon="-1.55289">
        <ele>15.52</ele>
        <time>2014-02-16T09:50:34Z</time>
      </trkpt>
      <trkpt lat="47.22737" lon="-1.55285">
        <ele>10.71</ele>
        <time>2014-02-16T09:51:10Z</time>
      </trkpt>
      <trkpt lat="47.22736" lon="-1.55288">
        <ele>9.75</ele>
        <time>2014-02-16T09:51:34Z</time>
      </trkpt>
      <trkpt lat="47.22737" lon="-1.55285">
        <ele>9.75</ele>
        <time>2014-02-16T09:52:06Z</time>
      </trkpt>
      <trkpt lat="47.22736" lon="-1.55287">
        <ele>16.96</ele>
        <time>2014-02-16T09:52:37Z</time>
      </trkpt>
      <trkpt lat="47.22735" lon="-1.55287">
        <ele>18.4</ele>
        <time>2014-02-16T09:53:05Z</time>
      </trkpt>
      <trkpt lat="47.22734" lon="-1.55288">
        <ele>16.96</ele>
        <time>2014-02-16T09:53:36Z</time>
      </trkpt>
      <trkpt lat="47.22738" lon="-1.5528">
        <ele>15.04</ele>
        <time>2014-02-16T09:53:52Z</time>
      </trkpt>
      <trkpt lat="47.22739" lon="-1.55278">
        <ele>15.04</ele>
        <time>2014-02-16T09:53:53Z</time>
      </trkpt>
      <trkpt lat="47.2274" lon="-1.55277">
        <ele>15.04</ele>
        <time>2014-02-16T09:53:54Z</time>
      </trkpt>
      <trkpt lat="47.22741" lon="-1.55275">
        <ele>15.04</ele>
        <time>2014-02-16T09:53:55Z</time>
      </trkpt>
      <trkpt lat="47.22742" lon="-1.55274">
        <ele>15.04</ele>
        <time>2014-02-16T09:53:56Z</time>
      </trkpt>
      <trkpt lat="47.22743" lon="-1.55273">
        <ele>15.04</ele>
        <time>2014-02-16T09:53:57Z</time>
      </trkpt>
      <trkpt lat="47.22744" lon="-1.55271">
        <ele>15.04</ele>
        <time>2014-02-16T09:53:58Z</time>
      </trkpt>
      <trkpt lat="47.22754" lon="-1.55258">
        <ele>15.04</ele>
        <time>2014-02-16T09:54:06Z</time>
      </trkpt>
      <trkpt lat="47.22768" lon="-1.55237">
        <ele>15.52</ele>
        <time>2014-02-16T09:54:15Z</time>
      </trkpt>
      <trkpt lat="47.22784" lon="-1.55216">
        <ele>15.04</ele>
        <time>2014-02-16T09:54:24Z</time>
      </trkpt>
      <trkpt lat="47.22805" lon="-1.55184">
        <ele>15.04</ele>
        <time>2014-02-16T09:54:35Z</time>
      </trkpt>
      <trkpt lat="47.2282" lon="-1.55155">
        <ele>14.56</ele>
        <time>2014-02-16T09:54:45Z</time>
      </trkpt>
      <trkpt lat="47.22827" lon="-1.5514">
        <ele>15.52</ele>
        <time>2014-02-16T09:54:58Z</time>
      </trkpt>
      <trkpt lat="47.22829" lon="-1.55138">
        <ele>16</ele>
        <time>2014-02-16T09:55:06Z</time>
      </trkpt>
      <trkpt lat="47.2283" lon="-1.55139">
        <ele>15.04</ele>
        <time>2014-02-16T09:55:22Z</time>
      </trkpt>
      <trkpt lat="47.22831" lon="-1.55137">
        <ele>15.04</ele>
        <time>2014-02-16T09:55:34Z</time>
      </trkpt>
      <trkpt lat="47.22831" lon="-1.55137">
        <ele>14.56</ele>
        <time>2014-02-16T09:55:37Z</time>
      </trkpt>
      <trkpt lat="47.22833" lon="-1.55131">
        <ele>14.08</ele>
        <time>2014-02-16T09:55:39Z</time>
      </trkpt>
      <trkpt lat="47.22837" lon="-1.55125">
        <ele>14.08</ele>
        <time>2014-02-16T09:55:40Z</time>
      </trkpt>
      <trkpt lat="47.22842" lon="-1.5512">
        <ele>13.6</ele>
        <time>2014-02-16T09:55:41Z</time>
      </trkpt>
      <trkpt lat="47.22849" lon="-1.55116">
        <ele>13.12</ele>
        <time>2014-02-16T09:55:42Z</time>
      </trkpt>
      <trkpt lat="47.22855" lon="-1.55113">
        <ele>12.63</ele>
        <time>2014-02-16T09:55:43Z</time>
      </trkpt>
      <trkpt lat="47.22861" lon="-1.55109">
        <ele>12.63</ele>
        <time>2014-02-16T09:55:44Z</time>
      </trkpt>
      <trkpt lat="47.22866" lon="-1.55105">
        <ele>12.15</ele>
        <time>2014-02-16T09:55:45Z</time>
      </trkpt>
      <trkpt lat="47.2287" lon="-1.55102">
        <ele>12.15</ele>
        <time>2014-02-16T09:55:46Z</time>
      </trkpt>
      <trkpt lat="47.22872" lon="-1.55098">
        <ele>12.15</ele>
        <time>2014-02-16T09:55:47Z</time>
      </trkpt>
      <trkpt lat="47.22873" lon="-1.55093">
        <ele>11.67</ele>
        <time>2014-02-16T09:55:48Z</time>
      </trkpt>
      <trkpt lat="47.22874" lon="-1.5509">
        <ele>11.67</ele>
        <time>2014-02-16T09:55:49Z</time>
      </trkpt>
      <trkpt lat="47.22874" lon="-1.55087">
        <ele>11.67</ele>
        <time>2014-02-16T09:55:50Z</time>
      </trkpt>
      <trkpt lat="47.22875" lon="-1.55085">
        <ele>11.67</ele>
        <time>2014-02-16T09:55:51Z</time>
      </trkpt>
      <trkpt lat="47.22875" lon="-1.55083">
        <ele>12.15</ele>
        <time>2014-02-16T09:55:52Z</time>
      </trkpt>
      <trkpt lat="47.22877" lon="-1.55082">
        <ele>11.19</ele>
        <time>2014-02-16T09:55:54Z</time>
      </trkpt>
      <trkpt lat="47.22889" lon="-1.55081">
        <ele>11.19</ele>
        <time>2014-02-16T09:56:02Z</time>
      </trkpt>
      <trkpt lat="47.22911" lon="-1.55062">
        <ele>11.19</ele>
        <time>2014-02-16T09:56:11Z</time>
      </trkpt>
      <trkpt lat="47.22933" lon="-1.5504">
        <ele>10.71</ele>
        <time>2014-02-16T09:56:22Z</time>
      </trkpt>
      <trkpt lat="47.22968" lon="-1.55004">
        <ele>11.19</ele>
        <time>2014-02-16T09:56:33Z</time>
      </trkpt>
      <trkpt lat="47.2299" lon="-1.54977">
        <ele>10.71</ele>
        <time>2014-02-16T09:56:42Z</time>
      </trkpt>
      <trkpt lat="47.23005" lon="-1.54954">
        <ele>10.23</ele>
        <time>2014-02-16T09:56:51Z</time>
      </trkpt>
      <trkpt lat="47.23014" lon="-1.5494">
        <ele>11.19</ele>
        <time>2014-02-16T09:57:02Z</time>
      </trkpt>
      <trkpt lat="47.23027" lon="-1.5491">
        <ele>11.67</ele>
        <time>2014-02-16T09:57:11Z</time>
      </trkpt>
      <trkpt lat="47.23038" lon="-1.54889">
        <ele>12.63</ele>
        <time>2014-02-16T09:57:19Z</time>
      </trkpt>
      <trkpt lat="47.2305" lon="-1.54875">
        <ele>12.63</ele>
        <time>2014-02-16T09:57:26Z</time>
      </trkpt>
      <trkpt lat="47.23065" lon="-1.54857">
        <ele>12.63</ele>
        <time>2014-02-16T09:57:32Z</time>
      </trkpt>
      <trkpt lat="47.23068" lon="-1.54851">
        <ele>12.63</ele>
        <time>2014-02-16T09:57:33Z</time>
      </trkpt>
      <trkpt lat="47.23074" lon="-1.54839">
        <ele>12.63</ele>
        <time>2014-02-16T09:57:35Z</time>
      </trkpt>
      <trkpt lat="47.23095" lon="-1.54808">
        <ele>12.15</ele>
        <time>2014-02-16T09:57:42Z</time>
      </trkpt>
      <trkpt lat="47.23096" lon="-1.54806">
        <ele>12.63</ele>
        <time>2014-02-16T09:57:43Z</time>
      </trkpt>
      <trkpt lat="47.23098" lon="-1.54803">
        <ele>12.63</ele>
        <time>2014-02-16T09:57:44Z</time>
      </trkpt>
      <trkpt lat="47.231" lon="-1.548">
        <ele>12.63</ele>
        <time>2014-02-16T09:57:45Z</time>
      </trkpt>
      <trkpt lat="47.23103" lon="-1.54797">
        <ele>12.63</ele>
        <time>2014-02-16T09:57:46Z</time>
      </trkpt>
      <trkpt lat="47.23132" lon="-1.54781">
        <ele>12.15</ele>
        <time>2014-02-16T09:57:54Z</time>
      </trkpt>
      <trkpt lat="47.23159" lon="-1.54763">
        <ele>14.08</ele>
        <time>2014-02-16T09:58:02Z</time>
      </trkpt>
      <trkpt lat="47.2318" lon="-1.54748">
        <ele>8.31</ele>
        <time>2014-02-16T09:58:13Z</time>
      </trkpt>
      <trkpt lat="47.23195" lon="-1.54743">
        <ele>7.83</ele>
        <time>2014-02-16T09:58:19Z</time>
      </trkpt>
      <trkpt lat="47.23215" lon="-1.54741">
        <ele>6.39</ele>
        <time>2014-02-16T09:58:27Z</time>
      </trkpt>
      <trkpt lat="47.23233" lon="-1.54725">
        <ele>6.39</ele>
        <time>2014-02-16T09:58:35Z</time>
      </trkpt>
      <trkpt lat="47.23258" lon="-1.54714">
        <ele>7.83</ele>
        <time>2014-02-16T09:58:43Z</time>
      </trkpt>
      <trkpt lat="47.23288" lon="-1.54718">
        <ele>9.75</ele>
        <time>2014-02-16T09:58:53Z</time>
      </trkpt>
      <trkpt lat="47.23326" lon="-1.54729">
        <ele>9.75</ele>
        <time>2014-02-16T09:59:03Z</time>
      </trkpt>
      <trkpt lat="47.23352" lon="-1.54745">
        <ele>10.23</ele>
        <time>2014-02-16T09:59:11Z</time>
      </trkpt>
      <trkpt lat="47.2336" lon="-1.54753">
        <ele>9.75</ele>
        <time>2014-02-16T09:59:13Z</time>
      </trkpt>
      <trkpt lat="47.23365" lon="-1.54756">
        <ele>9.75</ele>
        <time>2014-02-16T09:59:14Z</time>
      </trkpt>
      <trkpt lat="47.23369" lon="-1.54758">
        <ele>10.23</ele>
        <time>2014-02-16T09:59:15Z</time>
      </trkpt>
      <trkpt lat="47.23373" lon="-1.54762">
        <ele>10.23</ele>
        <time>2014-02-16T09:59:16Z</time>
      </trkpt>
      <trkpt lat="47.23377" lon="-1.54765">
        <ele>9.75</ele>
        <time>2014-02-16T09:59:17Z</time>
      </trkpt>
      <trkpt lat="47.23405" lon="-1.54774">
        <ele>9.27</ele>
        <time>2014-02-16T09:59:25Z</time>
      </trkpt>
      <trkpt lat="47.23439" lon="-1.54765">
        <ele>10.71</ele>
        <time>2014-02-16T09:59:34Z</time>
      </trkpt>
      <trkpt lat="47.23471" lon="-1.54765">
        <ele>9.27</ele>
        <time>2014-02-16T09:59:43Z</time>
      </trkpt>
      <trkpt lat="47.23492" lon="-1.54767">
        <ele>9.27</ele>
        <time>2014-02-16T09:59:53Z</time>
      </trkpt>
      <trkpt lat="47.23502" lon="-1.54743">
        <ele>10.23</ele>
        <time>2014-02-16T10:00:01Z</time>
      </trkpt>
      <trkpt lat="47.23512" lon="-1.54733">
        <ele>11.67</ele>
        <time>2014-02-16T10:00:09Z</time>
      </trkpt>
      <trkpt lat="47.23512" lon="-1.54732">
        <ele>11.67</ele>
        <time>2014-02-16T10:00:10Z</time>
      </trkpt>
      <trkpt lat="47.23514" lon="-1.54731">
        <ele>11.67</ele>
        <time>2014-02-16T10:00:12Z</time>
      </trkpt>
      <trkpt lat="47.23518" lon="-1.5473">
        <ele>11.19</ele>
        <time>2014-02-16T10:00:20Z</time>
      </trkpt>
      <trkpt lat="47.23519" lon="-1.54728">
        <ele>11.19</ele>
        <time>2014-02-16T10:00:21Z</time>
      </trkpt>
      <trkpt lat="47.23521" lon="-1.54728">
        <ele>11.19</ele>
        <time>2014-02-16T10:00:22Z</time>
      </trkpt>
      <trkpt lat="47.23522" lon="-1.54727">
        <ele>11.19</ele>
        <time>2014-02-16T10:00:23Z</time>
      </trkpt>
      <trkpt lat="47.23524" lon="-1.54726">
        <ele>11.19</ele>
        <time>2014-02-16T10:00:24Z</time>
      </trkpt>
      <trkpt lat="47.23537" lon="-1.54721">
        <ele>12.15</ele>
        <time>2014-02-16T10:00:29Z</time>
      </trkpt>
      <trkpt lat="47.23541" lon="-1.54723">
        <ele>12.63</ele>
        <time>2014-02-16T10:00:30Z</time>
      </trkpt>
      <trkpt lat="47.23544" lon="-1.54726">
        <ele>13.12</ele>
        <time>2014-02-16T10:00:31Z</time>
      </trkpt>
      <trkpt lat="47.23547" lon="-1.54732">
        <ele>13.12</ele>
        <time>2014-02-16T10:00:32Z</time>
      </trkpt>
      <trkpt lat="47.23548" lon="-1.54738">
        <ele>13.6</ele>
        <time>2014-02-16T10:00:33Z</time>
      </trkpt>
      <trkpt lat="47.2355" lon="-1.54744">
        <ele>14.08</ele>
        <time>2014-02-16T10:00:34Z</time>
      </trkpt>
      <trkpt lat="47.2355" lon="-1.5475">
        <ele>14.08</ele>
        <time>2014-02-16T10:00:35Z</time>
      </trkpt>
      <trkpt lat="47.2355" lon="-1.54756">
        <ele>14.08</ele>
        <time>2014-02-16T10:00:36Z</time>
      </trkpt>
      <trkpt lat="47.23544" lon="-1.5482">
        <ele>15.04</ele>
        <time>2014-02-16T10:00:48Z</time>
      </trkpt>
      <trkpt lat="47.23537" lon="-1.54876">
        <ele>14.56</ele>
        <time>2014-02-16T10:00:59Z</time>
      </trkpt>
      <trkpt lat="47.23531" lon="-1.54922">
        <ele>13.12</ele>
        <time>2014-02-16T10:01:12Z</time>
      </trkpt>
      <trkpt lat="47.2353" lon="-1.54933">
        <ele>12.63</ele>
        <time>2014-02-16T10:01:20Z</time>
      </trkpt>
      <trkpt lat="47.23531" lon="-1.54943">
        <ele>13.12</ele>
        <time>2014-02-16T10:01:32Z</time>
      </trkpt>
      <trkpt lat="47.23532" lon="-1.54946">
        <ele>14.08</ele>
        <time>2014-02-16T10:01:50Z</time>
      </trkpt>
      <trkpt lat="47.23535" lon="-1.54947">
        <ele>14.08</ele>
        <time>2014-02-16T10:02:00Z</time>
      </trkpt>
      <trkpt lat="47.23539" lon="-1.5495">
        <ele>14.56</ele>
        <time>2014-02-16T10:02:10Z</time>
      </trkpt>
      <trkpt lat="47.23542" lon="-1.54951">
        <ele>13.6</ele>
        <time>2014-02-16T10:02:14Z</time>
      </trkpt>
      <trkpt lat="47.23553" lon="-1.54958">
        <ele>12.15</ele>
        <time>2014-02-16T10:02:23Z</time>
      </trkpt>
      <trkpt lat="47.23558" lon="-1.54958">
        <ele>11.19</ele>
        <time>2014-02-16T10:02:34Z</time>
      </trkpt>
      <trkpt lat="47.2356" lon="-1.54957">
        <ele>11.19</ele>
        <time>2014-02-16T10:02:36Z</time>
      </trkpt>
      <trkpt lat="47.23568" lon="-1.54958">
        <ele>10.23</ele>
        <time>2014-02-16T10:02:40Z</time>
      </trkpt>
      <trkpt lat="47.2357" lon="-1.54961">
        <ele>10.23</ele>
        <time>2014-02-16T10:02:41Z</time>
      </trkpt>
      <trkpt lat="47.23572" lon="-1.54965">
        <ele>10.23</ele>
        <time>2014-02-16T10:02:42Z</time>
      </trkpt>
      <trkpt lat="47.23574" lon="-1.54969">
        <ele>10.23</ele>
        <time>2014-02-16T10:02:43Z</time>
      </trkpt>
      <trkpt lat="47.23594" lon="-1.55006">
        <ele>10.71</ele>
        <time>2014-02-16T10:02:53Z</time>
      </trkpt>
      <trkpt lat="47.23612" lon="-1.55034">
        <ele>11.67</ele>
        <time>2014-02-16T10:03:01Z</time>
      </trkpt>
      <trkpt lat="47.23631" lon="-1.55044">
        <ele>11.67</ele>
        <time>2014-02-16T10:03:09Z</time>
      </trkpt>
      <trkpt lat="47.23648" lon="-1.55047">
        <ele>12.15</ele>
        <time>2014-02-16T10:03:17Z</time>
      </trkpt>
      <trkpt lat="47.23659" lon="-1.55057">
        <ele>11.67</ele>
        <time>2014-02-16T10:03:29Z</time>
      </trkpt>
      <trkpt lat="47.23663" lon="-1.5506">
        <ele>10.71</ele>
        <time>2014-02-16T10:03:41Z</time>
      </trkpt>
      <trkpt lat="47.23665" lon="-1.55061">
        <ele>10.71</ele>
        <time>2014-02-16T10:03:42Z</time>
      </trkpt>
      <trkpt lat="47.23666" lon="-1.55063">
        <ele>11.19</ele>
        <time>2014-02-16T10:03:43Z</time>
      </trkpt>
      <trkpt lat="47.23668" lon="-1.55065">
        <ele>11.19</ele>
        <time>2014-02-16T10:03:44Z</time>
      </trkpt>
      <trkpt lat="47.23669" lon="-1.55067">
        <ele>11.67</ele>
        <time>2014-02-16T10:03:45Z</time>
      </trkpt>
      <trkpt lat="47.2367" lon="-1.55069">
        <ele>12.15</ele>
        <time>2014-02-16T10:03:46Z</time>
      </trkpt>
      <trkpt lat="47.23676" lon="-1.55072">
        <ele>13.12</ele>
        <time>2014-02-16T10:03:50Z</time>
      </trkpt>
      <trkpt lat="47.23678" lon="-1.55073">
        <ele>13.6</ele>
        <time>2014-02-16T10:03:51Z</time>
      </trkpt>
      <trkpt lat="47.23699" lon="-1.55081">
        <ele>16</ele>
        <time>2014-02-16T10:04:00Z</time>
      </trkpt>
      <trkpt lat="47.23706" lon="-1.55086">
        <ele>16.48</ele>
        <time>2014-02-16T10:04:05Z</time>
      </trkpt>
      <trkpt lat="47.2371" lon="-1.55092">
        <ele>16.96</ele>
        <time>2014-02-16T10:04:09Z</time>
      </trkpt>
      <trkpt lat="47.23711" lon="-1.55094">
        <ele>17.44</ele>
        <time>2014-02-16T10:04:10Z</time>
      </trkpt>
      <trkpt lat="47.23713" lon="-1.55098">
        <ele>17.44</ele>
        <time>2014-02-16T10:04:11Z</time>
      </trkpt>
      <trkpt lat="47.23714" lon="-1.55102">
        <ele>17.44</ele>
        <time>2014-02-16T10:04:12Z</time>
      </trkpt>
      <trkpt lat="47.23715" lon="-1.55106">
        <ele>16.96</ele>
        <time>2014-02-16T10:04:13Z</time>
      </trkpt>
      <trkpt lat="47.23716" lon="-1.55111">
        <ele>16.96</ele>
        <time>2014-02-16T10:04:14Z</time>
      </trkpt>
      <trkpt lat="47.23722" lon="-1.55139">
        <ele>15.04</ele>
        <time>2014-02-16T10:04:20Z</time>
      </trkpt>
      <trkpt lat="47.23726" lon="-1.55153">
        <ele>14.08</ele>
        <time>2014-02-16T10:04:23Z</time>
      </trkpt>
      <trkpt lat="47.23728" lon="-1.55156">
        <ele>14.08</ele>
        <time>2014-02-16T10:04:24Z</time>
      </trkpt>
      <trkpt lat="47.23731" lon="-1.55157">
        <ele>14.56</ele>
        <time>2014-02-16T10:04:25Z</time>
      </trkpt>
      <trkpt lat="47.23735" lon="-1.55157">
        <ele>14.08</ele>
        <time>2014-02-16T10:04:26Z</time>
      </trkpt>
      <trkpt lat="47.23738" lon="-1.55158">
        <ele>14.08</ele>
        <time>2014-02-16T10:04:27Z</time>
      </trkpt>
      <trkpt lat="47.23741" lon="-1.55158">
        <ele>14.08</ele>
        <time>2014-02-16T10:04:28Z</time>
      </trkpt>
      <trkpt lat="47.23775" lon="-1.55169">
        <ele>13.6</ele>
        <time>2014-02-16T10:04:39Z</time>
      </trkpt>
      <trkpt lat="47.23806" lon="-1.55191">
        <ele>14.56</ele>
        <time>2014-02-16T10:04:49Z</time>
      </trkpt>
      <trkpt lat="47.23824" lon="-1.55214">
        <ele>13.12</ele>
        <time>2014-02-16T10:04:57Z</time>
      </trkpt>
      <trkpt lat="47.23841" lon="-1.55251">
        <ele>12.15</ele>
        <time>2014-02-16T10:05:05Z</time>
      </trkpt>
      <trkpt lat="47.23859" lon="-1.5529">
        <ele>11.19</ele>
        <time>2014-02-16T10:05:12Z</time>
      </trkpt>
      <trkpt lat="47.23862" lon="-1.55296">
        <ele>11.19</ele>
        <time>2014-02-16T10:05:13Z</time>
      </trkpt>
      <trkpt lat="47.23865" lon="-1.55301">
        <ele>11.19</ele>
        <time>2014-02-16T10:05:14Z</time>
      </trkpt>
      <trkpt lat="47.23899" lon="-1.55346">
        <ele>9.75</ele>
        <time>2014-02-16T10:05:24Z</time>
      </trkpt>
      <trkpt lat="47.23919" lon="-1.55373">
        <ele>11.67</ele>
        <time>2014-02-16T10:05:30Z</time>
      </trkpt>
      <trkpt lat="47.23923" lon="-1.55378">
        <ele>12.15</ele>
        <time>2014-02-16T10:05:31Z</time>
      </trkpt>
      <trkpt lat="47.23944" lon="-1.55419">
        <ele>16</ele>
        <time>2014-02-16T10:05:40Z</time>
      </trkpt>
      <trkpt lat="47.23947" lon="-1.55422">
        <ele>16</ele>
        <time>2014-02-16T10:05:41Z</time>
      </trkpt>
      <trkpt lat="47.2395" lon="-1.55426">
        <ele>16.48</ele>
        <time>2014-02-16T10:05:42Z</time>
      </trkpt>
      <trkpt lat="47.23951" lon="-1.55431">
        <ele>16.48</ele>
        <time>2014-02-16T10:05:43Z</time>
      </trkpt>
      <trkpt lat="47.2395" lon="-1.55436">
        <ele>16.96</ele>
        <time>2014-02-16T10:05:44Z</time>
      </trkpt>
      <trkpt lat="47.2395" lon="-1.55441">
        <ele>16.96</ele>
        <time>2014-02-16T10:05:45Z</time>
      </trkpt>
      <trkpt lat="47.23949" lon="-1.55446">
        <ele>17.44</ele>
        <time>2014-02-16T10:05:46Z</time>
      </trkpt>
      <trkpt lat="47.23946" lon="-1.55481">
        <ele>18.4</ele>
        <time>2014-02-16T10:05:55Z</time>
      </trkpt>
      <trkpt lat="47.23962" lon="-1.55506">
        <ele>20.32</ele>
        <time>2014-02-16T10:06:03Z</time>
      </trkpt>
      <trkpt lat="47.23964" lon="-1.5551">
        <ele>20.32</ele>
        <time>2014-02-16T10:06:04Z</time>
      </trkpt>
      <trkpt lat="47.23998" lon="-1.55548">
        <ele>21.77</ele>
        <time>2014-02-16T10:06:13Z</time>
      </trkpt>
      <trkpt lat="47.24007" lon="-1.55557">
        <ele>22.25</ele>
        <time>2014-02-16T10:06:15Z</time>
      </trkpt>
      <trkpt lat="47.24026" lon="-1.55581">
        <ele>21.77</ele>
        <time>2014-02-16T10:06:20Z</time>
      </trkpt>
      <trkpt lat="47.2406" lon="-1.55617">
        <ele>23.21</ele>
        <time>2014-02-16T10:06:30Z</time>
      </trkpt>
      <trkpt lat="47.24079" lon="-1.55637">
        <ele>23.21</ele>
        <time>2014-02-16T10:06:36Z</time>
      </trkpt>
      <trkpt lat="47.24083" lon="-1.55638">
        <ele>23.21</ele>
        <time>2014-02-16T10:06:37Z</time>
      </trkpt>
      <trkpt lat="47.24087" lon="-1.55639">
        <ele>23.21</ele>
        <time>2014-02-16T10:06:38Z</time>
      </trkpt>
      <trkpt lat="47.24091" lon="-1.55641">
        <ele>22.73</ele>
        <time>2014-02-16T10:06:39Z</time>
      </trkpt>
      <trkpt lat="47.24095" lon="-1.55641">
        <ele>22.25</ele>
        <time>2014-02-16T10:06:40Z</time>
      </trkpt>
      <trkpt lat="47.241" lon="-1.55641">
        <ele>22.25</ele>
        <time>2014-02-16T10:06:41Z</time>
      </trkpt>
      <trkpt lat="47.24113" lon="-1.55638">
        <ele>21.77</ele>
        <time>2014-02-16T10:06:44Z</time>
      </trkpt>
      <trkpt lat="47.24123" lon="-1.55633">
        <ele>21.77</ele>
        <time>2014-02-16T10:06:46Z</time>
      </trkpt>
      <trkpt lat="47.24128" lon="-1.55632">
        <ele>21.29</ele>
        <time>2014-02-16T10:06:47Z</time>
      </trkpt>
      <trkpt lat="47.24134" lon="-1.55631">
        <ele>21.29</ele>
        <time>2014-02-16T10:06:48Z</time>
      </trkpt>
      <trkpt lat="47.24173" lon="-1.55628">
        <ele>19.84</ele>
        <time>2014-02-16T10:06:54Z</time>
      </trkpt>
      <trkpt lat="47.2418" lon="-1.5563">
        <ele>19.36</ele>
        <time>2014-02-16T10:06:55Z</time>
      </trkpt>
      <trkpt lat="47.24187" lon="-1.55633">
        <ele>19.36</ele>
        <time>2014-02-16T10:06:56Z</time>
      </trkpt>
      <trkpt lat="47.24193" lon="-1.55636">
        <ele>18.88</ele>
        <time>2014-02-16T10:06:57Z</time>
      </trkpt>
      <trkpt lat="47.24199" lon="-1.55639">
        <ele>18.4</ele>
        <time>2014-02-16T10:06:58Z</time>
      </trkpt>
      <trkpt lat="47.24205" lon="-1.5564">
        <ele>17.92</ele>
        <time>2014-02-16T10:06:59Z</time>
      </trkpt>
      <trkpt lat="47.24211" lon="-1.55638">
        <ele>17.92</ele>
        <time>2014-02-16T10:07:00Z</time>
      </trkpt>
      <trkpt lat="47.24225" lon="-1.55637">
        <ele>16</ele>
        <time>2014-02-16T10:07:03Z</time>
      </trkpt>
      <trkpt lat="47.24227" lon="-1.55639">
        <ele>15.52</ele>
        <time>2014-02-16T10:07:04Z</time>
      </trkpt>
      <trkpt lat="47.24228" lon="-1.55641">
        <ele>15.04</ele>
        <time>2014-02-16T10:07:05Z</time>
      </trkpt>
      <trkpt lat="47.2423" lon="-1.55645">
        <ele>14.56</ele>
        <time>2014-02-16T10:07:15Z</time>
      </trkpt>
      <trkpt lat="47.24233" lon="-1.55649">
        <ele>13.12</ele>
        <time>2014-02-16T10:07:40Z</time>
      </trkpt>
      <trkpt lat="47.24232" lon="-1.55649">
        <ele>8.79</ele>
        <time>2014-02-16T10:07:57Z</time>
      </trkpt>
      <trkpt lat="47.24231" lon="-1.55659">
        <ele>9.27</ele>
        <time>2014-02-16T10:08:12Z</time>
      </trkpt>
      <trkpt lat="47.24233" lon="-1.55664">
        <ele>11.19</ele>
        <time>2014-02-16T10:08:27Z</time>
      </trkpt>
      <trkpt lat="47.24231" lon="-1.55667">
        <ele>11.19</ele>
        <time>2014-02-16T10:08:37Z</time>
      </trkpt>
      <trkpt lat="47.2423" lon="-1.55673">
        <ele>12.63</ele>
        <time>2014-02-16T10:08:45Z</time>
      </trkpt>
      <trkpt lat="47.24228" lon="-1.55677">
        <ele>13.6</ele>
        <time>2014-02-16T10:08:50Z</time>
      </trkpt>
      <trkpt lat="47.24231" lon="-1.55701">
        <ele>11.67</ele>
        <time>2014-02-16T10:08:58Z</time>
      </trkpt>
      <trkpt lat="47.24228" lon="-1.55721">
        <ele>10.23</ele>
        <time>2014-02-16T10:09:05Z</time>
      </trkpt>
      <trkpt lat="47.24229" lon="-1.55726">
        <ele>10.23</ele>
        <time>2014-02-16T10:09:06Z</time>
      </trkpt>
      <trkpt lat="47.2423" lon="-1.5573">
        <ele>10.23</ele>
        <time>2014-02-16T10:09:07Z</time>
      </trkpt>
      <trkpt lat="47.24231" lon="-1.55735">
        <ele>10.23</ele>
        <time>2014-02-16T10:09:08Z</time>
      </trkpt>
      <trkpt lat="47.24233" lon="-1.55739">
        <ele>10.23</ele>
        <time>2014-02-16T10:09:09Z</time>
      </trkpt>
      <trkpt lat="47.24235" lon="-1.55744">
        <ele>10.23</ele>
        <time>2014-02-16T10:09:10Z</time>
      </trkpt>
      <trkpt lat="47.24236" lon="-1.55749">
        <ele>10.23</ele>
        <time>2014-02-16T10:09:11Z</time>
      </trkpt>
      <trkpt lat="47.24238" lon="-1.55768">
        <ele>10.23</ele>
        <time>2014-02-16T10:09:14Z</time>
      </trkpt>
      <trkpt lat="47.24239" lon="-1.55776">
        <ele>10.23</ele>
        <time>2014-02-16T10:09:15Z</time>
      </trkpt>
      <trkpt lat="47.2424" lon="-1.55792">
        <ele>10.23</ele>
        <time>2014-02-16T10:09:17Z</time>
      </trkpt>
      <trkpt lat="47.24241" lon="-1.558">
        <ele>9.75</ele>
        <time>2014-02-16T10:09:18Z</time>
      </trkpt>
      <trkpt lat="47.24242" lon="-1.55817">
        <ele>9.75</ele>
        <time>2014-02-16T10:09:20Z</time>
      </trkpt>
      <trkpt lat="47.24243" lon="-1.55826">
        <ele>9.75</ele>
        <time>2014-02-16T10:09:21Z</time>
      </trkpt>
      <trkpt lat="47.24247" lon="-1.55877">
        <ele>9.27</ele>
        <time>2014-02-16T10:09:28Z</time>
      </trkpt>
      <trkpt lat="47.24248" lon="-1.55884">
        <ele>9.27</ele>
        <time>2014-02-16T10:09:29Z</time>
      </trkpt>
      <trkpt lat="47.24248" lon="-1.55891">
        <ele>8.79</ele>
        <time>2014-02-16T10:09:30Z</time>
      </trkpt>
      <trkpt lat="47.24249" lon="-1.559">
        <ele>8.79</ele>
        <time>2014-02-16T10:09:31Z</time>
      </trkpt>
      <trkpt lat="47.2425" lon="-1.55908">
        <ele>8.79</ele>
        <time>2014-02-16T10:09:32Z</time>
      </trkpt>
      <trkpt lat="47.24261" lon="-1.55983">
        <ele>7.35</ele>
        <time>2014-02-16T10:09:42Z</time>
      </trkpt>
      <trkpt lat="47.24263" lon="-1.5599">
        <ele>7.35</ele>
        <time>2014-02-16T10:09:43Z</time>
      </trkpt>
      <trkpt lat="47.24264" lon="-1.55996">
        <ele>6.87</ele>
        <time>2014-02-16T10:09:44Z</time>
      </trkpt>
      <trkpt lat="47.24267" lon="-1.5602">
        <ele>7.83</ele>
        <time>2014-02-16T10:09:51Z</time>
      </trkpt>
      <trkpt lat="47.24265" lon="-1.56021">
        <ele>12.63</ele>
        <time>2014-02-16T10:10:01Z</time>
      </trkpt>
      <trkpt lat="47.24263" lon="-1.56016">
        <ele>12.63</ele>
        <time>2014-02-16T10:10:28Z</time>
      </trkpt>
      <trkpt lat="47.24265" lon="-1.56017">
        <ele>14.56</ele>
        <time>2014-02-16T10:10:50Z</time>
      </trkpt>
      <trkpt lat="47.24266" lon="-1.56017">
        <ele>15.04</ele>
        <time>2014-02-16T10:11:06Z</time>
      </trkpt>
      <trkpt lat="47.24267" lon="-1.56024">
        <ele>16.96</ele>
        <time>2014-02-16T10:11:17Z</time>
      </trkpt>
      <trkpt lat="47.24266" lon="-1.56031">
        <ele>19.84</ele>
        <time>2014-02-16T10:11:27Z</time>
      </trkpt>
      <trkpt lat="47.24265" lon="-1.56032">
        <ele>19.84</ele>
        <time>2014-02-16T10:11:28Z</time>
      </trkpt>
      <trkpt lat="47.24264" lon="-1.56034">
        <ele>20.32</ele>
        <time>2014-02-16T10:11:29Z</time>
      </trkpt>
      <trkpt lat="47.24263" lon="-1.56035">
        <ele>20.32</ele>
        <time>2014-02-16T10:11:30Z</time>
      </trkpt>
      <trkpt lat="47.24262" lon="-1.56038">
        <ele>20.32</ele>
        <time>2014-02-16T10:11:31Z</time>
      </trkpt>
      <trkpt lat="47.24262" lon="-1.56041">
        <ele>20.32</ele>
        <time>2014-02-16T10:11:32Z</time>
      </trkpt>
      <trkpt lat="47.24262" lon="-1.56045">
        <ele>20.32</ele>
        <time>2014-02-16T10:11:33Z</time>
      </trkpt>
      <trkpt lat="47.24263" lon="-1.56049">
        <ele>20.32</ele>
        <time>2014-02-16T10:11:34Z</time>
      </trkpt>
      <trkpt lat="47.24264" lon="-1.56054">
        <ele>20.32</ele>
        <time>2014-02-16T10:11:35Z</time>
      </trkpt>
      <trkpt lat="47.24263" lon="-1.56057">
        <ele>20.32</ele>
        <time>2014-02-16T10:11:36Z</time>
      </trkpt>
      <trkpt lat="47.24263" lon="-1.5606">
        <ele>20.81</ele>
        <time>2014-02-16T10:11:37Z</time>
      </trkpt>
      <trkpt lat="47.24264" lon="-1.56069">
        <ele>20.81</ele>
        <time>2014-02-16T10:11:44Z</time>
      </trkpt>
      <trkpt lat="47.24264" lon="-1.56071">
        <ele>20.81</ele>
        <time>2014-02-16T10:11:45Z</time>
      </trkpt>
      <trkpt lat="47.24267" lon="-1.56087">
        <ele>22.73</ele>
        <time>2014-02-16T10:11:52Z</time>
      </trkpt>
      <trkpt lat="47.24276" lon="-1.56113">
        <ele>23.21</ele>
        <time>2014-02-16T10:12:01Z</time>
      </trkpt>
      <trkpt lat="47.24278" lon="-1.56118">
        <ele>23.69</ele>
        <time>2014-02-16T10:12:03Z</time>
      </trkpt>
      <trkpt lat="47.2428" lon="-1.56121">
        <ele>24.17</ele>
        <time>2014-02-16T10:12:04Z</time>
      </trkpt>
      <trkpt lat="47.24282" lon="-1.56124">
        <ele>24.17</ele>
        <time>2014-02-16T10:12:05Z</time>
      </trkpt>
      <trkpt lat="47.24283" lon="-1.56126">
        <ele>24.65</ele>
        <time>2014-02-16T10:12:06Z</time>
      </trkpt>
      <trkpt lat="47.24285" lon="-1.56127">
        <ele>24.65</ele>
        <time>2014-02-16T10:12:07Z</time>
      </trkpt>
      <trkpt lat="47.24288" lon="-1.56129">
        <ele>25.13</ele>
        <time>2014-02-16T10:12:08Z</time>
      </trkpt>
      <trkpt lat="47.2429" lon="-1.56132">
        <ele>25.13</ele>
        <time>2014-02-16T10:12:09Z</time>
      </trkpt>
      <trkpt lat="47.24306" lon="-1.56147">
        <ele>26.57</ele>
        <time>2014-02-16T10:12:16Z</time>
      </trkpt>
      <trkpt lat="47.24338" lon="-1.5618">
        <ele>26.57</ele>
        <time>2014-02-16T10:12:23Z</time>
      </trkpt>
      <trkpt lat="47.24348" lon="-1.56194">
        <ele>26.57</ele>
        <time>2014-02-16T10:12:26Z</time>
      </trkpt>
      <trkpt lat="47.24354" lon="-1.56206">
        <ele>26.57</ele>
        <time>2014-02-16T10:12:28Z</time>
      </trkpt>
      <trkpt lat="47.2436" lon="-1.56217">
        <ele>27.05</ele>
        <time>2014-02-16T10:12:29Z</time>
      </trkpt>
      <trkpt lat="47.24366" lon="-1.56232">
        <ele>26.57</ele>
        <time>2014-02-16T10:12:31Z</time>
      </trkpt>
      <trkpt lat="47.24369" lon="-1.56239">
        <ele>26.57</ele>
        <time>2014-02-16T10:12:32Z</time>
      </trkpt>
      <trkpt lat="47.24371" lon="-1.56246">
        <ele>26.57</ele>
        <time>2014-02-16T10:12:33Z</time>
      </trkpt>
      <trkpt lat="47.24374" lon="-1.56289">
        <ele>22.73</ele>
        <time>2014-02-16T10:12:41Z</time>
      </trkpt>
      <trkpt lat="47.24372" lon="-1.56312">
        <ele>22.25</ele>
        <time>2014-02-16T10:12:45Z</time>
      </trkpt>
      <trkpt lat="47.24372" lon="-1.56321">
        <ele>22.25</ele>
        <time>2014-02-16T10:12:46Z</time>
      </trkpt>
      <trkpt lat="47.24371" lon="-1.56351">
        <ele>21.77</ele>
        <time>2014-02-16T10:12:49Z</time>
      </trkpt>
      <trkpt lat="47.24371" lon="-1.56369">
        <ele>21.77</ele>
        <time>2014-02-16T10:12:51Z</time>
      </trkpt>
      <trkpt lat="47.24372" lon="-1.56376">
        <ele>21.77</ele>
        <time>2014-02-16T10:12:52Z</time>
      </trkpt>
      <trkpt lat="47.24372" lon="-1.56383">
        <ele>21.77</ele>
        <time>2014-02-16T10:12:53Z</time>
      </trkpt>
      <trkpt lat="47.24372" lon="-1.5639">
        <ele>21.77</ele>
        <time>2014-02-16T10:12:54Z</time>
      </trkpt>
      <trkpt lat="47.24372" lon="-1.56396">
        <ele>21.29</ele>
        <time>2014-02-16T10:12:55Z</time>
      </trkpt>
      <trkpt lat="47.24371" lon="-1.56402">
        <ele>21.77</ele>
        <time>2014-02-16T10:12:56Z</time>
      </trkpt>
      <trkpt lat="47.2437" lon="-1.56408">
        <ele>21.77</ele>
        <time>2014-02-16T10:12:57Z</time>
      </trkpt>
      <trkpt lat="47.24363" lon="-1.5643">
        <ele>22.73</ele>
        <time>2014-02-16T10:13:04Z</time>
      </trkpt>
      <trkpt lat="47.24362" lon="-1.56432">
        <ele>22.73</ele>
        <time>2014-02-16T10:13:05Z</time>
      </trkpt>
      <trkpt lat="47.24354" lon="-1.56444">
        <ele>19.84</ele>
        <time>2014-02-16T10:13:12Z</time>
      </trkpt>
      <trkpt lat="47.24352" lon="-1.56443">
        <ele>19.84</ele>
        <time>2014-02-16T10:13:13Z</time>
      </trkpt>
      <trkpt lat="47.24351" lon="-1.56441">
        <ele>19.84</ele>
        <time>2014-02-16T10:13:14Z</time>
      </trkpt>
      <trkpt lat="47.24351" lon="-1.56439">
        <ele>20.32</ele>
        <time>2014-02-16T10:13:15Z</time>
      </trkpt>
      <trkpt lat="47.24352" lon="-1.56437">
        <ele>19.84</ele>
        <time>2014-02-16T10:13:16Z</time>
      </trkpt>
      <trkpt lat="47.24351" lon="-1.56432">
        <ele>19.84</ele>
        <time>2014-02-16T10:13:18Z</time>
      </trkpt>
      <trkpt lat="47.2435" lon="-1.56431">
        <ele>19.84</ele>
        <time>2014-02-16T10:13:19Z</time>
      </trkpt>
      <trkpt lat="47.24349" lon="-1.56429">
        <ele>19.84</ele>
        <time>2014-02-16T10:13:20Z</time>
      </trkpt>
      <trkpt lat="47.24348" lon="-1.56428">
        <ele>19.84</ele>
        <time>2014-02-16T10:13:21Z</time>
      </trkpt>
      <trkpt lat="47.24347" lon="-1.56428">
        <ele>19.36</ele>
        <time>2014-02-16T10:13:22Z</time>
      </trkpt>
      <trkpt lat="47.24346" lon="-1.56428">
        <ele>19.84</ele>
        <time>2014-02-16T10:13:23Z</time>
      </trkpt>
      <trkpt lat="47.24344" lon="-1.56429">
        <ele>20.81</ele>
        <time>2014-02-16T10:13:25Z</time>
      </trkpt>
      <trkpt lat="47.24336" lon="-1.56436">
        <ele>23.21</ele>
        <time>2014-02-16T10:13:33Z</time>
      </trkpt>
      <trkpt lat="47.24329" lon="-1.56447">
        <ele>27.05</ele>
        <time>2014-02-16T10:13:43Z</time>
      </trkpt>
      <trkpt lat="47.24327" lon="-1.56452">
        <ele>27.53</ele>
        <time>2014-02-16T10:13:47Z</time>
      </trkpt>
      <trkpt lat="47.24326" lon="-1.56478">
        <ele>31.38</ele>
        <time>2014-02-16T10:13:59Z</time>
      </trkpt>
      <trkpt lat="47.24327" lon="-1.56483">
        <ele>33.3</ele>
        <time>2014-02-16T10:14:10Z</time>
      </trkpt>
      <trkpt lat="47.24325" lon="-1.56485">
        <ele>33.3</ele>
        <time>2014-02-16T10:14:32Z</time>
      </trkpt>
      <trkpt lat="47.24324" lon="-1.56489">
        <ele>33.3</ele>
        <time>2014-02-16T10:14:36Z</time>
      </trkpt>
      <trkpt lat="47.24316" lon="-1.565">
        <ele>34.74</ele>
        <time>2014-02-16T10:14:42Z</time>
      </trkpt>
      <trkpt lat="47.24306" lon="-1.56528">
        <ele>34.26</ele>
        <time>2014-02-16T10:14:51Z</time>
      </trkpt>
      <trkpt lat="47.243" lon="-1.56556">
        <ele>35.23</ele>
        <time>2014-02-16T10:14:59Z</time>
      </trkpt>
      <trkpt lat="47.243" lon="-1.56567">
        <ele>36.67</ele>
        <time>2014-02-16T10:15:02Z</time>
      </trkpt>
      <trkpt lat="47.24298" lon="-1.56584">
        <ele>38.11</ele>
        <time>2014-02-16T10:15:07Z</time>
      </trkpt>
      <trkpt lat="47.24295" lon="-1.56602">
        <ele>39.07</ele>
        <time>2014-02-16T10:15:12Z</time>
      </trkpt>
      <trkpt lat="47.24291" lon="-1.56635">
        <ele>38.59</ele>
        <time>2014-02-16T10:15:21Z</time>
      </trkpt>
      <trkpt lat="47.2429" lon="-1.56652">
        <ele>40.03</ele>
        <time>2014-02-16T10:15:28Z</time>
      </trkpt>
      <trkpt lat="47.24284" lon="-1.56677">
        <ele>42.44</ele>
        <time>2014-02-16T10:15:36Z</time>
      </trkpt>
      <trkpt lat="47.24289" lon="-1.56699">
        <ele>40.51</ele>
        <time>2014-02-16T10:15:44Z</time>
      </trkpt>
      <trkpt lat="47.24292" lon="-1.56704">
        <ele>40.51</ele>
        <time>2014-02-16T10:15:45Z</time>
      </trkpt>
      <trkpt lat="47.24305" lon="-1.56723">
        <ele>40.03</ele>
        <time>2014-02-16T10:15:49Z</time>
      </trkpt>
      <trkpt lat="47.24323" lon="-1.56763">
        <ele>36.19</ele>
        <time>2014-02-16T10:15:55Z</time>
      </trkpt>
      <trkpt lat="47.24321" lon="-1.56774">
        <ele>30.42</ele>
        <time>2014-02-16T10:16:03Z</time>
      </trkpt>
      <trkpt lat="47.24321" lon="-1.56775">
        <ele>31.38</ele>
        <time>2014-02-16T10:16:12Z</time>
      </trkpt>
      <trkpt lat="47.24322" lon="-1.56774">
        <ele>31.38</ele>
        <time>2014-02-16T10:16:22Z</time>
      </trkpt>
      <trkpt lat="47.24319" lon="-1.56771">
        <ele>33.78</ele>
        <time>2014-02-16T10:16:42Z</time>
      </trkpt>
      <trkpt lat="47.24319" lon="-1.56773">
        <ele>32.82</ele>
        <time>2014-02-16T10:17:07Z</time>
      </trkpt>
      <trkpt lat="47.24319" lon="-1.56774">
        <ele>37.15</ele>
        <time>2014-02-16T10:17:34Z</time>
      </trkpt>
      <trkpt lat="47.24318" lon="-1.56777">
        <ele>36.19</ele>
        <time>2014-02-16T10:17:50Z</time>
      </trkpt>
      <trkpt lat="47.24316" lon="-1.56786">
        <ele>35.23</ele>
        <time>2014-02-16T10:17:55Z</time>
      </trkpt>
      <trkpt lat="47.24317" lon="-1.56803">
        <ele>33.78</ele>
        <time>2014-02-16T10:18:01Z</time>
      </trkpt>
      <trkpt lat="47.24319" lon="-1.56829">
        <ele>28.98</ele>
        <time>2014-02-16T10:18:09Z</time>
      </trkpt>
      <trkpt lat="47.24318" lon="-1.56845">
        <ele>24.17</ele>
        <time>2014-02-16T10:18:19Z</time>
      </trkpt>
      <trkpt lat="47.24317" lon="-1.56853">
        <ele>26.09</ele>
        <time>2014-02-16T10:18:28Z</time>
      </trkpt>
      <trkpt lat="47.24318" lon="-1.5686">
        <ele>32.82</ele>
        <time>2014-02-16T10:18:49Z</time>
      </trkpt>
      <trkpt lat="47.24317" lon="-1.56863">
        <ele>33.3</ele>
        <time>2014-02-16T10:18:51Z</time>
      </trkpt>
      <trkpt lat="47.24318" lon="-1.5689">
        <ele>30.9</ele>
        <time>2014-02-16T10:19:02Z</time>
      </trkpt>
      <trkpt lat="47.24321" lon="-1.56911">
        <ele>28.5</ele>
        <time>2014-02-16T10:19:10Z</time>
      </trkpt>
      <trkpt lat="47.24317" lon="-1.56921">
        <ele>27.05</ele>
        <time>2014-02-16T10:19:18Z</time>
      </trkpt>
      <trkpt lat="47.24317" lon="-1.56925">
        <ele>27.05</ele>
        <time>2014-02-16T10:19:27Z</time>
      </trkpt>
      <trkpt lat="47.24316" lon="-1.56942">
        <ele>25.61</ele>
        <time>2014-02-16T10:19:35Z</time>
      </trkpt>
      <trkpt lat="47.24324" lon="-1.56951">
        <ele>24.65</ele>
        <time>2014-02-16T10:19:40Z</time>
      </trkpt>
      <trkpt lat="47.24345" lon="-1.56964">
        <ele>23.21</ele>
        <time>2014-02-16T10:19:47Z</time>
      </trkpt>
      <trkpt lat="47.24347" lon="-1.56969">
        <ele>23.21</ele>
        <time>2014-02-16T10:19:48Z</time>
      </trkpt>
      <trkpt lat="47.24349" lon="-1.56972">
        <ele>23.21</ele>
        <time>2014-02-16T10:19:49Z</time>
      </trkpt>
      <trkpt lat="47.24351" lon="-1.56975">
        <ele>23.21</ele>
        <time>2014-02-16T10:19:50Z</time>
      </trkpt>
      <trkpt lat="47.24352" lon="-1.56977">
        <ele>22.73</ele>
        <time>2014-02-16T10:19:51Z</time>
      </trkpt>
      <trkpt lat="47.24354" lon="-1.56979">
        <ele>22.25</ele>
        <time>2014-02-16T10:19:52Z</time>
      </trkpt>
      <trkpt lat="47.24356" lon="-1.56982">
        <ele>22.25</ele>
        <time>2014-02-16T10:19:53Z</time>
      </trkpt>
      <trkpt lat="47.24358" lon="-1.56986">
        <ele>22.25</ele>
        <time>2014-02-16T10:19:54Z</time>
      </trkpt>
      <trkpt lat="47.2436" lon="-1.56989">
        <ele>22.25</ele>
        <time>2014-02-16T10:19:55Z</time>
      </trkpt>
      <trkpt lat="47.24379" lon="-1.57021">
        <ele>21.29</ele>
        <time>2014-02-16T10:20:05Z</time>
      </trkpt>
      <trkpt lat="47.24383" lon="-1.57034">
        <ele>21.29</ele>
        <time>2014-02-16T10:20:14Z</time>
      </trkpt>
      <trkpt lat="47.24383" lon="-1.57039">
        <ele>20.32</ele>
        <time>2014-02-16T10:20:23Z</time>
      </trkpt>
      <trkpt lat="47.24383" lon="-1.57038">
        <ele>19.36</ele>
        <time>2014-02-16T10:20:46Z</time>
      </trkpt>
      <trkpt lat="47.24389" lon="-1.57046">
        <ele>18.4</ele>
        <time>2014-02-16T10:20:57Z</time>
      </trkpt>
      <trkpt lat="47.24391" lon="-1.57051">
        <ele>17.92</ele>
        <time>2014-02-16T10:21:07Z</time>
      </trkpt>
      <trkpt lat="47.24392" lon="-1.5705">
        <ele>17.44</ele>
        <time>2014-02-16T10:21:09Z</time>
      </trkpt>
      <trkpt lat="47.24395" lon="-1.57056">
        <ele>16</ele>
        <time>2014-02-16T10:21:18Z</time>
      </trkpt>
      <trkpt lat="47.24396" lon="-1.57059">
        <ele>15.04</ele>
        <time>2014-02-16T10:21:30Z</time>
      </trkpt>
      <trkpt lat="47.24394" lon="-1.57058">
        <ele>15.04</ele>
        <time>2014-02-16T10:21:47Z</time>
      </trkpt>
      <trkpt lat="47.24392" lon="-1.57054">
        <ele>16.48</ele>
        <time>2014-02-16T10:22:14Z</time>
      </trkpt>
      <trkpt lat="47.24394" lon="-1.57061">
        <ele>17.44</ele>
        <time>2014-02-16T10:22:36Z</time>
      </trkpt>
      <trkpt lat="47.24395" lon="-1.57065">
        <ele>15.04</ele>
        <time>2014-02-16T10:22:53Z</time>
      </trkpt>
      <trkpt lat="47.24394" lon="-1.57062">
        <ele>14.08</ele>
        <time>2014-02-16T10:23:11Z</time>
      </trkpt>
      <trkpt lat="47.24394" lon="-1.57057">
        <ele>13.6</ele>
        <time>2014-02-16T10:23:28Z</time>
      </trkpt>
      <trkpt lat="47.24393" lon="-1.57059">
        <ele>16.48</ele>
        <time>2014-02-16T10:23:47Z</time>
      </trkpt>
      <trkpt lat="47.24396" lon="-1.57065">
        <ele>15.52</ele>
        <time>2014-02-16T10:24:01Z</time>
      </trkpt>
      <trkpt lat="47.24405" lon="-1.57073">
        <ele>16.96</ele>
        <time>2014-02-16T10:24:05Z</time>
      </trkpt>
      <trkpt lat="47.2441" lon="-1.57075">
        <ele>17.44</ele>
        <time>2014-02-16T10:24:06Z</time>
      </trkpt>
      <trkpt lat="47.24415" lon="-1.57077">
        <ele>17.44</ele>
        <time>2014-02-16T10:24:07Z</time>
      </trkpt>
      <trkpt lat="47.24444" lon="-1.57086">
        <ele>17.92</ele>
        <time>2014-02-16T10:24:14Z</time>
      </trkpt>
      <trkpt lat="47.24472" lon="-1.57095">
        <ele>20.32</ele>
        <time>2014-02-16T10:24:23Z</time>
      </trkpt>
      <trkpt lat="47.24473" lon="-1.57096">
        <ele>22.73</ele>
        <time>2014-02-16T10:24:31Z</time>
      </trkpt>
      <trkpt lat="47.24476" lon="-1.57094">
        <ele>23.21</ele>
        <time>2014-02-16T10:24:54Z</time>
      </trkpt>
      <trkpt lat="47.24477" lon="-1.57094">
        <ele>22.25</ele>
        <time>2014-02-16T10:25:10Z</time>
      </trkpt>
      <trkpt lat="47.24492" lon="-1.57103">
        <ele>22.25</ele>
        <time>2014-02-16T10:25:17Z</time>
      </trkpt>
      <trkpt lat="47.24509" lon="-1.57116">
        <ele>21.77</ele>
        <time>2014-02-16T10:25:25Z</time>
      </trkpt>
      <trkpt lat="47.24519" lon="-1.5712">
        <ele>20.81</ele>
        <time>2014-02-16T10:25:31Z</time>
      </trkpt>
      <trkpt lat="47.24521" lon="-1.57122">
        <ele>20.81</ele>
        <time>2014-02-16T10:25:32Z</time>
      </trkpt>
      <trkpt lat="47.24537" lon="-1.57154">
        <ele>21.77</ele>
        <time>2014-02-16T10:25:40Z</time>
      </trkpt>
      <trkpt lat="47.24539" lon="-1.57189">
        <ele>21.77</ele>
        <time>2014-02-16T10:25:47Z</time>
      </trkpt>
      <trkpt lat="47.24534" lon="-1.57231">
        <ele>19.36</ele>
        <time>2014-02-16T10:25:55Z</time>
      </trkpt>
      <trkpt lat="47.24536" lon="-1.57252">
        <ele>18.4</ele>
        <time>2014-02-16T10:26:00Z</time>
      </trkpt>
      <trkpt lat="47.24535" lon="-1.57256">
        <ele>17.92</ele>
        <time>2014-02-16T10:26:01Z</time>
      </trkpt>
      <trkpt lat="47.24534" lon="-1.5726">
        <ele>17.92</ele>
        <time>2014-02-16T10:26:02Z</time>
      </trkpt>
      <trkpt lat="47.24533" lon="-1.57266">
        <ele>17.44</ele>
        <time>2014-02-16T10:26:03Z</time>
      </trkpt>
      <trkpt lat="47.24533" lon="-1.57271">
        <ele>17.44</ele>
        <time>2014-02-16T10:26:04Z</time>
      </trkpt>
      <trkpt lat="47.24533" lon="-1.57279">
        <ele>17.44</ele>
        <time>2014-02-16T10:26:05Z</time>
      </trkpt>
      <trkpt lat="47.24533" lon="-1.57286">
        <ele>17.44</ele>
        <time>2014-02-16T10:26:06Z</time>
      </trkpt>
      <trkpt lat="47.24533" lon="-1.57293">
        <ele>17.44</ele>
        <time>2014-02-16T10:26:07Z</time>
      </trkpt>
      <trkpt lat="47.24534" lon="-1.57301">
        <ele>16.96</ele>
        <time>2014-02-16T10:26:08Z</time>
      </trkpt>
      <trkpt lat="47.24537" lon="-1.57315">
        <ele>16.96</ele>
        <time>2014-02-16T10:26:10Z</time>
      </trkpt>
      <trkpt lat="47.24537" lon="-1.57322">
        <ele>16.48</ele>
        <time>2014-02-16T10:26:11Z</time>
      </trkpt>
      <trkpt lat="47.24538" lon="-1.57328">
        <ele>16.48</ele>
        <time>2014-02-16T10:26:12Z</time>
      </trkpt>
      <trkpt lat="47.24539" lon="-1.57335">
        <ele>16</ele>
        <time>2014-02-16T10:26:13Z</time>
      </trkpt>
      <trkpt lat="47.2454" lon="-1.57341">
        <ele>16</ele>
        <time>2014-02-16T10:26:14Z</time>
      </trkpt>
      <trkpt lat="47.24545" lon="-1.57365">
        <ele>15.04</ele>
        <time>2014-02-16T10:26:18Z</time>
      </trkpt>
      <trkpt lat="47.24557" lon="-1.57426">
        <ele>13.6</ele>
        <time>2014-02-16T10:26:27Z</time>
      </trkpt>
      <trkpt lat="47.24575" lon="-1.57476">
        <ele>14.56</ele>
        <time>2014-02-16T10:26:35Z</time>
      </trkpt>
      <trkpt lat="47.24581" lon="-1.57486">
        <ele>15.04</ele>
        <time>2014-02-16T10:26:37Z</time>
      </trkpt>
      <trkpt lat="47.24584" lon="-1.57489">
        <ele>15.52</ele>
        <time>2014-02-16T10:26:38Z</time>
      </trkpt>
      <trkpt lat="47.24588" lon="-1.57492">
        <ele>16</ele>
        <time>2014-02-16T10:26:39Z</time>
      </trkpt>
      <trkpt lat="47.24591" lon="-1.57495">
        <ele>16.48</ele>
        <time>2014-02-16T10:26:40Z</time>
      </trkpt>
      <trkpt lat="47.24595" lon="-1.57497">
        <ele>16.96</ele>
        <time>2014-02-16T10:26:41Z</time>
      </trkpt>
      <trkpt lat="47.24612" lon="-1.57509">
        <ele>17.44</ele>
        <time>2014-02-16T10:26:45Z</time>
      </trkpt>
      <trkpt lat="47.2462" lon="-1.57518">
        <ele>16.96</ele>
        <time>2014-02-16T10:26:47Z</time>
      </trkpt>
      <trkpt lat="47.24624" lon="-1.57523">
        <ele>16.96</ele>
        <time>2014-02-16T10:26:48Z</time>
      </trkpt>
      <trkpt lat="47.2463" lon="-1.57528">
        <ele>16.48</ele>
        <time>2014-02-16T10:26:49Z</time>
      </trkpt>
      <trkpt lat="47.24653" lon="-1.5754">
        <ele>15.52</ele>
        <time>2014-02-16T10:26:54Z</time>
      </trkpt>
      <trkpt lat="47.24657" lon="-1.57541">
        <ele>15.04</ele>
        <time>2014-02-16T10:26:55Z</time>
      </trkpt>
      <trkpt lat="47.24691" lon="-1.57554">
        <ele>16.48</ele>
        <time>2014-02-16T10:27:05Z</time>
      </trkpt>
      <trkpt lat="47.24698" lon="-1.57554">
        <ele>18.4</ele>
        <time>2014-02-16T10:27:09Z</time>
      </trkpt>
      <trkpt lat="47.24699" lon="-1.57554">
        <ele>18.4</ele>
        <time>2014-02-16T10:27:10Z</time>
      </trkpt>
      <trkpt lat="47.24701" lon="-1.57555">
        <ele>18.88</ele>
        <time>2014-02-16T10:27:11Z</time>
      </trkpt>
      <trkpt lat="47.24706" lon="-1.57557">
        <ele>19.84</ele>
        <time>2014-02-16T10:27:13Z</time>
      </trkpt>
      <trkpt lat="47.24733" lon="-1.57589">
        <ele>16.96</ele>
        <time>2014-02-16T10:27:21Z</time>
      </trkpt>
      <trkpt lat="47.24753" lon="-1.57615">
        <ele>16</ele>
        <time>2014-02-16T10:27:28Z</time>
      </trkpt>
      <trkpt lat="47.2476" lon="-1.57669">
        <ele>14.08</ele>
        <time>2014-02-16T10:27:37Z</time>
      </trkpt>
      <trkpt lat="47.24763" lon="-1.57717">
        <ele>14.08</ele>
        <time>2014-02-16T10:27:47Z</time>
      </trkpt>
      <trkpt lat="47.24764" lon="-1.5772">
        <ele>15.04</ele>
        <time>2014-02-16T10:27:56Z</time>
      </trkpt>
      <trkpt lat="47.24765" lon="-1.57721">
        <ele>14.56</ele>
        <time>2014-02-16T10:28:16Z</time>
      </trkpt>
      <trkpt lat="47.24764" lon="-1.5772">
        <ele>15.52</ele>
        <time>2014-02-16T10:28:39Z</time>
      </trkpt>
      <trkpt lat="47.24766" lon="-1.5773">
        <ele>15.52</ele>
        <time>2014-02-16T10:28:51Z</time>
      </trkpt>
      <trkpt lat="47.24783" lon="-1.57763">
        <ele>16</ele>
        <time>2014-02-16T10:28:59Z</time>
      </trkpt>
      <trkpt lat="47.24785" lon="-1.57768">
        <ele>16</ele>
        <time>2014-02-16T10:29:00Z</time>
      </trkpt>
      <trkpt lat="47.24819" lon="-1.57815">
        <ele>16</ele>
        <time>2014-02-16T10:29:10Z</time>
      </trkpt>
      <trkpt lat="47.24839" lon="-1.5784">
        <ele>15.52</ele>
        <time>2014-02-16T10:29:16Z</time>
      </trkpt>
      <trkpt lat="47.24873" lon="-1.57884">
        <ele>14.08</ele>
        <time>2014-02-16T10:29:25Z</time>
      </trkpt>
      <trkpt lat="47.24876" lon="-1.57889">
        <ele>14.08</ele>
        <time>2014-02-16T10:29:26Z</time>
      </trkpt>
      <trkpt lat="47.24891" lon="-1.57914">
        <ele>13.6</ele>
        <time>2014-02-16T10:29:35Z</time>
      </trkpt>
      <trkpt lat="47.24897" lon="-1.57923">
        <ele>13.6</ele>
        <time>2014-02-16T10:29:46Z</time>
      </trkpt>
      <trkpt lat="47.24898" lon="-1.57922">
        <ele>13.6</ele>
        <time>2014-02-16T10:29:47Z</time>
      </trkpt>
      <trkpt lat="47.24901" lon="-1.57919">
        <ele>13.6</ele>
        <time>2014-02-16T10:29:52Z</time>
      </trkpt>
      <trkpt lat="47.24901" lon="-1.57917">
        <ele>13.6</ele>
        <time>2014-02-16T10:29:53Z</time>
      </trkpt>
      <trkpt lat="47.24913" lon="-1.57903">
        <ele>14.08</ele>
        <time>2014-02-16T10:29:59Z</time>
      </trkpt>
      <trkpt lat="47.24918" lon="-1.57895">
        <ele>13.6</ele>
        <time>2014-02-16T10:30:01Z</time>
      </trkpt>
      <trkpt lat="47.24937" lon="-1.57882">
        <ele>12.15</ele>
        <time>2014-02-16T10:30:06Z</time>
      </trkpt>
      <trkpt lat="47.24941" lon="-1.57885">
        <ele>11.67</ele>
        <time>2014-02-16T10:30:07Z</time>
      </trkpt>
      <trkpt lat="47.24943" lon="-1.57888">
        <ele>11.67</ele>
        <time>2014-02-16T10:30:08Z</time>
      </trkpt>
      <trkpt lat="47.24945" lon="-1.57891">
        <ele>11.19</ele>
        <time>2014-02-16T10:30:09Z</time>
      </trkpt>
      <trkpt lat="47.24947" lon="-1.57894">
        <ele>10.71</ele>
        <time>2014-02-16T10:30:10Z</time>
      </trkpt>
      <trkpt lat="47.24949" lon="-1.57897">
        <ele>10.71</ele>
        <time>2014-02-16T10:30:11Z</time>
      </trkpt>
      <trkpt lat="47.2495" lon="-1.57901">
        <ele>10.23</ele>
        <time>2014-02-16T10:30:12Z</time>
      </trkpt>
      <trkpt lat="47.24961" lon="-1.57934">
        <ele>10.23</ele>
        <time>2014-02-16T10:30:22Z</time>
      </trkpt>
      <trkpt lat="47.24976" lon="-1.57952">
        <ele>12.15</ele>
        <time>2014-02-16T10:30:29Z</time>
      </trkpt>
      <trkpt lat="47.24994" lon="-1.57979">
        <ele>14.56</ele>
        <time>2014-02-16T10:30:39Z</time>
      </trkpt>
      <trkpt lat="47.25001" lon="-1.5799">
        <ele>15.04</ele>
        <time>2014-02-16T10:30:42Z</time>
      </trkpt>
      <trkpt lat="47.25031" lon="-1.58016">
        <ele>17.92</ele>
        <time>2014-02-16T10:30:51Z</time>
      </trkpt>
      <trkpt lat="47.25035" lon="-1.58018">
        <ele>18.4</ele>
        <time>2014-02-16T10:30:52Z</time>
      </trkpt>
      <trkpt lat="47.2504" lon="-1.5802">
        <ele>18.4</ele>
        <time>2014-02-16T10:30:53Z</time>
      </trkpt>
      <trkpt lat="47.25044" lon="-1.58022">
        <ele>18.4</ele>
        <time>2014-02-16T10:30:54Z</time>
      </trkpt>
      <trkpt lat="47.25048" lon="-1.58024">
        <ele>18.88</ele>
        <time>2014-02-16T10:30:55Z</time>
      </trkpt>
      <trkpt lat="47.25053" lon="-1.58026">
        <ele>18.88</ele>
        <time>2014-02-16T10:30:56Z</time>
      </trkpt>
      <trkpt lat="47.25057" lon="-1.58029">
        <ele>18.88</ele>
        <time>2014-02-16T10:30:57Z</time>
      </trkpt>
      <trkpt lat="47.25061" lon="-1.58032">
        <ele>18.88</ele>
        <time>2014-02-16T10:30:58Z</time>
      </trkpt>
      <trkpt lat="47.25065" lon="-1.58035">
        <ele>18.88</ele>
        <time>2014-02-16T10:30:59Z</time>
      </trkpt>
      <trkpt lat="47.25068" lon="-1.58039">
        <ele>18.4</ele>
        <time>2014-02-16T10:31:00Z</time>
      </trkpt>
      <trkpt lat="47.25071" lon="-1.58045">
        <ele>18.88</ele>
        <time>2014-02-16T10:31:01Z</time>
      </trkpt>
      <trkpt lat="47.25073" lon="-1.58051">
        <ele>18.88</ele>
        <time>2014-02-16T10:31:02Z</time>
      </trkpt>
      <trkpt lat="47.25076" lon="-1.58057">
        <ele>18.88</ele>
        <time>2014-02-16T10:31:03Z</time>
      </trkpt>
      <trkpt lat="47.25078" lon="-1.58063">
        <ele>18.4</ele>
        <time>2014-02-16T10:31:04Z</time>
      </trkpt>
      <trkpt lat="47.2508" lon="-1.58069">
        <ele>18.4</ele>
        <time>2014-02-16T10:31:05Z</time>
      </trkpt>
      <trkpt lat="47.25082" lon="-1.58075">
        <ele>18.4</ele>
        <time>2014-02-16T10:31:06Z</time>
      </trkpt>
      <trkpt lat="47.25082" lon="-1.58081">
        <ele>17.92</ele>
        <time>2014-02-16T10:31:07Z</time>
      </trkpt>
      <trkpt lat="47.25082" lon="-1.58088">
        <ele>17.44</ele>
        <time>2014-02-16T10:31:08Z</time>
      </trkpt>
      <trkpt lat="47.25082" lon="-1.58094">
        <ele>16.96</ele>
        <time>2014-02-16T10:31:09Z</time>
      </trkpt>
      <trkpt lat="47.25081" lon="-1.58099">
        <ele>16.48</ele>
        <time>2014-02-16T10:31:10Z</time>
      </trkpt>
      <trkpt lat="47.25081" lon="-1.58105">
        <ele>16</ele>
        <time>2014-02-16T10:31:11Z</time>
      </trkpt>
      <trkpt lat="47.25079" lon="-1.58121">
        <ele>16</ele>
        <time>2014-02-16T10:31:14Z</time>
      </trkpt>
      <trkpt lat="47.25079" lon="-1.58128">
        <ele>15.52</ele>
        <time>2014-02-16T10:31:15Z</time>
      </trkpt>
      <trkpt lat="47.25079" lon="-1.58135">
        <ele>15.04</ele>
        <time>2014-02-16T10:31:16Z</time>
      </trkpt>
      <trkpt lat="47.2508" lon="-1.58142">
        <ele>14.08</ele>
        <time>2014-02-16T10:31:17Z</time>
      </trkpt>
      <trkpt lat="47.25082" lon="-1.58149">
        <ele>13.6</ele>
        <time>2014-02-16T10:31:18Z</time>
      </trkpt>
      <trkpt lat="47.25083" lon="-1.58156">
        <ele>13.6</ele>
        <time>2014-02-16T10:31:19Z</time>
      </trkpt>
      <trkpt lat="47.25088" lon="-1.58176">
        <ele>13.12</ele>
        <time>2014-02-16T10:31:22Z</time>
      </trkpt>
      <trkpt lat="47.25099" lon="-1.58204">
        <ele>12.63</ele>
        <time>2014-02-16T10:31:27Z</time>
      </trkpt>
      <trkpt lat="47.25101" lon="-1.5821">
        <ele>12.63</ele>
        <time>2014-02-16T10:31:28Z</time>
      </trkpt>
      <trkpt lat="47.25105" lon="-1.58255">
        <ele>11.19</ele>
        <time>2014-02-16T10:31:37Z</time>
      </trkpt>
      <trkpt lat="47.25102" lon="-1.58303">
        <ele>11.19</ele>
        <time>2014-02-16T10:31:47Z</time>
      </trkpt>
      <trkpt lat="47.25092" lon="-1.58338">
        <ele>13.6</ele>
        <time>2014-02-16T10:31:57Z</time>
      </trkpt>
      <trkpt lat="47.25092" lon="-1.58368">
        <ele>15.04</ele>
        <time>2014-02-16T10:32:06Z</time>
      </trkpt>
      <trkpt lat="47.25091" lon="-1.5837">
        <ele>15.04</ele>
        <time>2014-02-16T10:32:07Z</time>
      </trkpt>
      <trkpt lat="47.25091" lon="-1.58374">
        <ele>15.52</ele>
        <time>2014-02-16T10:32:08Z</time>
      </trkpt>
      <trkpt lat="47.25092" lon="-1.58378">
        <ele>15.52</ele>
        <time>2014-02-16T10:32:09Z</time>
      </trkpt>
      <trkpt lat="47.25092" lon="-1.58382">
        <ele>15.52</ele>
        <time>2014-02-16T10:32:10Z</time>
      </trkpt>
      <trkpt lat="47.25096" lon="-1.58405">
        <ele>16</ele>
        <time>2014-02-16T10:32:18Z</time>
      </trkpt>
      <trkpt lat="47.25105" lon="-1.58441">
        <ele>17.44</ele>
        <time>2014-02-16T10:32:29Z</time>
      </trkpt>
      <trkpt lat="47.2511" lon="-1.58456">
        <ele>17.92</ele>
        <time>2014-02-16T10:32:35Z</time>
      </trkpt>
      <trkpt lat="47.25109" lon="-1.58458">
        <ele>17.92</ele>
        <time>2014-02-16T10:32:36Z</time>
      </trkpt>
      <trkpt lat="47.2511" lon="-1.58463">
        <ele>17.92</ele>
        <time>2014-02-16T10:32:38Z</time>
      </trkpt>
      <trkpt lat="47.25111" lon="-1.58466">
        <ele>17.92</ele>
        <time>2014-02-16T10:32:39Z</time>
      </trkpt>
      <trkpt lat="47.25112" lon="-1.58469">
        <ele>18.4</ele>
        <time>2014-02-16T10:32:40Z</time>
      </trkpt>
      <trkpt lat="47.25114" lon="-1.58472">
        <ele>18.4</ele>
        <time>2014-02-16T10:32:41Z</time>
      </trkpt>
      <trkpt lat="47.25115" lon="-1.58474">
        <ele>18.88</ele>
        <time>2014-02-16T10:32:42Z</time>
      </trkpt>
      <trkpt lat="47.25115" lon="-1.58477">
        <ele>19.36</ele>
        <time>2014-02-16T10:32:43Z</time>
      </trkpt>
      <trkpt lat="47.25116" lon="-1.58479">
        <ele>19.36</ele>
        <time>2014-02-16T10:32:44Z</time>
      </trkpt>
      <trkpt lat="47.25119" lon="-1.58483">
        <ele>18.88</ele>
        <time>2014-02-16T10:32:47Z</time>
      </trkpt>
      <trkpt lat="47.25121" lon="-1.58485">
        <ele>18.4</ele>
        <time>2014-02-16T10:32:48Z</time>
      </trkpt>
      <trkpt lat="47.25128" lon="-1.58497">
        <ele>19.36</ele>
        <time>2014-02-16T10:32:54Z</time>
      </trkpt>
      <trkpt lat="47.25136" lon="-1.58505">
        <ele>19.84</ele>
        <time>2014-02-16T10:33:00Z</time>
      </trkpt>
      <trkpt lat="47.2515" lon="-1.58517">
        <ele>20.32</ele>
        <time>2014-02-16T10:33:11Z</time>
      </trkpt>
      <trkpt lat="47.2516" lon="-1.58527">
        <ele>22.73</ele>
        <time>2014-02-16T10:33:20Z</time>
      </trkpt>
      <trkpt lat="47.2517" lon="-1.58539">
        <ele>20.81</ele>
        <time>2014-02-16T10:33:29Z</time>
      </trkpt>
      <trkpt lat="47.25172" lon="-1.5854">
        <ele>20.81</ele>
        <time>2014-02-16T10:33:31Z</time>
      </trkpt>
      <trkpt lat="47.25175" lon="-1.58545">
        <ele>23.69</ele>
        <time>2014-02-16T10:33:38Z</time>
      </trkpt>
      <trkpt lat="47.25175" lon="-1.58548">
        <ele>27.05</ele>
        <time>2014-02-16T10:33:46Z</time>
      </trkpt>
      <trkpt lat="47.25177" lon="-1.58551">
        <ele>27.53</ele>
        <time>2014-02-16T10:33:52Z</time>
      </trkpt>
      <trkpt lat="47.25178" lon="-1.58551">
        <ele>27.53</ele>
        <time>2014-02-16T10:33:53Z</time>
      </trkpt>
      <trkpt lat="47.25179" lon="-1.58553">
        <ele>27.53</ele>
        <time>2014-02-16T10:33:54Z</time>
      </trkpt>
      <trkpt lat="47.25183" lon="-1.58554">
        <ele>26.09</ele>
        <time>2014-02-16T10:33:56Z</time>
      </trkpt>
      <trkpt lat="47.25185" lon="-1.58553">
        <ele>26.09</ele>
        <time>2014-02-16T10:33:57Z</time>
      </trkpt>
      <trkpt lat="47.25186" lon="-1.58553">
        <ele>26.09</ele>
        <time>2014-02-16T10:33:58Z</time>
      </trkpt>
      <trkpt lat="47.25187" lon="-1.58553">
        <ele>26.09</ele>
        <time>2014-02-16T10:33:59Z</time>
      </trkpt>
      <trkpt lat="47.25189" lon="-1.58554">
        <ele>26.57</ele>
        <time>2014-02-16T10:34:00Z</time>
      </trkpt>
      <trkpt lat="47.25191" lon="-1.58555">
        <ele>26.57</ele>
        <time>2014-02-16T10:34:01Z</time>
      </trkpt>
      <trkpt lat="47.25192" lon="-1.58556">
        <ele>27.05</ele>
        <time>2014-02-16T10:34:02Z</time>
      </trkpt>
      <trkpt lat="47.25215" lon="-1.58554">
        <ele>32.34</ele>
        <time>2014-02-16T10:34:13Z</time>
      </trkpt>
      <trkpt lat="47.25237" lon="-1.5855">
        <ele>32.82</ele>
        <time>2014-02-16T10:34:22Z</time>
      </trkpt>
      <trkpt lat="47.25253" lon="-1.58553">
        <ele>32.82</ele>
        <time>2014-02-16T10:34:32Z</time>
      </trkpt>
      <trkpt lat="47.2527" lon="-1.58569">
        <ele>32.82</ele>
        <time>2014-02-16T10:34:43Z</time>
      </trkpt>
      <trkpt lat="47.25273" lon="-1.58572">
        <ele>32.82</ele>
        <time>2014-02-16T10:34:45Z</time>
      </trkpt>
      <trkpt lat="47.25274" lon="-1.58573">
        <ele>32.34</ele>
        <time>2014-02-16T10:34:46Z</time>
      </trkpt>
      <trkpt lat="47.25275" lon="-1.58575">
        <ele>32.34</ele>
        <time>2014-02-16T10:34:47Z</time>
      </trkpt>
      <trkpt lat="47.25277" lon="-1.58576">
        <ele>32.34</ele>
        <time>2014-02-16T10:34:48Z</time>
      </trkpt>
      <trkpt lat="47.25278" lon="-1.58576">
        <ele>31.86</ele>
        <time>2014-02-16T10:34:49Z</time>
      </trkpt>
      <trkpt lat="47.2528" lon="-1.58576">
        <ele>30.9</ele>
        <time>2014-02-16T10:34:50Z</time>
      </trkpt>
      <trkpt lat="47.25282" lon="-1.58575">
        <ele>30.9</ele>
        <time>2014-02-16T10:34:51Z</time>
      </trkpt>
      <trkpt lat="47.25295" lon="-1.58574">
        <ele>26.57</ele>
        <time>2014-02-16T10:34:59Z</time>
      </trkpt>
      <trkpt lat="47.25299" lon="-1.58575">
        <ele>26.57</ele>
        <time>2014-02-16T10:35:01Z</time>
      </trkpt>
      <trkpt lat="47.25301" lon="-1.58575">
        <ele>27.05</ele>
        <time>2014-02-16T10:35:02Z</time>
      </trkpt>
      <trkpt lat="47.25305" lon="-1.58577">
        <ele>27.53</ele>
        <time>2014-02-16T10:35:04Z</time>
      </trkpt>
      <trkpt lat="47.25306" lon="-1.58579">
        <ele>27.53</ele>
        <time>2014-02-16T10:35:05Z</time>
      </trkpt>
      <trkpt lat="47.25307" lon="-1.58581">
        <ele>27.53</ele>
        <time>2014-02-16T10:35:06Z</time>
      </trkpt>
      <trkpt lat="47.25308" lon="-1.58585">
        <ele>28.02</ele>
        <time>2014-02-16T10:35:08Z</time>
      </trkpt>
      <trkpt lat="47.25313" lon="-1.58596">
        <ele>28.98</ele>
        <time>2014-02-16T10:35:13Z</time>
      </trkpt>
      <trkpt lat="47.25314" lon="-1.58599">
        <ele>28.5</ele>
        <time>2014-02-16T10:35:14Z</time>
      </trkpt>
      <trkpt lat="47.25315" lon="-1.58602">
        <ele>28.02</ele>
        <time>2014-02-16T10:35:15Z</time>
      </trkpt>
      <trkpt lat="47.25316" lon="-1.58605">
        <ele>28.5</ele>
        <time>2014-02-16T10:35:16Z</time>
      </trkpt>
      <trkpt lat="47.25316" lon="-1.58609">
        <ele>28.5</ele>
        <time>2014-02-16T10:35:17Z</time>
      </trkpt>
      <trkpt lat="47.25316" lon="-1.58612">
        <ele>28.5</ele>
        <time>2014-02-16T10:35:18Z</time>
      </trkpt>
      <trkpt lat="47.25316" lon="-1.58615">
        <ele>28.5</ele>
        <time>2014-02-16T10:35:19Z</time>
      </trkpt>
      <trkpt lat="47.25315" lon="-1.58618">
        <ele>28.5</ele>
        <time>2014-02-16T10:35:20Z</time>
      </trkpt>
      <trkpt lat="47.25315" lon="-1.58621">
        <ele>28.5</ele>
        <time>2014-02-16T10:35:21Z</time>
      </trkpt>
      <trkpt lat="47.25314" lon="-1.58624">
        <ele>28.02</ele>
        <time>2014-02-16T10:35:22Z</time>
      </trkpt>
      <trkpt lat="47.25314" lon="-1.58627">
        <ele>27.53</ele>
        <time>2014-02-16T10:35:23Z</time>
      </trkpt>
      <trkpt lat="47.25313" lon="-1.58629">
        <ele>28.02</ele>
        <time>2014-02-16T10:35:24Z</time>
      </trkpt>
      <trkpt lat="47.25311" lon="-1.58632">
        <ele>28.02</ele>
        <time>2014-02-16T10:35:25Z</time>
      </trkpt>
      <trkpt lat="47.25309" lon="-1.58634">
        <ele>27.53</ele>
        <time>2014-02-16T10:35:26Z</time>
      </trkpt>
      <trkpt lat="47.25307" lon="-1.58636">
        <ele>27.53</ele>
        <time>2014-02-16T10:35:27Z</time>
      </trkpt>
      <trkpt lat="47.25306" lon="-1.58639">
        <ele>27.53</ele>
        <time>2014-02-16T10:35:28Z</time>
      </trkpt>
      <trkpt lat="47.25305" lon="-1.58642">
        <ele>27.53</ele>
        <time>2014-02-16T10:35:29Z</time>
      </trkpt>
      <trkpt lat="47.25304" lon="-1.58646">
        <ele>27.05</ele>
        <time>2014-02-16T10:35:30Z</time>
      </trkpt>
      <trkpt lat="47.25301" lon="-1.58657">
        <ele>26.09</ele>
        <time>2014-02-16T10:35:33Z</time>
      </trkpt>
      <trkpt lat="47.25301" lon="-1.58661">
        <ele>26.09</ele>
        <time>2014-02-16T10:35:34Z</time>
      </trkpt>
      <trkpt lat="47.25301" lon="-1.58664">
        <ele>26.09</ele>
        <time>2014-02-16T10:35:35Z</time>
      </trkpt>
      <trkpt lat="47.25305" lon="-1.58698">
        <ele>24.65</ele>
        <time>2014-02-16T10:35:44Z</time>
      </trkpt>
      <trkpt lat="47.25304" lon="-1.58707">
        <ele>24.65</ele>
        <time>2014-02-16T10:35:46Z</time>
      </trkpt>
      <trkpt lat="47.25302" lon="-1.5871">
        <ele>24.65</ele>
        <time>2014-02-16T10:35:47Z</time>
      </trkpt>
      <trkpt lat="47.25301" lon="-1.58713">
        <ele>24.65</ele>
        <time>2014-02-16T10:35:48Z</time>
      </trkpt>
      <trkpt lat="47.25288" lon="-1.5875">
        <ele>25.61</ele>
        <time>2014-02-16T10:35:57Z</time>
      </trkpt>
      <trkpt lat="47.25284" lon="-1.58792">
        <ele>26.57</ele>
        <time>2014-02-16T10:36:06Z</time>
      </trkpt>
      <trkpt lat="47.25283" lon="-1.58805">
        <ele>27.05</ele>
        <time>2014-02-16T10:36:09Z</time>
      </trkpt>
      <trkpt lat="47.25282" lon="-1.58808">
        <ele>27.05</ele>
        <time>2014-02-16T10:36:10Z</time>
      </trkpt>
      <trkpt lat="47.25282" lon="-1.58812">
        <ele>27.53</ele>
        <time>2014-02-16T10:36:11Z</time>
      </trkpt>
      <trkpt lat="47.25282" lon="-1.58814">
        <ele>27.53</ele>
        <time>2014-02-16T10:36:12Z</time>
      </trkpt>
      <trkpt lat="47.25283" lon="-1.58817">
        <ele>27.53</ele>
        <time>2014-02-16T10:36:13Z</time>
      </trkpt>
      <trkpt lat="47.25284" lon="-1.58819">
        <ele>27.53</ele>
        <time>2014-02-16T10:36:14Z</time>
      </trkpt>
      <trkpt lat="47.25285" lon="-1.5882">
        <ele>27.53</ele>
        <time>2014-02-16T10:36:15Z</time>
      </trkpt>
      <trkpt lat="47.25286" lon="-1.58823">
        <ele>27.53</ele>
        <time>2014-02-16T10:36:16Z</time>
      </trkpt>
      <trkpt lat="47.25286" lon="-1.58827">
        <ele>28.02</ele>
        <time>2014-02-16T10:36:18Z</time>
      </trkpt>
      <trkpt lat="47.25286" lon="-1.58828">
        <ele>28.02</ele>
        <time>2014-02-16T10:36:19Z</time>
      </trkpt>
      <trkpt lat="47.25285" lon="-1.58842">
        <ele>27.05</ele>
        <time>2014-02-16T10:36:33Z</time>
      </trkpt>
      <trkpt lat="47.25285" lon="-1.5884">
        <ele>23.69</ele>
        <time>2014-02-16T10:37:00Z</time>
      </trkpt>
      <trkpt lat="47.25284" lon="-1.58839">
        <ele>20.32</ele>
        <time>2014-02-16T10:37:18Z</time>
      </trkpt>
      <trkpt lat="47.25284" lon="-1.5884">
        <ele>21.29</ele>
        <time>2014-02-16T10:37:22Z</time>
      </trkpt>
      <trkpt lat="47.25268" lon="-1.58831">
        <ele>22.73</ele>
        <time>2014-02-16T10:37:31Z</time>
      </trkpt>
      <trkpt lat="47.25253" lon="-1.58824">
        <ele>21.77</ele>
        <time>2014-02-16T10:37:36Z</time>
      </trkpt>
      <trkpt lat="47.25251" lon="-1.58826">
        <ele>22.25</ele>
        <time>2014-02-16T10:37:37Z</time>
      </trkpt>
      <trkpt lat="47.25249" lon="-1.58829">
        <ele>22.25</ele>
        <time>2014-02-16T10:37:38Z</time>
      </trkpt>
      <trkpt lat="47.25247" lon="-1.58832">
        <ele>22.25</ele>
        <time>2014-02-16T10:37:39Z</time>
      </trkpt>
      <trkpt lat="47.25245" lon="-1.58836">
        <ele>22.25</ele>
        <time>2014-02-16T10:37:40Z</time>
      </trkpt>
      <trkpt lat="47.25244" lon="-1.58839">
        <ele>21.77</ele>
        <time>2014-02-16T10:37:41Z</time>
      </trkpt>
      <trkpt lat="47.25242" lon="-1.58842">
        <ele>21.77</ele>
        <time>2014-02-16T10:37:42Z</time>
      </trkpt>
      <trkpt lat="47.25229" lon="-1.58867">
        <ele>22.25</ele>
        <time>2014-02-16T10:37:49Z</time>
      </trkpt>
      <trkpt lat="47.25229" lon="-1.58871">
        <ele>22.73</ele>
        <time>2014-02-16T10:37:50Z</time>
      </trkpt>
      <trkpt lat="47.25227" lon="-1.58874">
        <ele>23.21</ele>
        <time>2014-02-16T10:37:51Z</time>
      </trkpt>
      <trkpt lat="47.25227" lon="-1.58878">
        <ele>23.21</ele>
        <time>2014-02-16T10:37:52Z</time>
      </trkpt>
      <trkpt lat="47.25226" lon="-1.58881">
        <ele>24.17</ele>
        <time>2014-02-16T10:37:53Z</time>
      </trkpt>
      <trkpt lat="47.25226" lon="-1.58884">
        <ele>24.65</ele>
        <time>2014-02-16T10:37:54Z</time>
      </trkpt>
      <trkpt lat="47.25226" lon="-1.58886">
        <ele>24.65</ele>
        <time>2014-02-16T10:37:55Z</time>
      </trkpt>
      <trkpt lat="47.25227" lon="-1.58887">
        <ele>25.13</ele>
        <time>2014-02-16T10:37:56Z</time>
      </trkpt>
      <trkpt lat="47.2525" lon="-1.58911">
        <ele>25.61</ele>
        <time>2014-02-16T10:38:04Z</time>
      </trkpt>
      <trkpt lat="47.2526" lon="-1.58922">
        <ele>25.13</ele>
        <time>2014-02-16T10:38:06Z</time>
      </trkpt>
      <trkpt lat="47.25315" lon="-1.58984">
        <ele>24.17</ele>
        <time>2014-02-16T10:38:17Z</time>
      </trkpt>
      <trkpt lat="47.25332" lon="-1.59003">
        <ele>24.17</ele>
        <time>2014-02-16T10:38:21Z</time>
      </trkpt>
      <trkpt lat="47.25348" lon="-1.59029">
        <ele>26.09</ele>
        <time>2014-02-16T10:38:25Z</time>
      </trkpt>
      <trkpt lat="47.25365" lon="-1.59053">
        <ele>28.02</ele>
        <time>2014-02-16T10:38:32Z</time>
      </trkpt>
      <trkpt lat="47.25386" lon="-1.59067">
        <ele>28.5</ele>
        <time>2014-02-16T10:38:43Z</time>
      </trkpt>
      <trkpt lat="47.25406" lon="-1.59072">
        <ele>28.98</ele>
        <time>2014-02-16T10:38:52Z</time>
      </trkpt>
      <trkpt lat="47.25436" lon="-1.59069">
        <ele>29.94</ele>
        <time>2014-02-16T10:39:02Z</time>
      </trkpt>
      <trkpt lat="47.25455" lon="-1.59042">
        <ele>28.5</ele>
        <time>2014-02-16T10:39:09Z</time>
      </trkpt>
      <trkpt lat="47.25479" lon="-1.59017">
        <ele>29.46</ele>
        <time>2014-02-16T10:39:17Z</time>
      </trkpt>
      <trkpt lat="47.25483" lon="-1.59015">
        <ele>29.94</ele>
        <time>2014-02-16T10:39:18Z</time>
      </trkpt>
      <trkpt lat="47.25512" lon="-1.58999">
        <ele>29.94</ele>
        <time>2014-02-16T10:39:26Z</time>
      </trkpt>
      <trkpt lat="47.25514" lon="-1.58995">
        <ele>29.46</ele>
        <time>2014-02-16T10:39:27Z</time>
      </trkpt>
      <trkpt lat="47.25516" lon="-1.5899">
        <ele>29.46</ele>
        <time>2014-02-16T10:39:28Z</time>
      </trkpt>
      <trkpt lat="47.25526" lon="-1.58935">
        <ele>26.09</ele>
        <time>2014-02-16T10:39:38Z</time>
      </trkpt>
      <trkpt lat="47.25537" lon="-1.58885">
        <ele>24.17</ele>
        <time>2014-02-16T10:39:47Z</time>
      </trkpt>
      <trkpt lat="47.25538" lon="-1.58879">
        <ele>24.17</ele>
        <time>2014-02-16T10:39:48Z</time>
      </trkpt>
      <trkpt lat="47.25547" lon="-1.58855">
        <ele>23.21</ele>
        <time>2014-02-16T10:39:52Z</time>
      </trkpt>
      <trkpt lat="47.25553" lon="-1.58838">
        <ele>22.25</ele>
        <time>2014-02-16T10:39:55Z</time>
      </trkpt>
      <trkpt lat="47.25556" lon="-1.58834">
        <ele>21.77</ele>
        <time>2014-02-16T10:39:56Z</time>
      </trkpt>
      <trkpt lat="47.2556" lon="-1.58832">
        <ele>21.77</ele>
        <time>2014-02-16T10:39:57Z</time>
      </trkpt>
      <trkpt lat="47.25564" lon="-1.58832">
        <ele>21.29</ele>
        <time>2014-02-16T10:39:58Z</time>
      </trkpt>
      <trkpt lat="47.25568" lon="-1.58832">
        <ele>20.81</ele>
        <time>2014-02-16T10:39:59Z</time>
      </trkpt>
      <trkpt lat="47.25584" lon="-1.58828">
        <ele>19.36</ele>
        <time>2014-02-16T10:40:03Z</time>
      </trkpt>
      <trkpt lat="47.25589" lon="-1.58829">
        <ele>19.36</ele>
        <time>2014-02-16T10:40:04Z</time>
      </trkpt>
      <trkpt lat="47.25593" lon="-1.5883">
        <ele>19.36</ele>
        <time>2014-02-16T10:40:05Z</time>
      </trkpt>
      <trkpt lat="47.25596" lon="-1.5883">
        <ele>19.84</ele>
        <time>2014-02-16T10:40:06Z</time>
      </trkpt>
      <trkpt lat="47.256" lon="-1.58831">
        <ele>19.84</ele>
        <time>2014-02-16T10:40:07Z</time>
      </trkpt>
      <trkpt lat="47.25611" lon="-1.58829">
        <ele>20.32</ele>
        <time>2014-02-16T10:40:10Z</time>
      </trkpt>
      <trkpt lat="47.25624" lon="-1.5882">
        <ele>20.32</ele>
        <time>2014-02-16T10:40:15Z</time>
      </trkpt>
      <trkpt lat="47.2565" lon="-1.58853">
        <ele>21.77</ele>
        <time>2014-02-16T10:40:24Z</time>
      </trkpt>
      <trkpt lat="47.2567" lon="-1.58881">
        <ele>23.69</ele>
        <time>2014-02-16T10:40:32Z</time>
      </trkpt>
      <trkpt lat="47.25671" lon="-1.58886">
        <ele>23.69</ele>
        <time>2014-02-16T10:40:33Z</time>
      </trkpt>
      <trkpt lat="47.25671" lon="-1.58891">
        <ele>24.17</ele>
        <time>2014-02-16T10:40:34Z</time>
      </trkpt>
      <trkpt lat="47.25669" lon="-1.58895">
        <ele>24.17</ele>
        <time>2014-02-16T10:40:35Z</time>
      </trkpt>
      <trkpt lat="47.25656" lon="-1.58906">
        <ele>26.09</ele>
        <time>2014-02-16T10:40:40Z</time>
      </trkpt>
      <trkpt lat="47.25654" lon="-1.58908">
        <ele>26.57</ele>
        <time>2014-02-16T10:40:41Z</time>
      </trkpt>
      <trkpt lat="47.25653" lon="-1.5891">
        <ele>26.57</ele>
        <time>2014-02-16T10:40:42Z</time>
      </trkpt>
      <trkpt lat="47.25643" lon="-1.58924">
        <ele>26.09</ele>
        <time>2014-02-16T10:40:49Z</time>
      </trkpt>
      <trkpt lat="47.25642" lon="-1.58927">
        <ele>26.09</ele>
        <time>2014-02-16T10:40:50Z</time>
      </trkpt>
      <trkpt lat="47.25643" lon="-1.58931">
        <ele>26.57</ele>
        <time>2014-02-16T10:40:51Z</time>
      </trkpt>
      <trkpt lat="47.25644" lon="-1.58936">
        <ele>26.57</ele>
        <time>2014-02-16T10:40:52Z</time>
      </trkpt>
      <trkpt lat="47.25645" lon="-1.58939">
        <ele>26.57</ele>
        <time>2014-02-16T10:40:53Z</time>
      </trkpt>
      <trkpt lat="47.25646" lon="-1.58942">
        <ele>26.57</ele>
        <time>2014-02-16T10:40:54Z</time>
      </trkpt>
      <trkpt lat="47.25648" lon="-1.58945">
        <ele>26.57</ele>
        <time>2014-02-16T10:40:55Z</time>
      </trkpt>
      <trkpt lat="47.25649" lon="-1.58949">
        <ele>26.09</ele>
        <time>2014-02-16T10:40:56Z</time>
      </trkpt>
      <trkpt lat="47.25652" lon="-1.58952">
        <ele>26.57</ele>
        <time>2014-02-16T10:40:57Z</time>
      </trkpt>
      <trkpt lat="47.25653" lon="-1.58956">
        <ele>26.57</ele>
        <time>2014-02-16T10:40:58Z</time>
      </trkpt>
      <trkpt lat="47.25655" lon="-1.58959">
        <ele>26.57</ele>
        <time>2014-02-16T10:40:59Z</time>
      </trkpt>
      <trkpt lat="47.25656" lon="-1.58962">
        <ele>26.57</ele>
        <time>2014-02-16T10:41:00Z</time>
      </trkpt>
      <trkpt lat="47.25657" lon="-1.58967">
        <ele>27.05</ele>
        <time>2014-02-16T10:41:01Z</time>
      </trkpt>
      <trkpt lat="47.25659" lon="-1.58971">
        <ele>27.05</ele>
        <time>2014-02-16T10:41:02Z</time>
      </trkpt>
      <trkpt lat="47.25679" lon="-1.59027">
        <ele>28.5</ele>
        <time>2014-02-16T10:41:14Z</time>
      </trkpt>
      <trkpt lat="47.25685" lon="-1.59035">
        <ele>28.5</ele>
        <time>2014-02-16T10:41:16Z</time>
      </trkpt>
      <trkpt lat="47.257" lon="-1.59051">
        <ele>28.98</ele>
        <time>2014-02-16T10:41:20Z</time>
      </trkpt>
      <trkpt lat="47.25704" lon="-1.59055">
        <ele>28.98</ele>
        <time>2014-02-16T10:41:21Z</time>
      </trkpt>
      <trkpt lat="47.25707" lon="-1.59058">
        <ele>28.5</ele>
        <time>2014-02-16T10:41:22Z</time>
      </trkpt>
      <trkpt lat="47.25711" lon="-1.59059">
        <ele>28.98</ele>
        <time>2014-02-16T10:41:23Z</time>
      </trkpt>
      <trkpt lat="47.25716" lon="-1.59059">
        <ele>28.98</ele>
        <time>2014-02-16T10:41:24Z</time>
      </trkpt>
      <trkpt lat="47.25721" lon="-1.59059">
        <ele>29.46</ele>
        <time>2014-02-16T10:41:25Z</time>
      </trkpt>
      <trkpt lat="47.25725" lon="-1.59061">
        <ele>29.46</ele>
        <time>2014-02-16T10:41:26Z</time>
      </trkpt>
      <trkpt lat="47.25728" lon="-1.59065">
        <ele>28.98</ele>
        <time>2014-02-16T10:41:27Z</time>
      </trkpt>
      <trkpt lat="47.2573" lon="-1.5907">
        <ele>28.98</ele>
        <time>2014-02-16T10:41:28Z</time>
      </trkpt>
      <trkpt lat="47.25731" lon="-1.59076">
        <ele>28.98</ele>
        <time>2014-02-16T10:41:29Z</time>
      </trkpt>
      <trkpt lat="47.25731" lon="-1.59081">
        <ele>28.98</ele>
        <time>2014-02-16T10:41:30Z</time>
      </trkpt>
      <trkpt lat="47.25726" lon="-1.59109">
        <ele>28.5</ele>
        <time>2014-02-16T10:41:35Z</time>
      </trkpt>
      <trkpt lat="47.25727" lon="-1.59114">
        <ele>28.98</ele>
        <time>2014-02-16T10:41:36Z</time>
      </trkpt>
      <trkpt lat="47.25729" lon="-1.59119">
        <ele>28.5</ele>
        <time>2014-02-16T10:41:37Z</time>
      </trkpt>
      <trkpt lat="47.25732" lon="-1.59122">
        <ele>28.5</ele>
        <time>2014-02-16T10:41:38Z</time>
      </trkpt>
      <trkpt lat="47.25735" lon="-1.59125">
        <ele>28.5</ele>
        <time>2014-02-16T10:41:39Z</time>
      </trkpt>
      <trkpt lat="47.25739" lon="-1.59127">
        <ele>28.5</ele>
        <time>2014-02-16T10:41:40Z</time>
      </trkpt>
      <trkpt lat="47.25742" lon="-1.5913">
        <ele>28.98</ele>
        <time>2014-02-16T10:41:41Z</time>
      </trkpt>
      <trkpt lat="47.25768" lon="-1.59151">
        <ele>32.34</ele>
        <time>2014-02-16T10:41:49Z</time>
      </trkpt>
      <trkpt lat="47.25795" lon="-1.59194">
        <ele>32.82</ele>
        <time>2014-02-16T10:41:59Z</time>
      </trkpt>
      <trkpt lat="47.25823" lon="-1.59235">
        <ele>32.34</ele>
        <time>2014-02-16T10:42:10Z</time>
      </trkpt>
      <trkpt lat="47.2584" lon="-1.59256">
        <ele>30.42</ele>
        <time>2014-02-16T10:42:17Z</time>
      </trkpt>
      <trkpt lat="47.25868" lon="-1.59267">
        <ele>32.82</ele>
        <time>2014-02-16T10:42:26Z</time>
      </trkpt>
      <trkpt lat="47.25898" lon="-1.59244">
        <ele>32.82</ele>
        <time>2014-02-16T10:42:35Z</time>
      </trkpt>
      <trkpt lat="47.25925" lon="-1.592">
        <ele>30.42</ele>
        <time>2014-02-16T10:42:46Z</time>
      </trkpt>
      <trkpt lat="47.2596" lon="-1.59201">
        <ele>28.02</ele>
        <time>2014-02-16T10:42:55Z</time>
      </trkpt>
      <trkpt lat="47.26" lon="-1.59215">
        <ele>29.94</ele>
        <time>2014-02-16T10:43:06Z</time>
      </trkpt>
      <trkpt lat="47.26018" lon="-1.5924">
        <ele>30.9</ele>
        <time>2014-02-16T10:43:14Z</time>
      </trkpt>
      <trkpt lat="47.26026" lon="-1.59264">
        <ele>30.9</ele>
        <time>2014-02-16T10:43:19Z</time>
      </trkpt>
      <trkpt lat="47.26027" lon="-1.59315">
        <ele>30.9</ele>
        <time>2014-02-16T10:43:28Z</time>
      </trkpt>
      <trkpt lat="47.26026" lon="-1.59321">
        <ele>31.38</ele>
        <time>2014-02-16T10:43:29Z</time>
      </trkpt>
      <trkpt lat="47.26003" lon="-1.59377">
        <ele>28.98</ele>
        <time>2014-02-16T10:43:38Z</time>
      </trkpt>
      <trkpt lat="47.26" lon="-1.59383">
        <ele>28.5</ele>
        <time>2014-02-16T10:43:39Z</time>
      </trkpt>
      <trkpt lat="47.25997" lon="-1.5939">
        <ele>28.02</ele>
        <time>2014-02-16T10:43:40Z</time>
      </trkpt>
      <trkpt lat="47.25994" lon="-1.59396">
        <ele>28.02</ele>
        <time>2014-02-16T10:43:41Z</time>
      </trkpt>
      <trkpt lat="47.25991" lon="-1.59401">
        <ele>27.53</ele>
        <time>2014-02-16T10:43:42Z</time>
      </trkpt>
      <trkpt lat="47.25989" lon="-1.59407">
        <ele>27.53</ele>
        <time>2014-02-16T10:43:43Z</time>
      </trkpt>
      <trkpt lat="47.25972" lon="-1.5944">
        <ele>25.61</ele>
        <time>2014-02-16T10:43:49Z</time>
      </trkpt>
      <trkpt lat="47.25971" lon="-1.59446">
        <ele>25.61</ele>
        <time>2014-02-16T10:43:50Z</time>
      </trkpt>
      <trkpt lat="47.2597" lon="-1.59452">
        <ele>25.13</ele>
        <time>2014-02-16T10:43:51Z</time>
      </trkpt>
      <trkpt lat="47.25969" lon="-1.59459">
        <ele>25.13</ele>
        <time>2014-02-16T10:43:52Z</time>
      </trkpt>
      <trkpt lat="47.2597" lon="-1.59465">
        <ele>24.65</ele>
        <time>2014-02-16T10:43:53Z</time>
      </trkpt>
      <trkpt lat="47.25972" lon="-1.59471">
        <ele>24.17</ele>
        <time>2014-02-16T10:43:54Z</time>
      </trkpt>
      <trkpt lat="47.25973" lon="-1.59477">
        <ele>23.69</ele>
        <time>2014-02-16T10:43:55Z</time>
      </trkpt>
      <trkpt lat="47.25981" lon="-1.59507">
        <ele>22.25</ele>
        <time>2014-02-16T10:44:00Z</time>
      </trkpt>
      <trkpt lat="47.25979" lon="-1.59554">
        <ele>19.36</ele>
        <time>2014-02-16T10:44:08Z</time>
      </trkpt>
      <trkpt lat="47.25988" lon="-1.59605">
        <ele>16</ele>
        <time>2014-02-16T10:44:17Z</time>
      </trkpt>
      <trkpt lat="47.26003" lon="-1.59633">
        <ele>14.56</ele>
        <time>2014-02-16T10:44:23Z</time>
      </trkpt>
      <trkpt lat="47.26007" lon="-1.59637">
        <ele>15.04</ele>
        <time>2014-02-16T10:44:24Z</time>
      </trkpt>
      <trkpt lat="47.26014" lon="-1.59644">
        <ele>14.56</ele>
        <time>2014-02-16T10:44:26Z</time>
      </trkpt>
      <trkpt lat="47.26054" lon="-1.59675">
        <ele>16.48</ele>
        <time>2014-02-16T10:44:37Z</time>
      </trkpt>
      <trkpt lat="47.26076" lon="-1.59694">
        <ele>16.48</ele>
        <time>2014-02-16T10:44:43Z</time>
      </trkpt>
      <trkpt lat="47.2608" lon="-1.59696">
        <ele>16.48</ele>
        <time>2014-02-16T10:44:44Z</time>
      </trkpt>
      <trkpt lat="47.26084" lon="-1.59698">
        <ele>16.48</ele>
        <time>2014-02-16T10:44:45Z</time>
      </trkpt>
      <trkpt lat="47.26133" lon="-1.5971">
        <ele>16.96</ele>
        <time>2014-02-16T10:44:57Z</time>
      </trkpt>
      <trkpt lat="47.26174" lon="-1.59721">
        <ele>17.44</ele>
        <time>2014-02-16T10:45:08Z</time>
      </trkpt>
      <trkpt lat="47.26184" lon="-1.59723">
        <ele>17.44</ele>
        <time>2014-02-16T10:45:11Z</time>
      </trkpt>
      <trkpt lat="47.26187" lon="-1.59725">
        <ele>17.44</ele>
        <time>2014-02-16T10:45:12Z</time>
      </trkpt>
      <trkpt lat="47.26223" lon="-1.59754">
        <ele>16.96</ele>
        <time>2014-02-16T10:45:23Z</time>
      </trkpt>
      <trkpt lat="47.26241" lon="-1.59778">
        <ele>16.96</ele>
        <time>2014-02-16T10:45:32Z</time>
      </trkpt>
      <trkpt lat="47.26242" lon="-1.5978">
        <ele>16.96</ele>
        <time>2014-02-16T10:45:33Z</time>
      </trkpt>
      <trkpt lat="47.26243" lon="-1.59781">
        <ele>16.96</ele>
        <time>2014-02-16T10:45:34Z</time>
      </trkpt>
      <trkpt lat="47.26244" lon="-1.59782">
        <ele>16.96</ele>
        <time>2014-02-16T10:45:35Z</time>
      </trkpt>
      <trkpt lat="47.26245" lon="-1.59784">
        <ele>16.96</ele>
        <time>2014-02-16T10:45:36Z</time>
      </trkpt>
      <trkpt lat="47.26246" lon="-1.59786">
        <ele>17.44</ele>
        <time>2014-02-16T10:45:37Z</time>
      </trkpt>
      <trkpt lat="47.26246" lon="-1.59787">
        <ele>17.44</ele>
        <time>2014-02-16T10:45:38Z</time>
      </trkpt>
      <trkpt lat="47.26247" lon="-1.59789">
        <ele>17.44</ele>
        <time>2014-02-16T10:45:39Z</time>
      </trkpt>
      <trkpt lat="47.26248" lon="-1.59791">
        <ele>17.44</ele>
        <time>2014-02-16T10:45:40Z</time>
      </trkpt>
      <trkpt lat="47.2625" lon="-1.59792">
        <ele>17.44</ele>
        <time>2014-02-16T10:45:41Z</time>
      </trkpt>
      <trkpt lat="47.26251" lon="-1.59795">
        <ele>17.44</ele>
        <time>2014-02-16T10:45:42Z</time>
      </trkpt>
      <trkpt lat="47.26251" lon="-1.59799">
        <ele>17.44</ele>
        <time>2014-02-16T10:45:43Z</time>
      </trkpt>
      <trkpt lat="47.26251" lon="-1.59802">
        <ele>17.44</ele>
        <time>2014-02-16T10:45:44Z</time>
      </trkpt>
      <trkpt lat="47.26251" lon="-1.59805">
        <ele>17.44</ele>
        <time>2014-02-16T10:45:45Z</time>
      </trkpt>
      <trkpt lat="47.26251" lon="-1.59807">
        <ele>16.96</ele>
        <time>2014-02-16T10:45:46Z</time>
      </trkpt>
      <trkpt lat="47.26257" lon="-1.59831">
        <ele>15.04</ele>
        <time>2014-02-16T10:45:51Z</time>
      </trkpt>
      <trkpt lat="47.26258" lon="-1.59837">
        <ele>14.56</ele>
        <time>2014-02-16T10:45:52Z</time>
      </trkpt>
      <trkpt lat="47.26258" lon="-1.59843">
        <ele>14.56</ele>
        <time>2014-02-16T10:45:53Z</time>
      </trkpt>
      <trkpt lat="47.26257" lon="-1.59848">
        <ele>14.08</ele>
        <time>2014-02-16T10:45:54Z</time>
      </trkpt>
      <trkpt lat="47.26257" lon="-1.59853">
        <ele>14.08</ele>
        <time>2014-02-16T10:45:55Z</time>
      </trkpt>
      <trkpt lat="47.26256" lon="-1.59856">
        <ele>13.6</ele>
        <time>2014-02-16T10:45:56Z</time>
      </trkpt>
      <trkpt lat="47.26255" lon="-1.5986">
        <ele>13.6</ele>
        <time>2014-02-16T10:45:57Z</time>
      </trkpt>
      <trkpt lat="47.26255" lon="-1.59864">
        <ele>13.6</ele>
        <time>2014-02-16T10:45:58Z</time>
      </trkpt>
      <trkpt lat="47.26253" lon="-1.599">
        <ele>14.56</ele>
        <time>2014-02-16T10:46:06Z</time>
      </trkpt>
      <trkpt lat="47.26244" lon="-1.59947">
        <ele>16.48</ele>
        <time>2014-02-16T10:46:14Z</time>
      </trkpt>
      <trkpt lat="47.26241" lon="-1.59954">
        <ele>16.48</ele>
        <time>2014-02-16T10:46:15Z</time>
      </trkpt>
      <trkpt lat="47.26237" lon="-1.59961">
        <ele>16.48</ele>
        <time>2014-02-16T10:46:16Z</time>
      </trkpt>
      <trkpt lat="47.2623" lon="-1.59973">
        <ele>16.96</ele>
        <time>2014-02-16T10:46:18Z</time>
      </trkpt>
      <trkpt lat="47.26227" lon="-1.59979">
        <ele>16.96</ele>
        <time>2014-02-16T10:46:19Z</time>
      </trkpt>
      <trkpt lat="47.26199" lon="-1.60039">
        <ele>17.92</ele>
        <time>2014-02-16T10:46:29Z</time>
      </trkpt>
      <trkpt lat="47.26197" lon="-1.60045">
        <ele>17.92</ele>
        <time>2014-02-16T10:46:30Z</time>
      </trkpt>
      <trkpt lat="47.26196" lon="-1.60051">
        <ele>17.92</ele>
        <time>2014-02-16T10:46:31Z</time>
      </trkpt>
      <trkpt lat="47.26194" lon="-1.60056">
        <ele>17.92</ele>
        <time>2014-02-16T10:46:32Z</time>
      </trkpt>
      <trkpt lat="47.26194" lon="-1.60062">
        <ele>17.44</ele>
        <time>2014-02-16T10:46:33Z</time>
      </trkpt>
      <trkpt lat="47.26193" lon="-1.60068">
        <ele>17.44</ele>
        <time>2014-02-16T10:46:34Z</time>
      </trkpt>
      <trkpt lat="47.26194" lon="-1.60073">
        <ele>16.96</ele>
        <time>2014-02-16T10:46:35Z</time>
      </trkpt>
      <trkpt lat="47.26196" lon="-1.60077">
        <ele>16.48</ele>
        <time>2014-02-16T10:46:36Z</time>
      </trkpt>
      <trkpt lat="47.26199" lon="-1.6008">
        <ele>16.48</ele>
        <time>2014-02-16T10:46:37Z</time>
      </trkpt>
      <trkpt lat="47.26202" lon="-1.60083">
        <ele>16</ele>
        <time>2014-02-16T10:46:38Z</time>
      </trkpt>
      <trkpt lat="47.26209" lon="-1.6009">
        <ele>16</ele>
        <time>2014-02-16T10:46:40Z</time>
      </trkpt>
      <trkpt lat="47.26213" lon="-1.60092">
        <ele>16</ele>
        <time>2014-02-16T10:46:41Z</time>
      </trkpt>
      <trkpt lat="47.26217" lon="-1.60093">
        <ele>16.48</ele>
        <time>2014-02-16T10:46:42Z</time>
      </trkpt>
      <trkpt lat="47.26221" lon="-1.60093">
        <ele>16.48</ele>
        <time>2014-02-16T10:46:43Z</time>
      </trkpt>
      <trkpt lat="47.26224" lon="-1.60093">
        <ele>16.96</ele>
        <time>2014-02-16T10:46:44Z</time>
      </trkpt>
      <trkpt lat="47.26229" lon="-1.60092">
        <ele>17.44</ele>
        <time>2014-02-16T10:46:45Z</time>
      </trkpt>
      <trkpt lat="47.26255" lon="-1.60085">
        <ele>19.84</ele>
        <time>2014-02-16T10:46:51Z</time>
      </trkpt>
      <trkpt lat="47.2626" lon="-1.60086">
        <ele>19.84</ele>
        <time>2014-02-16T10:46:52Z</time>
      </trkpt>
      <trkpt lat="47.26265" lon="-1.6009">
        <ele>20.32</ele>
        <time>2014-02-16T10:46:53Z</time>
      </trkpt>
      <trkpt lat="47.26268" lon="-1.60095">
        <ele>20.32</ele>
        <time>2014-02-16T10:46:54Z</time>
      </trkpt>
      <trkpt lat="47.26272" lon="-1.60101">
        <ele>20.32</ele>
        <time>2014-02-16T10:46:55Z</time>
      </trkpt>
      <trkpt lat="47.26284" lon="-1.60124">
        <ele>20.32</ele>
        <time>2014-02-16T10:46:59Z</time>
      </trkpt>
      <trkpt lat="47.26286" lon="-1.6013">
        <ele>20.32</ele>
        <time>2014-02-16T10:47:00Z</time>
      </trkpt>
      <trkpt lat="47.26296" lon="-1.60148">
        <ele>20.81</ele>
        <time>2014-02-16T10:47:03Z</time>
      </trkpt>
      <trkpt lat="47.26299" lon="-1.60154">
        <ele>20.81</ele>
        <time>2014-02-16T10:47:04Z</time>
      </trkpt>
      <trkpt lat="47.26308" lon="-1.60169">
        <ele>20.81</ele>
        <time>2014-02-16T10:47:07Z</time>
      </trkpt>
      <trkpt lat="47.26314" lon="-1.60181">
        <ele>20.81</ele>
        <time>2014-02-16T10:47:09Z</time>
      </trkpt>
      <trkpt lat="47.26336" lon="-1.6021">
        <ele>19.36</ele>
        <time>2014-02-16T10:47:16Z</time>
      </trkpt>
      <trkpt lat="47.26349" lon="-1.60257">
        <ele>19.36</ele>
        <time>2014-02-16T10:47:25Z</time>
      </trkpt>
      <trkpt lat="47.26349" lon="-1.60263">
        <ele>19.36</ele>
        <time>2014-02-16T10:47:26Z</time>
      </trkpt>
      <trkpt lat="47.26346" lon="-1.60281">
        <ele>18.88</ele>
        <time>2014-02-16T10:47:29Z</time>
      </trkpt>
      <trkpt lat="47.26337" lon="-1.60344">
        <ele>19.84</ele>
        <time>2014-02-16T10:47:40Z</time>
      </trkpt>
      <trkpt lat="47.26335" lon="-1.60369">
        <ele>21.77</ele>
        <time>2014-02-16T10:47:44Z</time>
      </trkpt>
      <trkpt lat="47.2633" lon="-1.60443">
        <ele>24.17</ele>
        <time>2014-02-16T10:47:56Z</time>
      </trkpt>
      <trkpt lat="47.2632" lon="-1.60519">
        <ele>22.73</ele>
        <time>2014-02-16T10:48:09Z</time>
      </trkpt>
      <trkpt lat="47.26317" lon="-1.60558">
        <ele>22.73</ele>
        <time>2014-02-16T10:48:16Z</time>
      </trkpt>
      <trkpt lat="47.26324" lon="-1.6062">
        <ele>22.25</ele>
        <time>2014-02-16T10:48:26Z</time>
      </trkpt>
      <trkpt lat="47.26334" lon="-1.6065">
        <ele>19.84</ele>
        <time>2014-02-16T10:48:32Z</time>
      </trkpt>
      <trkpt lat="47.26368" lon="-1.60683">
        <ele>18.4</ele>
        <time>2014-02-16T10:48:44Z</time>
      </trkpt>
      <trkpt lat="47.26366" lon="-1.60692">
        <ele>18.88</ele>
        <time>2014-02-16T10:48:52Z</time>
      </trkpt>
      <trkpt lat="47.26366" lon="-1.6069">
        <ele>16.96</ele>
        <time>2014-02-16T10:49:04Z</time>
      </trkpt>
      <trkpt lat="47.26366" lon="-1.60688">
        <ele>17.44</ele>
        <time>2014-02-16T10:49:12Z</time>
      </trkpt>
      <trkpt lat="47.26365" lon="-1.60688">
        <ele>18.4</ele>
        <time>2014-02-16T10:49:18Z</time>
      </trkpt>
      <trkpt lat="47.2636" lon="-1.6068">
        <ele>18.4</ele>
        <time>2014-02-16T10:49:23Z</time>
      </trkpt>
      <trkpt lat="47.26359" lon="-1.60677">
        <ele>18.4</ele>
        <time>2014-02-16T10:49:24Z</time>
      </trkpt>
      <trkpt lat="47.2633" lon="-1.60633">
        <ele>18.88</ele>
        <time>2014-02-16T10:49:35Z</time>
      </trkpt>
      <trkpt lat="47.26318" lon="-1.60591">
        <ele>17.92</ele>
        <time>2014-02-16T10:49:43Z</time>
      </trkpt>
      <trkpt lat="47.26315" lon="-1.60575">
        <ele>16.48</ele>
        <time>2014-02-16T10:49:48Z</time>
      </trkpt>
      <trkpt lat="47.26316" lon="-1.60577">
        <ele>16</ele>
        <time>2014-02-16T10:49:50Z</time>
      </trkpt>
      <trkpt lat="47.26318" lon="-1.60583">
        <ele>15.52</ele>
        <time>2014-02-16T10:49:53Z</time>
      </trkpt>
      <trkpt lat="47.26322" lon="-1.60594">
        <ele>15.52</ele>
        <time>2014-02-16T10:49:56Z</time>
      </trkpt>
      <trkpt lat="47.26323" lon="-1.606">
        <ele>15.52</ele>
        <time>2014-02-16T10:49:57Z</time>
      </trkpt>
      <trkpt lat="47.26334" lon="-1.60648">
        <ele>15.52</ele>
        <time>2014-02-16T10:50:06Z</time>
      </trkpt>
      <trkpt lat="47.26367" lon="-1.60682">
        <ele>17.44</ele>
        <time>2014-02-16T10:50:16Z</time>
      </trkpt>
      <trkpt lat="47.26371" lon="-1.60688">
        <ele>17.92</ele>
        <time>2014-02-16T10:50:19Z</time>
      </trkpt>
      <trkpt lat="47.26367" lon="-1.60689">
        <ele>20.32</ele>
        <time>2014-02-16T10:50:30Z</time>
      </trkpt>
      <trkpt lat="47.26372" lon="-1.60685">
        <ele>18.88</ele>
        <time>2014-02-16T10:50:51Z</time>
      </trkpt>
      <trkpt lat="47.26372" lon="-1.60681">
        <ele>20.32</ele>
        <time>2014-02-16T10:51:06Z</time>
      </trkpt>
      <trkpt lat="47.26371" lon="-1.60686">
        <ele>20.81</ele>
        <time>2014-02-16T10:51:26Z</time>
      </trkpt>
      <trkpt lat="47.26375" lon="-1.60689">
        <ele>22.73</ele>
        <time>2014-02-16T10:51:52Z</time>
      </trkpt>
      <trkpt lat="47.26377" lon="-1.6069">
        <ele>25.13</ele>
        <time>2014-02-16T10:52:08Z</time>
      </trkpt>
      <trkpt lat="47.26379" lon="-1.60686">
        <ele>24.17</ele>
        <time>2014-02-16T10:52:25Z</time>
      </trkpt>
      <trkpt lat="47.26379" lon="-1.60686">
        <ele>26.09</ele>
        <time>2014-02-16T10:52:41Z</time>
      </trkpt>
      <trkpt lat="47.26379" lon="-1.60685">
        <ele>28.5</ele>
        <time>2014-02-16T10:53:02Z</time>
      </trkpt>
      <trkpt lat="47.26376" lon="-1.60685">
        <ele>27.53</ele>
        <time>2014-02-16T10:53:28Z</time>
      </trkpt>
      <trkpt lat="47.26373" lon="-1.60685">
        <ele>24.17</ele>
        <time>2014-02-16T10:53:56Z</time>
      </trkpt>
      <trkpt lat="47.26368" lon="-1.60693">
        <ele>21.77</ele>
        <time>2014-02-16T10:54:07Z</time>
      </trkpt>
      <trkpt lat="47.26367" lon="-1.60695">
        <ele>21.77</ele>
        <time>2014-02-16T10:54:08Z</time>
      </trkpt>
      <trkpt lat="47.26367" lon="-1.60697">
        <ele>21.77</ele>
        <time>2014-02-16T10:54:09Z</time>
      </trkpt>
      <trkpt lat="47.26367" lon="-1.60698">
        <ele>21.77</ele>
        <time>2014-02-16T10:54:10Z</time>
      </trkpt>
      <trkpt lat="47.26364" lon="-1.60718">
        <ele>22.25</ele>
        <time>2014-02-16T10:54:17Z</time>
      </trkpt>
      <trkpt lat="47.26352" lon="-1.60764">
        <ele>22.73</ele>
        <time>2014-02-16T10:54:29Z</time>
      </trkpt>
      <trkpt lat="47.26339" lon="-1.6081">
        <ele>24.17</ele>
        <time>2014-02-16T10:54:40Z</time>
      </trkpt>
      <trkpt lat="47.26326" lon="-1.60854">
        <ele>26.09</ele>
        <time>2014-02-16T10:54:51Z</time>
      </trkpt>
      <trkpt lat="47.26327" lon="-1.60859">
        <ele>26.09</ele>
        <time>2014-02-16T10:54:53Z</time>
      </trkpt>
      <trkpt lat="47.26338" lon="-1.60854">
        <ele>26.09</ele>
        <time>2014-02-16T10:54:58Z</time>
      </trkpt>
      <trkpt lat="47.26364" lon="-1.60828">
        <ele>24.17</ele>
        <time>2014-02-16T10:55:10Z</time>
      </trkpt>
      <trkpt lat="47.26365" lon="-1.60828">
        <ele>23.69</ele>
        <time>2014-02-16T10:55:11Z</time>
      </trkpt>
      <trkpt lat="47.26378" lon="-1.60805">
        <ele>19.84</ele>
        <time>2014-02-16T10:55:18Z</time>
      </trkpt>
      <trkpt lat="47.26383" lon="-1.60807">
        <ele>18.88</ele>
        <time>2014-02-16T10:55:19Z</time>
      </trkpt>
      <trkpt lat="47.26386" lon="-1.60812">
        <ele>18.4</ele>
        <time>2014-02-16T10:55:20Z</time>
      </trkpt>
      <trkpt lat="47.26389" lon="-1.60819">
        <ele>18.4</ele>
        <time>2014-02-16T10:55:21Z</time>
      </trkpt>
      <trkpt lat="47.26392" lon="-1.60826">
        <ele>17.92</ele>
        <time>2014-02-16T10:55:22Z</time>
      </trkpt>
      <trkpt lat="47.26394" lon="-1.60833">
        <ele>17.92</ele>
        <time>2014-02-16T10:55:23Z</time>
      </trkpt>
      <trkpt lat="47.26415" lon="-1.60884">
        <ele>15.52</ele>
        <time>2014-02-16T10:55:33Z</time>
      </trkpt>
      <trkpt lat="47.26446" lon="-1.60937">
        <ele>15.04</ele>
        <time>2014-02-16T10:55:44Z</time>
      </trkpt>
      <trkpt lat="47.2647" lon="-1.60989">
        <ele>15.52</ele>
        <time>2014-02-16T10:55:54Z</time>
      </trkpt>
      <trkpt lat="47.26472" lon="-1.60995">
        <ele>15.52</ele>
        <time>2014-02-16T10:55:55Z</time>
      </trkpt>
      <trkpt lat="47.26473" lon="-1.61002">
        <ele>15.52</ele>
        <time>2014-02-16T10:55:56Z</time>
      </trkpt>
      <trkpt lat="47.26473" lon="-1.61009">
        <ele>15.52</ele>
        <time>2014-02-16T10:55:57Z</time>
      </trkpt>
      <trkpt lat="47.26474" lon="-1.61017">
        <ele>15.52</ele>
        <time>2014-02-16T10:55:58Z</time>
      </trkpt>
      <trkpt lat="47.26475" lon="-1.61075">
        <ele>16</ele>
        <time>2014-02-16T10:56:07Z</time>
      </trkpt>
      <trkpt lat="47.26472" lon="-1.61122">
        <ele>16.48</ele>
        <time>2014-02-16T10:56:14Z</time>
      </trkpt>
      <trkpt lat="47.26465" lon="-1.61143">
        <ele>16.48</ele>
        <time>2014-02-16T10:56:17Z</time>
      </trkpt>
      <trkpt lat="47.2644" lon="-1.61203">
        <ele>17.92</ele>
        <time>2014-02-16T10:56:27Z</time>
      </trkpt>
      <trkpt lat="47.26437" lon="-1.61208">
        <ele>17.92</ele>
        <time>2014-02-16T10:56:28Z</time>
      </trkpt>
      <trkpt lat="47.26433" lon="-1.61213">
        <ele>18.4</ele>
        <time>2014-02-16T10:56:29Z</time>
      </trkpt>
      <trkpt lat="47.26392" lon="-1.61256">
        <ele>21.29</ele>
        <time>2014-02-16T10:56:40Z</time>
      </trkpt>
      <trkpt lat="47.26389" lon="-1.61261">
        <ele>21.29</ele>
        <time>2014-02-16T10:56:41Z</time>
      </trkpt>
      <trkpt lat="47.26387" lon="-1.61266">
        <ele>21.77</ele>
        <time>2014-02-16T10:56:42Z</time>
      </trkpt>
      <trkpt lat="47.26385" lon="-1.61272">
        <ele>21.77</ele>
        <time>2014-02-16T10:56:43Z</time>
      </trkpt>
      <trkpt lat="47.26384" lon="-1.61277">
        <ele>22.25</ele>
        <time>2014-02-16T10:56:44Z</time>
      </trkpt>
      <trkpt lat="47.26382" lon="-1.61283">
        <ele>22.25</ele>
        <time>2014-02-16T10:56:45Z</time>
      </trkpt>
      <trkpt lat="47.26381" lon="-1.61289">
        <ele>22.25</ele>
        <time>2014-02-16T10:56:46Z</time>
      </trkpt>
      <trkpt lat="47.2637" lon="-1.61362">
        <ele>22.25</ele>
        <time>2014-02-16T10:56:58Z</time>
      </trkpt>
      <trkpt lat="47.26368" lon="-1.61376">
        <ele>21.77</ele>
        <time>2014-02-16T10:57:00Z</time>
      </trkpt>
      <trkpt lat="47.26366" lon="-1.6139">
        <ele>21.77</ele>
        <time>2014-02-16T10:57:02Z</time>
      </trkpt>
      <trkpt lat="47.26365" lon="-1.61397">
        <ele>21.29</ele>
        <time>2014-02-16T10:57:03Z</time>
      </trkpt>
      <trkpt lat="47.26368" lon="-1.61452">
        <ele>19.84</ele>
        <time>2014-02-16T10:57:12Z</time>
      </trkpt>
      <trkpt lat="47.26372" lon="-1.61466">
        <ele>19.36</ele>
        <time>2014-02-16T10:57:14Z</time>
      </trkpt>
      <trkpt lat="47.26378" lon="-1.61478">
        <ele>18.88</ele>
        <time>2014-02-16T10:57:16Z</time>
      </trkpt>
      <trkpt lat="47.26382" lon="-1.61483">
        <ele>18.88</ele>
        <time>2014-02-16T10:57:17Z</time>
      </trkpt>
      <trkpt lat="47.26385" lon="-1.61488">
        <ele>18.88</ele>
        <time>2014-02-16T10:57:18Z</time>
      </trkpt>
      <trkpt lat="47.2639" lon="-1.61492">
        <ele>18.88</ele>
        <time>2014-02-16T10:57:19Z</time>
      </trkpt>
      <trkpt lat="47.26394" lon="-1.61496">
        <ele>18.88</ele>
        <time>2014-02-16T10:57:20Z</time>
      </trkpt>
      <trkpt lat="47.26399" lon="-1.61499">
        <ele>18.88</ele>
        <time>2014-02-16T10:57:21Z</time>
      </trkpt>
      <trkpt lat="47.26416" lon="-1.61515">
        <ele>18.88</ele>
        <time>2014-02-16T10:57:25Z</time>
      </trkpt>
      <trkpt lat="47.26426" lon="-1.61531">
        <ele>19.36</ele>
        <time>2014-02-16T10:57:28Z</time>
      </trkpt>
      <trkpt lat="47.26442" lon="-1.61558">
        <ele>18.88</ele>
        <time>2014-02-16T10:57:33Z</time>
      </trkpt>
      <trkpt lat="47.26446" lon="-1.61562">
        <ele>19.36</ele>
        <time>2014-02-16T10:57:34Z</time>
      </trkpt>
      <trkpt lat="47.26451" lon="-1.61565">
        <ele>18.88</ele>
        <time>2014-02-16T10:57:35Z</time>
      </trkpt>
      <trkpt lat="47.26455" lon="-1.61568">
        <ele>19.36</ele>
        <time>2014-02-16T10:57:36Z</time>
      </trkpt>
      <trkpt lat="47.2646" lon="-1.61571">
        <ele>19.36</ele>
        <time>2014-02-16T10:57:37Z</time>
      </trkpt>
      <trkpt lat="47.26465" lon="-1.61574">
        <ele>19.84</ele>
        <time>2014-02-16T10:57:38Z</time>
      </trkpt>
      <trkpt lat="47.26521" lon="-1.61598">
        <ele>22.25</ele>
        <time>2014-02-16T10:57:49Z</time>
      </trkpt>
      <trkpt lat="47.26526" lon="-1.61601">
        <ele>22.25</ele>
        <time>2014-02-16T10:57:50Z</time>
      </trkpt>
      <trkpt lat="47.2653" lon="-1.61605">
        <ele>22.25</ele>
        <time>2014-02-16T10:57:51Z</time>
      </trkpt>
      <trkpt lat="47.26534" lon="-1.6161">
        <ele>22.25</ele>
        <time>2014-02-16T10:57:52Z</time>
      </trkpt>
      <trkpt lat="47.26537" lon="-1.61617">
        <ele>22.25</ele>
        <time>2014-02-16T10:57:53Z</time>
      </trkpt>
      <trkpt lat="47.2654" lon="-1.61623">
        <ele>21.77</ele>
        <time>2014-02-16T10:57:54Z</time>
      </trkpt>
      <trkpt lat="47.26576" lon="-1.61703">
        <ele>18.88</ele>
        <time>2014-02-16T10:58:06Z</time>
      </trkpt>
      <trkpt lat="47.26593" lon="-1.61734">
        <ele>18.4</ele>
        <time>2014-02-16T10:58:11Z</time>
      </trkpt>
      <trkpt lat="47.26598" lon="-1.61739">
        <ele>18.4</ele>
        <time>2014-02-16T10:58:12Z</time>
      </trkpt>
      <trkpt lat="47.26643" lon="-1.61769">
        <ele>19.36</ele>
        <time>2014-02-16T10:58:21Z</time>
      </trkpt>
      <trkpt lat="47.26694" lon="-1.61795">
        <ele>20.81</ele>
        <time>2014-02-16T10:58:31Z</time>
      </trkpt>
      <trkpt lat="47.26699" lon="-1.61796">
        <ele>21.29</ele>
        <time>2014-02-16T10:58:32Z</time>
      </trkpt>
      <trkpt lat="47.26705" lon="-1.61797">
        <ele>21.29</ele>
        <time>2014-02-16T10:58:33Z</time>
      </trkpt>
      <trkpt lat="47.2671" lon="-1.618">
        <ele>21.77</ele>
        <time>2014-02-16T10:58:34Z</time>
      </trkpt>
      <trkpt lat="47.26714" lon="-1.61802">
        <ele>21.77</ele>
        <time>2014-02-16T10:58:35Z</time>
      </trkpt>
      <trkpt lat="47.26749" lon="-1.61836">
        <ele>22.73</ele>
        <time>2014-02-16T10:58:43Z</time>
      </trkpt>
      <trkpt lat="47.26752" lon="-1.61842">
        <ele>22.73</ele>
        <time>2014-02-16T10:58:44Z</time>
      </trkpt>
      <trkpt lat="47.26755" lon="-1.61848">
        <ele>22.73</ele>
        <time>2014-02-16T10:58:45Z</time>
      </trkpt>
      <trkpt lat="47.26756" lon="-1.61855">
        <ele>22.73</ele>
        <time>2014-02-16T10:58:46Z</time>
      </trkpt>
      <trkpt lat="47.26757" lon="-1.61862">
        <ele>22.25</ele>
        <time>2014-02-16T10:58:47Z</time>
      </trkpt>
      <trkpt lat="47.26756" lon="-1.61869">
        <ele>22.25</ele>
        <time>2014-02-16T10:58:48Z</time>
      </trkpt>
      <trkpt lat="47.26755" lon="-1.61876">
        <ele>22.73</ele>
        <time>2014-02-16T10:58:49Z</time>
      </trkpt>
      <trkpt lat="47.26753" lon="-1.61882">
        <ele>22.73</ele>
        <time>2014-02-16T10:58:50Z</time>
      </trkpt>
      <trkpt lat="47.2675" lon="-1.61889">
        <ele>22.73</ele>
        <time>2014-02-16T10:58:51Z</time>
      </trkpt>
      <trkpt lat="47.26749" lon="-1.61896">
        <ele>23.21</ele>
        <time>2014-02-16T10:58:52Z</time>
      </trkpt>
      <trkpt lat="47.26748" lon="-1.61903">
        <ele>23.21</ele>
        <time>2014-02-16T10:58:53Z</time>
      </trkpt>
      <trkpt lat="47.26748" lon="-1.6191">
        <ele>23.21</ele>
        <time>2014-02-16T10:58:54Z</time>
      </trkpt>
      <trkpt lat="47.26748" lon="-1.61924">
        <ele>23.21</ele>
        <time>2014-02-16T10:58:56Z</time>
      </trkpt>
      <trkpt lat="47.26747" lon="-1.61939">
        <ele>23.69</ele>
        <time>2014-02-16T10:58:58Z</time>
      </trkpt>
      <trkpt lat="47.26746" lon="-1.61946">
        <ele>23.69</ele>
        <time>2014-02-16T10:58:59Z</time>
      </trkpt>
      <trkpt lat="47.26745" lon="-1.6196">
        <ele>23.69</ele>
        <time>2014-02-16T10:59:01Z</time>
      </trkpt>
      <trkpt lat="47.26745" lon="-1.61968">
        <ele>23.69</ele>
        <time>2014-02-16T10:59:02Z</time>
      </trkpt>
      <trkpt lat="47.26745" lon="-1.62054">
        <ele>23.69</ele>
        <time>2014-02-16T10:59:14Z</time>
      </trkpt>
      <trkpt lat="47.26746" lon="-1.62061">
        <ele>23.21</ele>
        <time>2014-02-16T10:59:15Z</time>
      </trkpt>
      <trkpt lat="47.26749" lon="-1.62073">
        <ele>23.21</ele>
        <time>2014-02-16T10:59:17Z</time>
      </trkpt>
      <trkpt lat="47.2675" lon="-1.62079">
        <ele>22.73</ele>
        <time>2014-02-16T10:59:18Z</time>
      </trkpt>
      <trkpt lat="47.2675" lon="-1.62094">
        <ele>22.25</ele>
        <time>2014-02-16T10:59:20Z</time>
      </trkpt>
      <trkpt lat="47.26752" lon="-1.62157">
        <ele>18.88</ele>
        <time>2014-02-16T10:59:30Z</time>
      </trkpt>
      <trkpt lat="47.26752" lon="-1.62163">
        <ele>18.88</ele>
        <time>2014-02-16T10:59:31Z</time>
      </trkpt>
      <trkpt lat="47.2675" lon="-1.62218">
        <ele>16.96</ele>
        <time>2014-02-16T10:59:41Z</time>
      </trkpt>
      <trkpt lat="47.26757" lon="-1.62251">
        <ele>16.96</ele>
        <time>2014-02-16T10:59:49Z</time>
      </trkpt>
      <trkpt lat="47.2676" lon="-1.62255">
        <ele>18.88</ele>
        <time>2014-02-16T10:59:52Z</time>
      </trkpt>
      <trkpt lat="47.26767" lon="-1.62256">
        <ele>20.32</ele>
        <time>2014-02-16T10:59:57Z</time>
      </trkpt>
      <trkpt lat="47.26771" lon="-1.62269">
        <ele>21.77</ele>
        <time>2014-02-16T11:00:07Z</time>
      </trkpt>
      <trkpt lat="47.26773" lon="-1.62276">
        <ele>25.13</ele>
        <time>2014-02-16T11:00:18Z</time>
      </trkpt>
      <trkpt lat="47.26773" lon="-1.62278">
        <ele>25.61</ele>
        <time>2014-02-16T11:00:19Z</time>
      </trkpt>
      <trkpt lat="47.26772" lon="-1.6228">
        <ele>26.09</ele>
        <time>2014-02-16T11:00:21Z</time>
      </trkpt>
      <trkpt lat="47.2677" lon="-1.62284">
        <ele>26.57</ele>
        <time>2014-02-16T11:00:23Z</time>
      </trkpt>
      <trkpt lat="47.26769" lon="-1.62287">
        <ele>27.05</ele>
        <time>2014-02-16T11:00:24Z</time>
      </trkpt>
      <trkpt lat="47.26768" lon="-1.62291">
        <ele>27.53</ele>
        <time>2014-02-16T11:00:25Z</time>
      </trkpt>
      <trkpt lat="47.26767" lon="-1.62295">
        <ele>27.53</ele>
        <time>2014-02-16T11:00:26Z</time>
      </trkpt>
      <trkpt lat="47.26766" lon="-1.62298">
        <ele>27.53</ele>
        <time>2014-02-16T11:00:27Z</time>
      </trkpt>
      <trkpt lat="47.26761" lon="-1.62313">
        <ele>28.5</ele>
        <time>2014-02-16T11:00:31Z</time>
      </trkpt>
      <trkpt lat="47.26763" lon="-1.62317">
        <ele>28.5</ele>
        <time>2014-02-16T11:00:32Z</time>
      </trkpt>
      <trkpt lat="47.26765" lon="-1.62319">
        <ele>28.5</ele>
        <time>2014-02-16T11:00:33Z</time>
      </trkpt>
      <trkpt lat="47.26767" lon="-1.62322">
        <ele>28.02</ele>
        <time>2014-02-16T11:00:34Z</time>
      </trkpt>
      <trkpt lat="47.26769" lon="-1.62326">
        <ele>28.02</ele>
        <time>2014-02-16T11:00:35Z</time>
      </trkpt>
      <trkpt lat="47.26774" lon="-1.62336">
        <ele>28.02</ele>
        <time>2014-02-16T11:00:37Z</time>
      </trkpt>
      <trkpt lat="47.26781" lon="-1.62353">
        <ele>28.02</ele>
        <time>2014-02-16T11:00:40Z</time>
      </trkpt>
      <trkpt lat="47.26784" lon="-1.62358">
        <ele>28.02</ele>
        <time>2014-02-16T11:00:41Z</time>
      </trkpt>
      <trkpt lat="47.26791" lon="-1.62366">
        <ele>27.53</ele>
        <time>2014-02-16T11:00:43Z</time>
      </trkpt>
      <trkpt lat="47.26795" lon="-1.62369">
        <ele>27.53</ele>
        <time>2014-02-16T11:00:44Z</time>
      </trkpt>
      <trkpt lat="47.26799" lon="-1.62369">
        <ele>27.53</ele>
        <time>2014-02-16T11:00:45Z</time>
      </trkpt>
      <trkpt lat="47.26817" lon="-1.62377">
        <ele>29.46</ele>
        <time>2014-02-16T11:00:52Z</time>
      </trkpt>
      <trkpt lat="47.26841" lon="-1.624">
        <ele>33.78</ele>
        <time>2014-02-16T11:01:03Z</time>
      </trkpt>
      <trkpt lat="47.26862" lon="-1.62419">
        <ele>36.67</ele>
        <time>2014-02-16T11:01:14Z</time>
      </trkpt>
      <trkpt lat="47.26871" lon="-1.62426">
        <ele>37.63</ele>
        <time>2014-02-16T11:01:20Z</time>
      </trkpt>
      <trkpt lat="47.26872" lon="-1.62427">
        <ele>37.63</ele>
        <time>2014-02-16T11:01:21Z</time>
      </trkpt>
      <trkpt lat="47.26874" lon="-1.62428">
        <ele>37.63</ele>
        <time>2014-02-16T11:01:22Z</time>
      </trkpt>
      <trkpt lat="47.26875" lon="-1.62428">
        <ele>37.63</ele>
        <time>2014-02-16T11:01:23Z</time>
      </trkpt>
      <trkpt lat="47.26877" lon="-1.62428">
        <ele>37.63</ele>
        <time>2014-02-16T11:01:24Z</time>
      </trkpt>
      <trkpt lat="47.26879" lon="-1.62428">
        <ele>37.63</ele>
        <time>2014-02-16T11:01:25Z</time>
      </trkpt>
      <trkpt lat="47.26881" lon="-1.62428">
        <ele>37.63</ele>
        <time>2014-02-16T11:01:26Z</time>
      </trkpt>
      <trkpt lat="47.26883" lon="-1.62428">
        <ele>37.15</ele>
        <time>2014-02-16T11:01:27Z</time>
      </trkpt>
      <trkpt lat="47.26886" lon="-1.62429">
        <ele>37.15</ele>
        <time>2014-02-16T11:01:28Z</time>
      </trkpt>
      <trkpt lat="47.26908" lon="-1.62431">
        <ele>38.11</ele>
        <time>2014-02-16T11:01:39Z</time>
      </trkpt>
      <trkpt lat="47.26924" lon="-1.62444">
        <ele>39.55</ele>
        <time>2014-02-16T11:01:48Z</time>
      </trkpt>
      <trkpt lat="47.2693" lon="-1.62444">
        <ele>40.99</ele>
        <time>2014-02-16T11:01:51Z</time>
      </trkpt>
      <trkpt lat="47.26931" lon="-1.62445">
        <ele>41.95</ele>
        <time>2014-02-16T11:01:52Z</time>
      </trkpt>
      <trkpt lat="47.26932" lon="-1.62446">
        <ele>42.44</ele>
        <time>2014-02-16T11:01:53Z</time>
      </trkpt>
      <trkpt lat="47.26933" lon="-1.62448">
        <ele>42.92</ele>
        <time>2014-02-16T11:01:54Z</time>
      </trkpt>
      <trkpt lat="47.26934" lon="-1.6245">
        <ele>43.4</ele>
        <time>2014-02-16T11:01:55Z</time>
      </trkpt>
      <trkpt lat="47.26935" lon="-1.62451">
        <ele>43.88</ele>
        <time>2014-02-16T11:01:56Z</time>
      </trkpt>
      <trkpt lat="47.26936" lon="-1.62451">
        <ele>44.36</ele>
        <time>2014-02-16T11:01:57Z</time>
      </trkpt>
      <trkpt lat="47.26938" lon="-1.62451">
        <ele>44.84</ele>
        <time>2014-02-16T11:01:58Z</time>
      </trkpt>
      <trkpt lat="47.26939" lon="-1.62448">
        <ele>46.28</ele>
        <time>2014-02-16T11:02:00Z</time>
      </trkpt>
      <trkpt lat="47.26944" lon="-1.62429">
        <ele>48.2</ele>
        <time>2014-02-16T11:02:06Z</time>
      </trkpt>
      <trkpt lat="47.26956" lon="-1.62425">
        <ele>48.68</ele>
        <time>2014-02-16T11:02:11Z</time>
      </trkpt>
      <trkpt lat="47.26989" lon="-1.62429">
        <ele>50.13</ele>
        <time>2014-02-16T11:02:21Z</time>
      </trkpt>
      <trkpt lat="47.27011" lon="-1.62434">
        <ele>53.01</ele>
        <time>2014-02-16T11:02:29Z</time>
      </trkpt>
      <trkpt lat="47.27019" lon="-1.62431">
        <ele>53.49</ele>
        <time>2014-02-16T11:02:33Z</time>
      </trkpt>
    </trkseg>
  </trk>
</gpx>